[[{"header":{"parameterUnit":"m.s-1","parameterCategory":1,"la1":30.6,"la2":28.766,"lo1":-90.7593,"lo2":-88.6598,"dy":0.0162,"dx":0.0183,"nx":116,"ny":114,"refTime":"2023-08-09T12:00:00:Z","depth":0,"parameterNumber":2,"parameterNumberName":"U-component_of_WINDS"},"data":[0.0,0.0,0.0,0.0,0.0,0.0,0.0,0.0,0.0,0.0,0.0,0.0,0.0,0.0,0.0,0.0,0.0,0.0,0.0,0.0,0.0,0.0,0.0,0.0,0.0,0.0,0.0,0.0,0.0,0.0,0.0,0.0,0.0,0.0,0.0,0.0,0.0,0.0,0.0,0.0,0.0,0.0,0.0,0.0,0.0,0.0,0.0,0.0,0.0,0.0,0.0,0.0,0.0,0.0,0.0,0.0,0.0,0.0,0.0,0.0,0.0,0.0,0.0,0.0,0.0,0.0,0.0,0.0,0.0,0.0,0.0,0.0,0.0,0.0,0.0,0.0,0.0,0.0,0.0,0.0,0.0,0.0,0.0,0.0,0.0,0.0,0.0,0.0,0.0,0.0,0.0,0.0,0.0,0.0,0.0,0.0,0.0,0.0,0.0,0.0,0.0,0.0,0.0,0.0,0.0,0.0,0.0,0.0,0.0,0.0,0.0,0.0,0.0,0.0,0.0,0.0,0.0,0.0,0.0,0.0,0.0,0.0,0.0,0.0,0.0,0.0,0.0,0.0,0.0,0.0,0.0,0.0,0.0,0.0,0.0,0.0,0.0,0.0,0.0,0.0,0.0,0.0,0.0,0.0,0.0,0.0,0.0,0.0,0.0,0.0,0.0,0.0,0.0,0.0,0.0,0.0,0.0,0.0,0.0,0.0,0.0,0.0,0.0,0.0,0.0,0.0,0.0,0.0,0.0,0.0,0.0,0.0,0.0,0.0,0.0,0.0,0.0,0.0,0.0,0.0,0.0,0.0,0.0,0.0,0.0,0.0,0.0,0.0,0.0,0.0,0.0,0.0,0.0,0.0,0.0,0.0,0.0,0.0,0.0,0.0,0.0,0.0,0.0,0.0,0.0,0.0,0.0,0.0,0.0,0.0,0.0,0.0,0.0,0.0,0.0,0.0,0.0,0.0,0.0,0.0,0.0,0.0,0.0,0.0,0.0,0.0,0.0,0.0,0.0,0.0,0.0,0.0,0.0,0.0,0.0,0.0,0.0,0.0,0.0,0.0,0.0,0.0,0.0,0.0,0.0,0.0,0.0,0.0,0.0,0.0,0.0,0.0,0.0,0.0,0.0,0.0,0.0,0.0,0.0,0.0,0.0,0.0,0.0,0.0,0.0,0.0,0.0,0.0,0.0,0.0,0.0,0.0,0.0,0.0,0.0,0.0,0.0,0.0,0.0,0.0,0.0,0.0,0.0,0.0,0.0,0.0,0.0,0.0,0.0,0.0,0.0,0.0,0.0,0.0,0.0,0.0,0.0,0.0,0.0,0.0,0.0,0.0,0.0,0.0,0.0,0.0,0.0,0.0,0.0,0.0,0.0,0.0,0.0,0.0,0.0,0.0,0.0,0.0,0.0,0.0,0.0,0.0,0.0,0.0,0.0,0.0,0.0,0.0,0.0,0.0,0.0,0.0,0.0,0.0,0.0,0.0,0.0,0.0,0.0,0.0,0.0,0.0,0.0,0.0,0.0,0.0,0.0,0.0,0.0,0.0,0.0,0.0,0.0,0.0,0.0,0.0,0.0,0.0,0.0,0.0,0.0,0.0,0.0,0.0,0.0,0.0,0.0,0.0,0.0,0.0,0.0,0.0,0.0,0.0,0.0,0.0,0.0,0.0,0.0,0.0,0.0,0.0,0.0,0.0,0.0,0.0,0.0,0.0,0.0,0.0,0.0,0.0,0.0,0.0,0.0,0.0,0.0,0.0,0.0,0.0,0.0,0.0,0.0,0.0,0.0,0.0,0.0,0.0,0.0,0.0,0.0,0.0,0.0,0.0,0.0,0.0,0.0,0.0,0.0,0.0,0.0,0.0,0.0,0.0,0.0,0.0,0.0,0.0,0.0,0.0,0.0,0.0,0.0,0.0,0.0,0.0,0.0,0.0,0.0,0.0,0.0,0.0,0.0,0.0,0.0,0.0,0.0,0.0,0.0,0.0,0.0,0.0,0.0,0.0,0.0,0.0,0.0,0.0,0.0,0.0,0.0,0.0,0.0,0.0,0.0,0.0,0.0,0.0,0.0,0.0,0.0,0.0,0.0,0.0,0.0,0.0,0.0,0.0,0.0,0.0,0.0,0.0,0.0,0.0,0.0,0.0,0.0,0.0,0.0,0.0,0.0,0.0,0.0,0.0,0.0,0.0,0.0,0.0,0.0,0.0,0.0,0.0,0.0,0.0,0.0,0.0,0.0,0.0,0.0,0.0,0.0,0.0,0.0,0.0,0.0,0.0,0.0,0.0,0.0,0.0,0.0,0.0,0.0,0.0,0.0,0.0,0.0,0.0,0.0,0.0,0.0,0.0,0.0,0.0,0.0,0.0,0.0,0.0,0.0,0.0,0.0,0.0,0.0,0.0,0.0,0.0,0.0,0.0,0.0,0.0,0.0,0.0,0.0,0.0,0.0,0.0,0.0,0.0,0.0,0.0,0.0,0.0,0.0,0.0,0.0,0.0,0.0,0.0,0.0,0.0,0.0,0.0,0.0,0.0,0.0,0.0,0.0,0.0,0.0,0.0,0.0,0.0,0.0,0.0,0.0,0.0,0.0,0.0,0.0,0.0,0.0,0.0,0.0,0.0,0.0,0.0,0.0,0.0,0.0,0.0,0.0,0.0,0.0,0.0,0.0,0.0,0.0,0.0,0.0,0.0,0.0,0.0,0.0,0.0,0.0,0.0,0.0,0.0,0.0,0.0,0.0,0.0,0.0,0.0,0.0,0.0,0.0,0.0,0.0,0.0,0.0,0.0,0.0,0.0,0.0,0.0,0.0,0.0,0.0,0.0,0.0,0.0,0.0,0.0,0.0,0.0,0.0,0.0,0.0,0.0,0.0,0.0,0.0,0.0,0.0,0.0,0.0,0.0,0.0,0.0,0.0,0.0,0.0,0.0,0.0,0.0,0.0,0.0,0.0,0.0,0.0,0.0,0.0,0.0,0.0,0.0,0.0,0.0,0.0,0.0,0.0,0.0,0.0,0.0,0.0,0.0,0.0,0.0,0.0,0.0,0.0,0.0,0.0,0.0,0.0,0.0,0.0,0.0,0.0,0.0,0.0,0.0,0.0,0.0,0.0,0.0,0.0,0.0,0.0,0.0,0.0,0.0,0.0,0.0,0.0,0.0,0.0,0.0,0.0,0.0,0.0,0.0,0.0,0.0,0.0,0.0,0.0,0.0,0.0,0.0,0.0,0.0,0.0,0.0,0.0,0.0,0.0,0.0,0.0,0.0,0.0,0.0,0.0,0.0,0.0,0.0,0.0,0.0,0.0,0.0,0.0,0.0,0.0,0.0,0.0,0.0,0.0,0.0,0.0,0.0,0.0,0.0,0.0,0.0,0.0,0.0,0.0,0.0,0.0,0.0,0.0,0.0,0.0,0.0,0.0,0.0,0.0,0.0,0.0,0.0,0.0,0.0,0.0,0.0,0.0,0.0,0.0,0.0,0.0,0.0,0.0,0.0,0.0,0.0,0.0,0.0,0.0,0.0,0.0,0.0,0.0,0.0,0.0,0.0,0.0,0.0,0.0,0.0,0.0,0.0,0.0,0.0,0.0,0.0,0.0,0.0,0.0,0.0,0.0,0.0,0.0,0.0,0.0,0.0,0.0,0.0,0.0,0.0,0.0,0.0,0.0,0.0,0.0,0.0,0.0,0.0,0.0,0.0,0.0,0.0,0.0,0.0,0.0,0.0,0.0,0.0,0.0,0.0,0.0,0.0,0.0,0.0,0.0,0.0,0.0,0.0,0.0,0.0,0.0,0.0,0.0,0.0,0.0,0.0,0.0,0.0,0.0,0.0,0.0,0.0,0.0,0.0,0.0,0.0,0.0,0.0,0.0,0.0,0.0,0.0,0.0,0.0,0.0,0.0,0.0,0.0,0.0,0.0,0.0,0.0,0.0,0.0,0.0,0.0,0.0,0.0,0.0,0.0,0.0,0.0,0.0,0.0,0.0,0.0,0.0,0.0,0.0,0.0,0.0,0.0,0.0,0.0,0.0,0.0,0.0,0.0,0.0,0.0,0.0,0.0,0.0,0.0,0.0,0.0,0.0,0.0,0.0,0.0,0.0,0.0,0.0,0.0,0.0,0.0,0.0,0.0,0.0,0.0,0.0,0.0,0.0,0.0,0.0,0.0,0.0,0.0,0.0,0.0,0.0,0.0,0.0,0.0,0.0,0.0,0.0,0.0,0.0,0.0,0.0,0.0,0.0,0.0,0.0,0.0,0.0,0.0,0.0,0.0,0.0,0.0,0.0,0.0,0.0,0.0,0.0,0.0,0.0,0.0,0.0,0.0,0.0,0.0,0.0,0.0,0.0,0.0,0.0,0.0,0.0,0.0,0.0,0.0,0.0,0.0,0.0,0.0,0.0,0.0,0.0,0.0,0.0,0.0,0.0,0.0,0.0,0.0,0.0,0.0,0.0,0.0,0.0,0.0,0.0,0.0,0.0,0.0,0.0,0.0,0.0,0.0,0.0,0.0,0.0,0.0,0.0,0.0,0.0,0.0,0.0,0.0,0.0,0.0,0.0,0.0,0.0,0.0,0.0,0.0,0.0,0.0,0.0,0.0,0.0,0.0,0.0,0.0,0.0,0.0,0.0,0.0,0.0,0.0,0.0,0.0,0.0,0.0,0.0,0.0,0.0,0.0,0.0,0.0,0.0,0.0,0.0,0.0,0.0,0.0,0.0,0.0,0.0,0.0,0.0,0.0,0.0,0.0,0.0,0.0,0.0,0.0,0.0,0.0,0.0,0.0,0.0,0.0,0.0,0.0,0.0,0.0,0.0,0.0,0.0,0.0,0.0,0.0,0.0,0.0,0.0,0.0,0.0,0.0,0.0,0.0,0.0,0.0,0.0,0.0,0.0,0.0,0.0,0.0,0.0,0.0,0.0,0.0,0.0,0.0,0.0,0.0,0.0,0.0,0.0,0.0,0.0,0.0,0.0,0.0,0.0,0.0,0.0,0.0,0.0,0.0,0.0,0.0,0.0,0.0,0.0,0.0,0.0,0.0,0.0,0.0,0.0,0.0,0.0,0.0,0.0,0.0,0.0,0.0,0.0,0.0,0.0,0.0,0.0,0.0,0.0,0.0,0.0,0.0,0.0,0.0,0.0,0.0,0.0,0.0,0.0,0.0,0.0,0.0,0.0,0.0,0.0,0.0,0.0,0.0,0.0,0.0,0.0,0.0,0.0,0.0,0.0,0.0,0.0,0.0,0.0,0.0,0.0,0.0,0.0,0.0,0.0,0.0,0.0,0.0,0.0,0.0,0.0,0.0,0.0,0.0,0.0,0.0,0.0,0.0,0.0,0.0,0.0,0.0,0.0,0.0,0.0,0.0,0.0,0.0,0.0,0.0,0.0,0.0,0.0,0.0,0.0,0.0,0.0,0.0,0.0,0.0,0.0,0.0,0.0,0.0,0.0,0.0,0.0,0.0,0.0,0.0,0.0,0.0,0.0,0.0,0.0,0.0,0.0,0.0,0.0,0.0,0.0,0.0,0.0,0.0,0.0,0.0,0.0,0.0,0.0,0.0,0.0,0.0,0.0,0.0,0.0,0.0,0.0,0.0,0.0,0.0,0.0,0.0,0.0,0.0,0.0,0.0,0.0,0.0,0.0,0.0,0.0,0.0,0.0,0.0,0.0,0.0,0.0,0.0,0.0,0.0,0.0,0.0,0.0,0.0,0.0,0.0,0.0,0.0,0.0,0.0,0.0,0.0,0.0,0.0,0.0,0.0,0.0,0.0,0.0,0.0,0.0,0.0,0.0,0.0,0.0,0.0,0.0,0.0,0.0,0.0,0.0,0.0,0.0,0.0,0.0,0.0,0.0,0.0,0.0,0.0,0.0,0.0,0.0,0.0,0.0,0.0,0.0,0.0,0.0,0.0,0.0,0.0,0.0,0.0,0.0,0.0,0.0,0.0,0.0,0.0,0.0,0.0,0.0,0.0,0.0,0.0,0.0,0.0,0.0,0.0,0.0,0.0,0.0,0.0,0.0,0.0,0.0,0.0,0.0,0.0,0.0,0.0,0.0,0.0,0.0,0.0,0.0,0.0,0.0,0.0,-4.7668,0.0,0.0,0.0,0.0,0.0,0.0,0.0,0.0,0.0,0.0,0.0,0.0,0.0,0.0,0.0,0.0,0.0,0.0,0.0,0.0,0.0,0.0,0.0,0.0,0.0,0.0,0.0,0.0,0.0,0.0,0.0,0.0,0.0,0.0,0.0,0.0,0.0,0.0,0.0,0.0,0.0,0.0,0.0,0.0,0.0,0.0,0.0,0.0,0.0,0.0,0.0,0.0,0.0,0.0,0.0,0.0,0.0,0.0,0.0,0.0,0.0,0.0,0.0,0.0,0.0,0.0,0.0,0.0,0.0,0.0,0.0,0.0,0.0,0.0,0.0,0.0,0.0,0.0,0.0,0.0,0.0,0.0,0.0,0.0,0.0,0.0,0.0,0.0,0.0,0.0,0.0,0.0,0.0,0.0,0.0,0.0,0.0,0.0,0.0,0.0,0.0,0.0,0.0,0.0,0.0,0.0,0.0,0.0,0.0,0.0,0.0,0.0,0.0,0.0,0.0,0.0,-5.0511,0.0,0.0,0.0,0.0,0.0,0.0,0.0,0.0,0.0,0.0,0.0,0.0,0.0,0.0,0.0,0.0,0.0,0.0,0.0,0.0,0.0,0.0,0.0,0.0,0.0,0.0,0.0,0.0,0.0,0.0,0.0,0.0,0.0,0.0,0.0,0.0,0.0,0.0,0.0,0.0,0.0,0.0,0.0,0.0,0.0,0.0,0.0,0.0,0.0,0.0,0.0,0.0,0.0,0.0,0.0,0.0,0.0,0.0,0.0,0.0,0.0,0.0,0.0,0.0,0.0,0.0,0.0,0.0,0.0,0.0,0.0,0.0,0.0,0.0,0.0,0.0,0.0,0.0,0.0,0.0,0.0,0.0,0.0,0.0,0.0,0.0,0.0,0.0,0.0,0.0,0.0,0.0,0.0,0.0,0.0,0.0,0.0,0.0,0.0,0.0,0.0,0.0,0.0,0.0,0.0,0.0,0.0,0.0,-5.9219,-6.0535,-6.1493,-6.2181,-6.248,-6.2301,-5.9129,-5.6675,-5.476,-5.2965,0.0,0.0,0.0,0.0,0.0,0.0,0.0,0.0,0.0,0.0,0.0,0.0,0.0,0.0,0.0,0.0,0.0,0.0,0.0,0.0,0.0,0.0,0.0,0.0,0.0,0.0,0.0,0.0,0.0,0.0,0.0,0.0,0.0,0.0,0.0,0.0,0.0,0.0,-4.1,-4.2635,-4.3463,-4.3539,0.0,0.0,0.0,0.0,0.0,0.0,0.0,0.0,0.0,0.0,0.0,0.0,0.0,0.0,0.0,0.0,0.0,0.0,0.0,0.0,0.0,0.0,0.0,0.0,0.0,0.0,0.0,0.0,0.0,0.0,0.0,0.0,0.0,0.0,0.0,0.0,0.0,0.0,0.0,0.0,0.0,0.0,0.0,0.0,-3.5726,-3.5625,0.0,0.0,0.0,0.0,0.0,0.0,0.0,0.0,0.0,0.0,0.0,0.0,0.0,-5.6047,-5.7932,-6.1104,-6.281,-6.3019,-6.6101,-6.7358,-6.6939,-6.7657,-6.7956,-6.7956,-6.7986,0.0,-5.7543,-5.6675,0.0,0.0,0.0,0.0,0.0,0.0,0.0,0.0,0.0,0.0,0.0,0.0,0.0,0.0,0.0,0.0,0.0,0.0,0.0,0.0,0.0,0.0,0.0,0.0,0.0,0.0,0.0,0.0,0.0,0.0,0.0,0.0,0.0,0.0,0.0,0.0,0.0,-4.2333,-4.3689,-4.5045,-4.6125,-4.6878,-4.5347,-4.4493,-4.4041,-4.2359,0.0,0.0,0.0,0.0,0.0,0.0,0.0,0.0,0.0,0.0,0.0,0.0,0.0,0.0,0.0,0.0,0.0,0.0,0.0,0.0,0.0,0.0,0.0,0.0,0.0,0.0,0.0,0.0,0.0,0.0,0.0,0.0,0.0,0.0,0.0,0.0,0.0,0.0,0.0,-3.6207,-3.7079,-3.471,-3.6444,-3.7907,0.0,0.0,0.0,0.0,0.0,0.0,0.0,0.0,0.0,-5.6526,-5.9189,-6.1343,-6.2959,-6.6251,-6.8256,-6.9034,-7.0859,-7.2176,-7.2924,-7.2505,-7.2505,-7.2864,-7.2744,-7.0111,-6.5592,-6.2331,-5.9668,-5.7363,0.0,0.0,0.0,0.0,-5.5478,-5.6286,0.0,0.0,0.0,0.0,0.0,0.0,0.0,0.0,0.0,0.0,0.0,0.0,0.0,0.0,0.0,0.0,0.0,0.0,0.0,0.0,0.0,0.0,0.0,0.0,0.0,0.0,0.0,0.0,0.0,-4.5171,-4.6577,-4.7807,-4.8912,-4.9816,-4.9389,-4.7983,-4.5849,-4.4719,-4.3037,0.0,0.0,0.0,0.0,0.0,0.0,0.0,0.0,0.0,0.0,0.0,0.0,0.0,0.0,0.0,0.0,0.0,0.0,0.0,0.0,0.0,0.0,0.0,0.0,0.0,0.0,0.0,0.0,0.0,0.0,0.0,0.0,0.0,0.0,0.0,0.0,0.0,0.0,-3.7416,-3.7983,-3.4572,-3.7563,-3.9648,0.0,0.0,0.0,0.0,0.0,0.0,-5.5299,-5.6885,-5.9129,-6.2271,-6.4755,-6.667,-6.8016,-7.0799,-7.2684,-7.3672,-7.418,-7.5168,-7.6544,-7.5407,-7.5138,-7.5617,-7.5108,-7.4031,-7.2265,-6.7328,-6.4216,-6.2331,-5.9338,-5.7992,-5.7872,-5.9338,-6.0116,-6.0775,0.0,0.0,0.0,0.0,0.0,0.0,0.0,0.0,0.0,0.0,0.0,0.0,0.0,0.0,0.0,0.0,0.0,0.0,0.0,0.0,0.0,0.0,0.0,0.0,0.0,0.0,0.0,0.0,0.0,0.0,-4.9414,-5.1071,-5.2176,-5.2729,-5.2678,-5.2302,-5.1423,-4.7179,-4.5321,-4.492,0.0,0.0,0.0,0.0,0.0,0.0,0.0,0.0,0.0,0.0,0.0,0.0,0.0,0.0,0.0,0.0,0.0,0.0,0.0,0.0,0.0,0.0,0.0,0.0,0.0,0.0,0.0,0.0,0.0,0.0,0.0,0.0,0.0,0.0,0.0,0.0,0.0,0.0,0.0,-3.7159,-4.1781,0.0,0.0,0.0,0.0,-5.0652,-5.5567,-5.9458,-6.1523,-6.3498,-6.5772,-6.8465,-7.047,-7.2146,-7.3492,-7.4929,-7.5677,-7.5766,-7.5796,-7.5856,-7.5916,-7.5198,-7.4899,-7.4929,-7.4899,-7.4809,-7.442,-7.041,-6.7926,-6.649,-6.4425,-6.3977,-6.4545,-6.4635,-6.5473,-6.649,0.0,0.0,0.0,0.0,0.0,0.0,0.0,0.0,0.0,0.0,0.0,0.0,0.0,0.0,0.0,0.0,0.0,0.0,0.0,0.0,0.0,0.0,0.0,0.0,0.0,0.0,0.0,0.0,0.0,0.0,0.0,0.0,-5.3632,-5.4511,-5.4511,-5.4411,-5.4009,-5.0645,-4.7983,-4.5824,-4.3539,-4.1178,0.0,0.0,0.0,0.0,0.0,0.0,0.0,0.0,0.0,0.0,0.0,0.0,0.0,0.0,0.0,0.0,0.0,0.0,0.0,0.0,0.0,0.0,0.0,0.0,0.0,0.0,0.0,0.0,0.0,0.0,0.0,0.0,0.0,0.0,0.0,0.0,0.0,-4.3595,-4.8678,0.0,0.0,-5.392,-5.7253,-5.8689,-6.2111,-6.5054,-6.7059,-6.9034,-7.0919,-7.2714,-7.427,-7.5288,-7.5766,-7.6664,-7.7143,-7.7143,-7.7143,-7.7143,-7.7083,-7.6036,-7.5527,-7.5527,-7.5078,-7.4869,-7.4779,-7.3373,-7.1727,-6.9991,-6.8435,-6.7747,-6.7627,-6.8046,-6.8764,-6.9542,0.0,0.0,0.0,0.0,0.0,0.0,0.0,0.0,0.0,0.0,0.0,0.0,0.0,0.0,0.0,0.0,0.0,0.0,0.0,0.0,0.0,0.0,0.0,0.0,0.0,0.0,0.0,0.0,0.0,0.0,0.0,0.0,0.0,-5.5114,-5.5114,-5.5013,-5.4712,-5.308,-5.0469,-4.7255,-4.5397,-4.3539,-4.1505,0.0,0.0,0.0,0.0,0.0,0.0,0.0,0.0,0.0,0.0,0.0,0.0,0.0,0.0,0.0,0.0,0.0,0.0,0.0,0.0,0.0,0.0,0.0,0.0,0.0,0.0,0.0,0.0,0.0,0.0,0.0,0.0,0.0,0.0,0.0,-4.8875,-4.9764,-5.4814,-5.7918,-5.719,-6.1141,-6.433,-6.5811,-6.8482,-7.0679,-7.2206,-7.3522,-7.4629,-7.5497,-7.6365,-7.6814,-7.6814,-7.7472,-7.7801,-7.7801,-7.7801,-7.7801,-7.7771,-7.6694,-7.6096,-7.5886,-7.5437,-7.5078,-7.4869,-7.4869,-7.4091,-7.2804,-7.1966,-7.1368,-7.1038,-7.1457,-7.1906,-7.2235,0.0,0.0,0.0,0.0,0.0,0.0,0.0,0.0,0.0,0.0,0.0,0.0,0.0,0.0,0.0,0.0,0.0,0.0,0.0,0.0,0.0,0.0,0.0,0.0,0.0,0.0,0.0,0.0,0.0,0.0,0.0,0.0,0.0,0.0,-5.4587,-5.4285,-5.3808,-5.4336,-5.2703,-4.9565,-4.733,-4.5748,-4.4342,0.0,0.0,0.0,0.0,0.0,0.0,0.0,0.0,0.0,0.0,0.0,0.0,0.0,0.0,0.0,0.0,0.0,0.0,0.0,0.0,0.0,0.0,0.0,0.0,0.0,0.0,0.0,0.0,0.0,0.0,0.0,0.0,0.0,-4.5523,-4.9157,-5.2557,-5.5359,-6.0065,-6.3028,-6.3012,-6.7627,-7.0906,-7.1586,-7.4306,-7.6215,-7.6784,-7.6844,-7.6844,-7.6844,-7.6874,-7.6874,-7.6874,-7.7532,-7.7831,-7.7831,-7.7831,-7.7831,-7.7771,-7.7113,-7.6485,-7.5886,-7.5886,-7.5497,-7.4869,-7.4869,-7.4869,-7.4869,-7.4869,-7.4869,-7.4869,-7.4869,-7.4869,-7.4689,0.0,0.0,0.0,0.0,0.0,0.0,0.0,0.0,0.0,0.0,0.0,0.0,0.0,0.0,0.0,0.0,0.0,0.0,0.0,0.0,0.0,0.0,0.0,0.0,0.0,0.0,0.0,0.0,0.0,0.0,0.0,0.0,0.0,0.0,0.0,-5.529,-5.5465,-5.4838,-5.4034,-5.298,-5.0343,-4.8134,-4.6125,0.0,0.0,0.0,0.0,0.0,0.0,0.0,0.0,0.0,0.0,0.0,0.0,0.0,0.0,0.0,0.0,0.0,0.0,0.0,0.0,0.0,0.0,0.0,0.0,0.0,0.0,0.0,0.0,0.0,0.0,0.0,0.0,-5.0153,-5.3383,-5.6066,-5.9508,-6.4182,-6.8328,-7.0967,-7.1394,-7.406,-7.5851,-7.6029,-7.6841,-7.7143,-7.6844,-7.7293,-7.7532,-7.7532,-7.8011,-7.825,-7.825,-7.843,-7.8519,-7.8519,-7.8519,-7.8011,-7.7083,-7.6904,-7.6215,-7.5168,-7.5168,-7.5048,-7.4869,-7.4869,-7.4869,-7.4869,-7.4869,-7.4869,-7.4869,-7.4869,-7.4869,-7.4689,0.0,0.0,0.0,0.0,0.0,0.0,0.0,0.0,0.0,0.0,0.0,0.0,0.0,0.0,0.0,0.0,0.0,0.0,0.0,0.0,0.0,0.0,0.0,0.0,0.0,0.0,0.0,0.0,0.0,0.0,0.0,0.0,0.0,0.0,0.0,0.0,-5.5867,-5.5666,-5.534,-5.4787,-5.3406,-5.1523,-4.9238,-4.62,-4.402,-4.2494,-4.1579,-4.0275,-3.8897,-3.8587,0.0,0.0,0.0,0.0,0.0,0.0,0.0,0.0,0.0,0.0,0.0,0.0,0.0,0.0,0.0,0.0,0.0,0.0,0.0,0.0,0.0,0.0,0.0,0.0,-5.1813,-5.6925,-6.1491,-6.2641,-6.5153,-7.0744,-7.3524,-7.5571,-7.7164,-7.7839,-7.795,-7.7328,-7.7908,-7.7652,-7.6342,-7.7551,-7.822,-7.822,-7.8579,-7.8789,-7.8789,-7.8789,-7.8789,-7.8789,-7.8519,-7.813,-7.7622,-7.7083,-7.6425,0.0,-7.5407,-7.5138,-7.4869,-7.4869,-7.4869,0.0,0.0,0.0,0.0,0.0,-7.454,-7.3941,0.0,0.0,0.0,0.0,0.0,0.0,0.0,0.0,0.0,0.0,0.0,0.0,0.0,0.0,0.0,0.0,0.0,0.0,0.0,0.0,0.0,0.0,0.0,0.0,0.0,0.0,0.0,0.0,0.0,0.0,0.0,0.0,0.0,0.0,0.0,0.0,0.0,-5.662,-5.6445,-5.5541,-5.6068,-5.4988,-5.2678,-4.949,-4.8384,-4.8321,-4.5789,-4.4136,-4.2806,-4.0652,0.0,0.0,0.0,0.0,0.0,0.0,0.0,0.0,0.0,0.0,0.0,0.0,0.0,0.0,0.0,0.0,0.0,0.0,0.0,0.0,0.0,0.0,0.0,0.0,-5.7733,-6.3519,-6.8769,-6.8725,-7.0228,-7.5617,-7.6747,-7.805,-8.0675,-7.9776,-7.8375,-7.6866,-7.808,-7.7917,-7.5704,0.0,0.0,0.0,0.0,-7.8789,-7.8789,-7.8789,-7.8789,-7.8789,-7.819,-7.816,-7.8519,-7.7442,-7.6844,-7.6694,-7.6155,-7.5557,-7.4988,-7.4899,-7.4869,-7.4869,-7.4869,-7.4869,-7.4869,-7.4869,-7.4091,-7.3013,0.0,0.0,0.0,0.0,0.0,0.0,0.0,0.0,0.0,0.0,0.0,0.0,0.0,0.0,0.0,0.0,0.0,0.0,0.0,0.0,0.0,0.0,0.0,0.0,0.0,0.0,0.0,0.0,0.0,0.0,0.0,0.0,0.0,0.0,0.0,0.0,0.0,0.0,-5.6646,-5.6093,-5.6646,-5.5541,-5.3331,-5.1373,-4.9372,-4.7409,-4.6848,-4.5513,-4.4132,-4.4719,-4.3937,-4.252,-4.1583,0.0,0.0,0.0,0.0,0.0,0.0,0.0,0.0,0.0,0.0,0.0,0.0,0.0,0.0,0.0,0.0,0.0,0.0,0.0,0.0,-5.6194,-6.1884,-6.707,-7.0666,-7.3676,-7.6397,-7.876,-7.9619,-8.0378,-8.1512,-8.0883,-7.956,-7.7588,-7.8788,-7.842,-7.5733,-7.7608,0.0,-7.8789,-7.8789,-7.8789,-7.8789,-7.8789,-7.8789,-7.8789,0.0,0.0,-7.7233,-7.7502,-7.7053,-7.6066,-7.5946,-7.5826,-7.5647,-7.5108,-7.4869,-7.4869,-7.4869,-7.4869,-7.4869,-7.4869,-7.436,-7.3642,0.0,0.0,0.0,0.0,0.0,0.0,0.0,0.0,0.0,0.0,0.0,0.0,0.0,0.0,0.0,0.0,0.0,0.0,0.0,0.0,0.0,0.0,0.0,0.0,0.0,0.0,0.0,0.0,0.0,0.0,0.0,0.0,0.0,0.0,0.0,0.0,0.0,0.0,0.0,-5.5842,-5.6394,-5.5616,-5.4034,-5.3231,-5.1725,-4.9977,-4.9731,-4.8436,-4.6897,-4.6548,-4.5759,-4.4646,-4.3541,-4.1905,-4.0124,0.0,0.0,0.0,0.0,0.0,0.0,0.0,0.0,0.0,0.0,0.0,0.0,0.0,0.0,-4.9314,0.0,0.0,-5.9817,-6.3181,-6.805,-7.2049,-7.3929,-7.6797,-7.9083,-8.0138,-8.0614,-8.1183,-8.217,-8.1093,-7.956,-7.7761,-7.867,-7.8331,-7.6241,-7.7859,-7.8938,-7.9297,-7.9297,-7.9297,-7.9297,-7.9297,-7.9297,-7.9297,-7.8609,-7.813,-7.7801,-7.7143,-7.6664,-7.6335,-7.5677,-7.5377,-7.5377,-7.5018,-7.4869,-7.4839,-7.451,-7.439,-7.436,-7.4001,-7.3462,-7.2804,0.0,0.0,0.0,0.0,0.0,0.0,0.0,0.0,0.0,0.0,0.0,0.0,0.0,0.0,0.0,0.0,0.0,0.0,0.0,0.0,0.0,0.0,0.0,0.0,0.0,0.0,0.0,0.0,0.0,0.0,0.0,0.0,0.0,0.0,0.0,0.0,0.0,0.0,0.0,0.0,-5.6118,-5.5541,-5.4561,-5.4436,-5.3858,-5.2955,-5.2101,-5.0569,-4.8696,-4.7238,-4.6376,-4.577,-4.4427,-4.3792,-4.2936,-4.0352,-3.9271,0.0,0.0,0.0,0.0,0.0,0.0,0.0,0.0,0.0,-4.8085,-5.0701,-5.3164,-5.6031,-5.9922,-6.2949,-6.6002,-6.972,-7.3229,-7.5756,-7.632,-7.8344,-7.9956,-8.0375,-8.0644,-8.1272,-8.2469,-8.1003,-7.9352,-7.7761,-7.8582,-7.8464,-7.6703,-7.8272,-7.9327,-7.9627,-7.9746,-7.9806,-7.9806,-7.9686,-7.9686,-7.9806,-7.8579,-7.822,-7.8549,-7.6993,-7.6485,-7.6754,-7.5587,-7.4988,-7.4869,-7.4869,-7.4809,-7.4629,-7.3971,-7.3612,-7.3462,-7.3073,-7.2385,-7.1607,0.0,0.0,0.0,0.0,0.0,0.0,0.0,0.0,0.0,0.0,0.0,0.0,0.0,0.0,0.0,0.0,0.0,0.0,0.0,0.0,0.0,0.0,0.0,0.0,0.0,0.0,0.0,0.0,0.0,0.0,0.0,0.0,0.0,0.0,0.0,0.0,0.0,0.0,0.0,0.0,0.0,0.0,-5.4511,-5.3984,-5.3708,-5.3356,-5.1322,-4.8912,-4.6692,-4.697,-4.602,-4.5012,-4.6295,-4.603,-4.4744,-4.2514,0.0,-3.8668,-3.7789,-3.8868,-4.0827,-4.3263,-4.4493,-4.6778,0.0,0.0,-5.765,-5.9439,-6.238,-6.521,-6.7269,-6.6738,-6.7512,-7.2392,-7.3882,-7.4787,-7.5555,-7.8079,-7.9627,-7.9088,-8.0075,-8.1093,-8.1811,-8.1153,-7.9826,-7.779,-7.9437,-7.9441,-7.6732,-7.9158,-8.0075,-7.8938,-7.9507,-7.9806,-7.9806,-7.9208,-7.9208,-7.9806,-7.9058,-7.84,-7.7921,-7.7682,-7.7322,-7.6784,-7.6096,-7.5437,-7.4869,-7.4869,-7.454,-7.3941,-7.3283,-7.2654,-7.2176,-7.2714,-7.2116,-7.1009,0.0,0.0,0.0,0.0,0.0,0.0,0.0,0.0,0.0,0.0,0.0,0.0,0.0,0.0,0.0,0.0,0.0,0.0,0.0,0.0,0.0,0.0,0.0,0.0,0.0,0.0,0.0,0.0,0.0,0.0,0.0,0.0,0.0,0.0,0.0,0.0,0.0,0.0,0.0,0.0,0.0,0.0,-5.3507,-5.2628,-5.1699,-5.067,-4.9414,-4.7179,0.0,0.0,-4.4292,-4.3489,-4.5146,-4.492,-4.3664,-4.1756,-4.1003,0.0,-4.1656,-4.2861,0.0,0.0,-4.964,-5.2995,-5.7953,-6.1158,-6.3831,-6.646,-6.9421,-7.1743,-7.2342,-7.2886,-7.3946,0.0,-7.696,-7.7601,-7.8035,-7.8401,-7.84,-7.7741,-7.813,-7.9058,-8.0494,-8.0016,-7.941,-7.892,-7.9366,-7.9291,-7.8507,-7.9574,-8.0135,-7.9956,-8.0614,-8.0764,-8.0405,-8.0105,-7.9926,-7.9806,-7.9118,-7.8639,-7.834,-7.7592,-7.6664,-7.5677,-7.5407,-7.5138,-7.4839,-7.445,-7.4151,-7.3791,-7.2714,-7.1906,-7.1308,-7.1248,-7.0859,-7.026,0.0,0.0,0.0,0.0,0.0,0.0,0.0,0.0,0.0,0.0,0.0,0.0,0.0,0.0,0.0,0.0,0.0,0.0,0.0,0.0,0.0,0.0,0.0,0.0,0.0,0.0,0.0,0.0,0.0,0.0,0.0,0.0,0.0,0.0,0.0,0.0,0.0,0.0,0.0,0.0,0.0,0.0,-5.2553,-5.1122,-4.9264,-4.733,-4.6753,-4.4568,0.0,0.0,-4.1028,-4.0503,-4.2768,-4.2835,-4.1986,-4.1527,-4.19,-4.2766,-4.4217,0.0,0.0,-5.0519,-5.4879,-5.9267,-6.235,-6.6325,-7.0091,-7.2055,-7.4386,-7.6051,-7.6196,-7.6525,0.0,-7.8272,-7.8532,-7.8759,-7.9225,-7.813,-7.7023,-7.6365,-7.5647,-7.5976,-7.7981,-7.822,-7.8609,-7.9477,-7.9058,-7.9178,-8.0045,-8.0255,-8.0494,-8.0794,-8.1272,-8.1272,-8.0794,-8.0434,-8.0105,-7.9806,-7.8938,-7.8519,-7.846,-7.7173,-7.5946,-7.4869,-7.4869,-7.4869,-7.4839,-7.418,-7.3672,-7.3253,-7.2265,-7.1278,-7.032,-6.9871,-6.9602,-6.9273,0.0,0.0,0.0,0.0,0.0,0.0,0.0,0.0,0.0,0.0,0.0,0.0,0.0,0.0,0.0,0.0,0.0,0.0,0.0,0.0,0.0,0.0,0.0,0.0,0.0,0.0,0.0,0.0,0.0,0.0,0.0,0.0,0.0,0.0,0.0,0.0,0.0,0.0,0.0,0.0,0.0,0.0,-5.19,-4.969,-4.6803,-4.389,-4.3313,0.0,0.0,0.0,-3.5855,-3.5587,-3.9336,-4.0157,0.0,-4.2863,-4.3336,0.0,0.0,0.0,-5.0419,-5.426,-5.9743,-6.4857,-6.7058,-7.2734,-7.7156,-7.6176,-7.6723,-7.7776,-7.8933,-7.5446,-7.3767,-7.8093,-7.7047,-7.6189,-7.7665,-7.6784,-7.5707,-7.5018,-7.2654,-7.1876,0.0,-7.5796,-7.7442,-7.8729,-7.8789,-7.9357,-8.0704,-8.1392,-8.1452,-8.0823,-8.0823,-8.0823,-8.0794,-7.9507,-7.9178,-7.9806,-7.846,-7.7831,-7.7801,-7.6514,-7.5557,-7.4869,-7.4869,-7.4869,-7.4839,-7.418,-7.3133,-7.1936,-7.1906,-7.0739,-6.9064,-6.9034,-6.8615,-6.7926,0.0,0.0,0.0,0.0,0.0,0.0,0.0,0.0,0.0,0.0,0.0,0.0,0.0,0.0,0.0,0.0,0.0,0.0,0.0,0.0,0.0,0.0,0.0,0.0,0.0,0.0,0.0,0.0,0.0,0.0,0.0,0.0,0.0,0.0,0.0,0.0,0.0,0.0,0.0,0.0,0.0,0.0,-5.0569,-4.6878,-4.3865,-4.1411,0.0,0.0,0.0,0.0,0.0,0.0,-3.7418,0.0,0.0,-3.9777,-4.198,-4.4242,0.0,0.0,-5.4859,-6.0561,-6.4609,-6.8705,-7.433,-7.769,-7.9631,-7.9803,-7.906,-7.7681,-7.5454,-7.3416,-7.2537,-7.3976,-7.4733,-7.5591,-7.6912,-7.7173,-7.5946,-7.2624,-7.3013,0.0,0.0,0.0,0.0,-7.7322,-7.7891,-7.834,-7.8789,-8.0285,-8.1033,-8.0823,-8.1212,-8.1242,-8.0794,-7.9926,-7.9357,-7.9118,-7.822,-7.7382,-7.6544,-7.6096,-7.5527,-7.4869,-7.442,-7.424,-7.4121,-7.2535,-7.1906,-7.1757,-7.047,-6.9572,-6.8884,-6.7986,-6.7238,-6.664,0.0,0.0,0.0,0.0,0.0,0.0,0.0,0.0,0.0,0.0,0.0,0.0,0.0,0.0,0.0,0.0,0.0,0.0,0.0,0.0,0.0,0.0,0.0,0.0,0.0,0.0,0.0,0.0,0.0,0.0,0.0,0.0,0.0,0.0,0.0,0.0,0.0,0.0,0.0,0.0,0.0,0.0,-4.6476,-4.2836,-4.0256,0.0,0.0,0.0,0.0,0.0,0.0,0.0,0.0,-3.7118,-3.8048,-3.9626,-4.2509,-4.6276,0.0,-5.4486,-5.8476,-6.5161,-6.9053,-7.2749,-7.7992,-8.0062,-8.0657,-7.9841,-7.7711,-7.4899,-7.1427,-6.9482,-6.8704,-6.9632,-7.1248,-7.3193,-7.5467,-7.5946,-7.5138,-7.2624,-7.2984,0.0,0.0,0.0,0.0,-7.6305,-7.7322,-7.8011,-7.8489,-8.0195,-8.1272,-8.1512,-8.1452,-8.1242,-8.0794,-7.9896,-7.8998,-7.8071,-7.7652,-7.6784,-7.5527,-7.5527,-7.5288,-7.4839,-7.418,-7.3881,-7.3732,-7.1727,-7.1038,-7.1068,-6.9572,-6.8555,-6.7867,-6.7238,-6.6281,-6.5293,0.0,0.0,0.0,0.0,0.0,0.0,0.0,0.0,0.0,0.0,0.0,0.0,0.0,0.0,0.0,0.0,0.0,0.0,0.0,0.0,0.0,0.0,0.0,0.0,0.0,-4.1379,-4.2263,0.0,0.0,0.0,0.0,0.0,0.0,0.0,0.0,0.0,0.0,0.0,0.0,0.0,0.0,0.0,-4.0174,-3.7938,0.0,0.0,0.0,0.0,0.0,0.0,0.0,0.0,0.0,0.0,-4.2268,-4.2439,-4.5171,-4.9289,-5.426,-5.7725,-6.155,-6.8135,-7.3103,-7.6753,-7.8251,-8.0124,-8.0375,-7.6455,-7.2894,-6.9662,0.0,0.0,-6.278,-6.5383,-6.7119,-6.9512,-7.3492,-7.3582,-7.3642,0.0,0.0,0.0,0.0,0.0,0.0,-7.5856,0.0,-7.837,-7.9686,-8.1033,-8.205,-8.2754,-8.1482,-8.0794,-8.0794,-7.9417,-7.81,-7.6814,-7.6784,-7.6125,-7.4869,-7.4869,-7.4869,-7.4779,-7.4121,-7.3821,-7.3582,-7.1607,-7.047,-6.9871,-6.9153,-6.7747,-6.6131,-6.67,-6.5652,-6.4006,0.0,0.0,0.0,0.0,0.0,0.0,0.0,0.0,0.0,0.0,0.0,0.0,0.0,0.0,0.0,0.0,0.0,0.0,0.0,0.0,0.0,0.0,0.0,0.0,0.0,0.0,0.0,0.0,0.0,0.0,0.0,0.0,0.0,0.0,0.0,0.0,0.0,0.0,0.0,0.0,0.0,0.0,-3.9045,0.0,0.0,0.0,0.0,0.0,0.0,0.0,0.0,0.0,0.0,0.0,-4.4268,-4.5978,0.0,-5.313,-5.7323,-6.2249,-6.7399,-7.2043,-7.5267,-7.7949,-8.0365,-7.9112,-7.6425,-7.2894,-6.8405,-6.3677,0.0,0.0,0.0,-6.275,-6.7059,0.0,-7.5527,-7.6784,0.0,0.0,0.0,-7.5677,-7.4719,-7.5347,0.0,0.0,-7.7622,-7.816,-7.8998,-8.0794,-8.1871,-8.202,-8.1242,-8.0794,-8.0794,-7.8968,-7.7652,-7.6814,-7.6365,-7.5707,-7.4869,-7.4869,-7.4599,-7.4121,-7.3462,-7.2595,-7.1547,-7.0081,-6.9393,-6.9123,-6.7956,-6.7178,-6.664,-6.5832,-6.4874,-6.3947,0.0,0.0,0.0,0.0,0.0,0.0,0.0,0.0,0.0,0.0,0.0,0.0,0.0,0.0,0.0,0.0,0.0,0.0,0.0,0.0,0.0,0.0,0.0,0.0,0.0,0.0,0.0,0.0,0.0,0.0,0.0,0.0,0.0,0.0,0.0,0.0,0.0,0.0,0.0,0.0,0.0,0.0,0.0,0.0,0.0,0.0,0.0,0.0,0.0,0.0,0.0,-4.1537,-4.2786,-4.5163,-4.8007,-5.0464,0.0,-5.6841,-6.1198,-6.5996,-7.082,-7.5163,-7.7348,-7.8446,-7.8711,-7.6125,-7.2116,-6.646,-6.2032,0.0,0.0,0.0,0.0,0.0,0.0,0.0,-7.442,-7.6514,-7.7173,0.0,-7.7652,0.0,-7.6724,-7.7263,-7.7981,0.0,-7.84,-7.8519,-7.9208,-8.0853,-8.1781,-8.1781,-8.1153,-8.0375,-7.9507,-7.837,-7.7352,-7.6425,-7.6066,-7.5557,-7.4869,-7.4569,-7.424,-7.3851,0.0,-7.1876,-7.0799,-6.9542,-6.8824,-6.8405,-6.7089,-6.637,-6.6011,-6.4964,-6.4156,-6.3558,0.0,0.0,0.0,0.0,0.0,0.0,0.0,0.0,0.0,0.0,0.0,0.0,0.0,0.0,0.0,0.0,0.0,0.0,0.0,0.0,0.0,0.0,0.0,0.0,0.0,0.0,0.0,0.0,0.0,0.0,0.0,0.0,0.0,0.0,0.0,0.0,0.0,0.0,0.0,0.0,0.0,0.0,0.0,0.0,0.0,0.0,0.0,0.0,0.0,0.0,-4.1464,-4.4056,-4.7348,-5.0091,-5.2578,-5.5265,-5.7723,-6.0533,-6.5135,-6.9185,-7.3156,-7.7519,-7.8888,-7.8329,-7.52,-7.2026,-6.7388,-5.9159,0.0,0.0,-4.9359,0.0,-5.2456,-5.6675,0.0,-6.6281,-7.2445,-7.4958,-7.6634,-7.7921,-7.9267,-7.9836,-7.9238,-7.9118,-7.9297,-7.9896,-7.9238,-7.9118,-7.9896,-8.1033,-8.1601,-8.1512,-8.0883,-7.9656,-7.7831,-7.7652,-7.6993,-7.5916,-7.5826,-7.5407,-7.4719,-7.4151,-7.3791,-7.3552,0.0,0.0,-7.056,-6.9363,-6.8465,-6.7717,-6.649,-6.5592,-6.4934,-6.4246,-6.3617,-6.3079,0.0,0.0,0.0,0.0,0.0,0.0,0.0,0.0,0.0,0.0,-3.0586,0.0,0.0,0.0,0.0,0.0,0.0,0.0,0.0,0.0,0.0,0.0,0.0,0.0,0.0,0.0,0.0,0.0,0.0,0.0,0.0,0.0,0.0,0.0,0.0,0.0,0.0,0.0,0.0,0.0,0.0,0.0,0.0,0.0,0.0,0.0,0.0,0.0,0.0,0.0,-4.4099,-4.7511,-4.9962,-5.3117,-5.6495,-5.878,-6.1634,-6.4688,-6.7401,-7.2247,-7.6814,-7.8257,-7.8365,-7.7104,-7.3335,-6.7867,0.0,0.0,0.0,-4.8626,-4.6411,0.0,0.0,-5.7842,0.0,0.0,0.0,0.0,-7.7981,0.0,0.0,0.0,0.0,0.0,0.0,0.0,0.0,0.0,-8.0554,-8.0853,-8.0734,-8.0165,-7.9507,-7.8699,-7.7831,-7.6754,-7.6125,-7.5886,-7.5318,-7.4719,-7.4061,-7.3941,-7.3283,-7.2176,-7.1427,0.0,-6.9273,-6.8465,-6.7747,-6.7089,-6.6311,-6.5592,-6.4934,-6.4246,-6.3617,-6.3079,0.0,0.0,0.0,0.0,0.0,0.0,0.0,0.0,0.0,0.0,-3.0732,-3.1089,0.0,0.0,0.0,0.0,0.0,0.0,0.0,0.0,0.0,0.0,0.0,0.0,0.0,0.0,0.0,0.0,0.0,0.0,0.0,0.0,0.0,0.0,0.0,0.0,0.0,0.0,0.0,0.0,0.0,0.0,0.0,0.0,0.0,0.0,0.0,0.0,0.0,0.0,-4.391,-4.8814,-5.1993,-5.6107,-6.0085,-6.1528,-6.4574,-6.8131,-7.107,-7.4875,-7.8446,-7.9876,-7.8789,-7.5826,-7.0141,0.0,0.0,0.0,0.0,-4.5304,-4.4018,0.0,0.0,0.0,0.0,0.0,0.0,0.0,0.0,0.0,0.0,0.0,0.0,0.0,0.0,0.0,0.0,0.0,-8.0255,-8.0285,-7.9986,-7.9297,-7.8639,-7.7801,-7.6844,-7.6215,-7.5707,-7.5377,-7.5018,-7.454,-7.3881,-7.3552,-7.2834,-7.1816,-7.0859,0.0,-6.8944,-6.8256,-6.7567,-6.6879,-6.5892,-6.5293,-6.4904,-6.3887,-6.3318,-6.3079,0.0,0.0,0.0,0.0,0.0,0.0,0.0,-2.8823,-2.9264,-2.9705,-3.0802,-3.1179,-3.021,-2.9719,-2.9503,0.0,0.0,0.0,0.0,0.0,0.0,0.0,0.0,0.0,0.0,0.0,0.0,0.0,0.0,0.0,0.0,0.0,0.0,0.0,0.0,0.0,0.0,0.0,0.0,0.0,0.0,0.0,0.0,0.0,0.0,0.0,0.0,0.0,0.0,0.0,-4.2584,-4.7608,-5.1524,-5.7042,-6.2266,-6.2925,-6.6399,-7.067,-7.3948,-7.6834,-7.9218,-8.0959,-7.8549,-7.3911,-6.6789,-6.0057,0.0,0.0,0.0,0.0,0.0,0.0,0.0,0.0,0.0,0.0,0.0,0.0,0.0,0.0,0.0,0.0,0.0,0.0,0.0,0.0,0.0,0.0,0.0,-7.9686,-7.9297,-7.8609,-7.7801,-7.6904,-7.5916,-7.5766,-7.5407,-7.4869,-7.4869,-7.445,-7.3672,-7.3163,-7.2475,-7.1607,-7.047,0.0,0.0,-6.8256,-6.7567,-6.6849,-6.5533,-6.5024,-6.4874,-6.3558,-6.3079,-6.3079,0.0,0.0,0.0,0.0,0.0,0.0,0.0,-2.7962,-2.8907,-2.8354,-2.9497,-3.0225,-2.9884,-3.0622,-3.0583,0.0,0.0,0.0,0.0,0.0,0.0,0.0,0.0,0.0,0.0,0.0,0.0,0.0,0.0,0.0,0.0,0.0,0.0,0.0,0.0,0.0,0.0,0.0,0.0,0.0,0.0,0.0,0.0,0.0,0.0,0.0,0.0,0.0,0.0,0.0,0.0,-4.2316,-4.5845,-5.3525,-6.1247,-6.1943,0.0,0.0,-7.409,-7.7195,-7.9766,-7.9912,-7.6125,-7.059,-6.3977,0.0,0.0,0.0,0.0,-4.247,0.0,0.0,0.0,0.0,0.0,0.0,0.0,0.0,0.0,0.0,0.0,0.0,0.0,0.0,0.0,0.0,0.0,0.0,0.0,-7.9238,-7.8579,-7.7921,-7.6724,-7.6036,-7.5916,-7.5288,-7.4929,-7.4869,-7.4869,-7.421,-7.3013,-7.2954,-7.2206,-7.0949,-7.0231,0.0,0.0,-6.8256,-6.7567,-6.6849,-6.5533,-6.5024,-6.4874,-6.3558,-6.3079,-6.3079,0.0,0.0,0.0,0.0,0.0,0.0,0.0,-2.7436,-2.8479,-2.858,-3.012,-3.0981,-3.0335,-3.0357,-2.988,0.0,0.0,0.0,0.0,0.0,0.0,0.0,0.0,0.0,0.0,0.0,0.0,0.0,0.0,0.0,0.0,0.0,0.0,0.0,0.0,0.0,0.0,0.0,0.0,0.0,0.0,0.0,0.0,0.0,0.0,0.0,0.0,0.0,0.0,0.0,0.0,0.0,-4.281,-4.821,0.0,0.0,-6.374,-6.9361,-7.3201,-7.6664,-7.9118,-7.8699,-7.4629,-6.9093,-6.2899,0.0,0.0,-4.3878,-4.1961,-4.1175,-4.1175,0.0,0.0,0.0,0.0,0.0,0.0,0.0,0.0,0.0,0.0,0.0,0.0,0.0,0.0,0.0,0.0,0.0,0.0,-7.8998,-7.736,-7.5436,-7.5743,-7.509,-7.3533,-7.4407,-7.4689,-7.43,-7.43,-7.3582,-7.2265,-7.1876,-7.1218,-7.029,-6.9213,0.0,0.0,-6.7657,-6.6999,-6.6311,-6.5383,-6.4784,-6.4306,-6.3408,-6.3079,-6.3079,0.0,0.0,0.0,0.0,0.0,0.0,-2.6022,-2.719,-2.8216,-2.8757,-2.9897,-3.0511,-3.0228,-2.9389,-2.8638,-2.8003,0.0,0.0,0.0,0.0,0.0,0.0,0.0,0.0,0.0,0.0,-3.2415,-3.2019,-3.2415,0.0,0.0,0.0,0.0,0.0,0.0,0.0,0.0,0.0,0.0,0.0,0.0,0.0,0.0,0.0,0.0,0.0,0.0,0.0,0.0,0.0,0.0,0.0,0.0,0.0,0.0,0.0,-6.0552,-6.652,-7.0949,-7.4689,-7.7173,-7.6514,-7.2235,-6.6729,0.0,0.0,0.0,-4.298,-4.1175,-4.0337,-4.0157,0.0,0.0,0.0,0.0,0.0,0.0,0.0,0.0,0.0,0.0,0.0,0.0,0.0,0.0,0.0,0.0,0.0,0.0,-7.834,-7.6415,-7.4737,-7.5276,-7.4693,-7.284,-7.4011,-7.436,-7.3881,-7.3702,-7.3013,-7.1876,-7.1218,-7.056,-6.9931,0.0,0.0,0.0,-6.7178,-6.649,-6.5652,-6.4994,-6.4425,-6.3917,-6.3318,-6.3079,-6.3079,0.0,0.0,0.0,0.0,0.0,0.0,0.0,-2.7311,-2.8247,-2.8643,-2.8091,-2.8043,-2.9091,-2.7721,-2.6973,-2.7544,0.0,0.0,0.0,0.0,0.0,0.0,0.0,0.0,0.0,0.0,-3.3052,-3.3979,-3.3052,-3.3052,-3.391,0.0,0.0,0.0,0.0,0.0,0.0,0.0,0.0,0.0,0.0,0.0,0.0,0.0,0.0,0.0,0.0,0.0,0.0,0.0,0.0,0.0,0.0,0.0,0.0,0.0,-5.6974,-6.3019,-6.6969,-7.0919,-7.3791,-7.3133,-6.8465,-6.2839,0.0,0.0,0.0,0.0,-4.0876,-4.0217,0.0,0.0,0.0,0.0,0.0,0.0,0.0,0.0,0.0,0.0,0.0,0.0,0.0,0.0,0.0,0.0,0.0,0.0,0.0,0.0,-7.6215,-7.6743,-7.5557,-7.4899,-7.4869,-7.424,-7.3911,-7.3881,-7.3223,-7.2565,-7.1876,-7.1218,-7.056,0.0,0.0,0.0,0.0,-6.6999,-6.6221,-6.4964,-6.4276,-6.4006,-6.3917,-6.3318,-6.3079,-6.3079,0.0,0.0,0.0,0.0,0.0,0.0,0.0,-2.6587,-2.7655,-2.7531,-2.7717,-2.813,-2.8783,-2.7243,-2.6436,-2.712,0.0,0.0,0.0,0.0,0.0,0.0,0.0,0.0,0.0,0.0,-3.2735,-3.3017,-3.2092,-3.1829,-3.2055,-3.0809,-3.0254,0.0,0.0,0.0,0.0,0.0,0.0,0.0,0.0,0.0,0.0,0.0,0.0,0.0,0.0,0.0,0.0,0.0,0.0,0.0,0.0,0.0,0.0,0.0,0.0,0.0,-5.8411,-6.2121,-6.4784,-6.3199,-6.0715,-5.7543,-5.3354,0.0,0.0,0.0,0.0,0.0,0.0,0.0,0.0,0.0,0.0,0.0,0.0,0.0,0.0,0.0,0.0,0.0,0.0,0.0,0.0,0.0,0.0,0.0,0.0,0.0,-7.5357,-7.4095,-7.4634,-7.405,-7.2169,-7.3328,-7.3432,-7.2535,-7.2325,-7.1637,-7.056,-6.9901,0.0,0.0,0.0,0.0,0.0,-6.6311,-6.5533,-6.4306,-6.4066,-6.3737,-6.3348,-6.3139,-6.3079,-6.3079,0.0,0.0,0.0,0.0,0.0,0.0,0.0,-2.5812,-2.6707,-2.649,-2.6582,-2.6971,-2.7658,-2.6341,-2.5817,-2.6941,0.0,0.0,0.0,0.0,0.0,0.0,0.0,0.0,-3.1221,-3.1706,-3.1865,-3.1792,-3.1393,-3.1299,-3.151,-3.1087,-3.0609,-3.0105,-3.0105,0.0,0.0,0.0,0.0,0.0,0.0,0.0,-3.2236,0.0,0.0,0.0,0.0,0.0,0.0,0.0,0.0,0.0,0.0,0.0,0.0,0.0,-4.1798,0.0,0.0,-5.5688,-5.8201,-5.6974,-5.5089,0.0,0.0,0.0,0.0,0.0,0.0,0.0,0.0,0.0,0.0,0.0,0.0,0.0,0.0,0.0,0.0,0.0,0.0,0.0,0.0,0.0,0.0,0.0,0.0,0.0,0.0,0.0,-7.4218,-7.2158,-7.3664,-7.3694,-7.2046,-7.2803,-7.2595,-7.1517,-7.1278,-7.047,-6.9213,-6.8525,0.0,0.0,0.0,0.0,0.0,-6.3874,-6.3469,-6.3531,-6.223,-6.2263,-6.2933,-6.1673,-6.1998,-6.3021,0.0,0.0,0.0,0.0,0.0,0.0,0.0,0.0,0.0,0.0,-2.4961,-2.4955,-2.611,-2.5188,-2.5214,0.0,0.0,0.0,0.0,0.0,0.0,0.0,0.0,0.0,-2.9919,-3.0427,-3.0616,-3.0411,-3.0919,-3.1423,-3.1964,-3.2581,-3.2068,-3.0683,-3.0708,-3.0382,0.0,0.0,0.0,0.0,0.0,-3.1452,0.0,0.0,0.0,0.0,0.0,0.0,0.0,0.0,0.0,0.0,0.0,0.0,0.0,0.0,0.0,0.0,0.0,0.0,0.0,0.0,0.0,0.0,0.0,0.0,0.0,0.0,0.0,0.0,0.0,0.0,0.0,0.0,0.0,0.0,0.0,0.0,0.0,0.0,0.0,0.0,0.0,0.0,0.0,0.0,0.0,0.0,0.0,0.0,-7.2975,-7.0918,-7.2552,-7.3499,-7.3529,-7.2179,-7.1129,-7.0409,-6.9754,-6.8772,-6.7525,-6.6929,0.0,0.0,0.0,0.0,0.0,-6.0285,-6.0532,-6.2555,-5.9256,-6.0083,-6.2701,-5.938,-6.0266,-6.2875,0.0,0.0,0.0,0.0,0.0,0.0,0.0,0.0,0.0,0.0,-2.4961,-2.5007,-2.6376,-2.5305,0.0,0.0,0.0,0.0,0.0,0.0,0.0,0.0,0.0,0.0,-3.088,-3.0193,-2.9989,-3.0411,-3.0611,-3.1015,-3.1574,-3.2996,-3.2752,-3.1235,-3.1637,-3.1085,0.0,0.0,0.0,0.0,-3.0771,-3.1267,0.0,0.0,0.0,0.0,-3.2664,-3.2272,0.0,0.0,0.0,0.0,0.0,0.0,0.0,0.0,-3.4442,-3.6281,-3.815,0.0,-4.3253,0.0,0.0,0.0,0.0,0.0,0.0,0.0,0.0,0.0,0.0,0.0,0.0,0.0,0.0,0.0,0.0,0.0,0.0,0.0,0.0,0.0,0.0,0.0,0.0,0.0,0.0,0.0,0.0,0.0,-7.2767,-7.0354,-6.9815,-6.9758,-7.0214,-6.8038,-6.6565,-6.5916,-6.5323,-6.4459,-6.3216,-6.3075,0.0,0.0,0.0,0.0,-6.0096,-5.9337,-5.9792,-6.087,-5.8821,-6.0083,-6.2817,-6.069,-6.1258,-6.3021,0.0,0.0,0.0,0.0,0.0,0.0,0.0,0.0,0.0,0.0,0.0,0.0,0.0,0.0,0.0,0.0,0.0,0.0,0.0,0.0,0.0,0.0,0.0,-3.042,-2.9632,-2.898,-2.9005,-2.9718,-3.0075,-3.1035,-3.2566,-3.3746,-3.352,-3.2139,-3.1411,-3.0608,-2.9818,-3.0343,-3.0533,-3.0457,-3.0533,0.0,0.0,0.0,0.0,0.0,-3.1609,-3.1267,0.0,-3.1007,-3.0802,-3.0557,0.0,0.0,0.0,0.0,-3.2306,-3.3381,-3.4116,-3.6777,-3.9392,-3.9639,-3.9929,-3.9967,0.0,0.0,0.0,0.0,0.0,0.0,0.0,0.0,0.0,0.0,0.0,0.0,0.0,0.0,0.0,0.0,0.0,0.0,0.0,0.0,0.0,0.0,0.0,0.0,0.0,0.0,-6.8834,-6.6251,-6.5235,-6.56,-6.7367,-6.5488,-6.411,-6.3197,-6.2892,-6.1951,-6.0484,-6.0484,-5.9986,0.0,0.0,0.0,-5.841,-5.6819,-5.7449,-5.9104,-5.6596,-5.7751,-6.0477,-5.7914,-5.9104,-6.1703,0.0,0.0,0.0,0.0,0.0,0.0,0.0,0.0,0.0,0.0,0.0,0.0,0.0,0.0,0.0,0.0,0.0,0.0,0.0,0.0,0.0,0.0,0.0,-2.9404,-2.7868,-2.7623,-2.7954,-2.8888,-2.9754,-3.1436,-3.3922,-3.4801,-3.45,-3.3119,-3.0984,-2.9955,-2.9804,-2.9934,-3.0381,-3.0932,-3.0292,0.0,0.0,0.0,0.0,0.0,0.0,0.0,0.0,-3.0581,-3.0482,-3.0482,-3.0482,0.0,0.0,0.0,0.0,0.0,-3.2475,-3.5593,-3.8432,-3.8302,-3.8302,-3.8255,0.0,0.0,0.0,0.0,0.0,0.0,0.0,0.0,0.0,0.0,0.0,0.0,0.0,0.0,0.0,0.0,0.0,0.0,0.0,0.0,0.0,0.0,0.0,0.0,0.0,0.0,0.0,-6.1192,-6.0611,-6.1488,-6.3843,-6.2941,-6.1903,-6.0783,-6.0769,-5.98,-5.8178,-5.8178,-5.7878,0.0,0.0,0.0,-5.6984,-5.4045,-5.469,-5.7277,-5.4045,-5.5062,-5.8005,-5.4835,-5.6542,-5.9883,0.0,0.0,0.0,0.0,0.0,0.0,0.0,0.0,0.0,0.0,0.0,0.0,0.0,0.0,0.0,0.0,0.0,0.0,0.0,0.0,0.0,-2.8413,-2.8882,-2.8935,-2.8388,-2.7259,-2.741,-2.8888,-3.0884,-3.2541,-3.3947,-3.6383,-3.6157,-3.3696,-3.1938,-3.0633,-2.9856,-3.0658,-3.062,-3.0062,-3.0733,0.0,0.0,0.0,0.0,0.0,0.0,0.0,0.0,-2.9918,-2.9905,-2.9905,-2.9905,0.0,0.0,0.0,0.0,0.0,-3.2019,-3.4565,-3.6668,-3.6097,-3.6214,-3.6397,0.0,0.0,0.0,0.0,0.0,0.0,0.0,0.0,0.0,0.0,0.0,0.0,0.0,0.0,0.0,0.0,0.0,0.0,0.0,0.0,0.0,0.0,0.0,0.0,0.0,0.0,0.0,-5.9537,-5.8884,-5.807,-5.698,-5.7189,-5.7035,-5.6372,-5.5912,-5.5274,-5.449,-5.449,-5.4184,0.0,0.0,-5.3427,-5.3581,-5.2606,-5.3618,-5.5564,-5.3164,-5.5454,-5.9872,-5.7914,-5.8299,-5.9465,0.0,0.0,0.0,0.0,0.0,0.0,0.0,0.0,0.0,0.0,0.0,0.0,0.0,0.0,0.0,0.0,0.0,0.0,0.0,0.0,0.0,-2.7506,-2.8384,-2.8568,-2.7884,-2.7506,-2.8448,-3.0668,-3.2039,-3.3847,-3.6132,-3.6207,-3.5403,-3.3796,-3.1537,-3.0256,-2.9818,-3.0254,-3.0177,-2.9818,0.0,0.0,0.0,0.0,0.0,0.0,0.0,0.0,0.0,0.0,-2.9804,-2.9804,-2.9804,0.0,0.0,0.0,0.0,0.0,-3.0758,-3.2275,-3.3788,-3.4088,-3.5683,-3.6945,-3.6141,0.0,0.0,0.0,0.0,0.0,0.0,0.0,0.0,0.0,0.0,0.0,0.0,0.0,0.0,0.0,0.0,0.0,0.0,0.0,0.0,0.0,0.0,0.0,0.0,0.0,0.0,0.0,-5.6405,-5.5657,-5.4486,-5.4737,-5.4737,-5.4486,-5.421,-5.3808,-5.3281,-5.298,-5.2703,-5.2477,0.0,-5.2051,-5.2026,-5.1774,-5.2244,-5.3064,-5.206,-5.3228,-5.5562,-5.569,-5.5464,-5.5231,0.0,0.0,0.0,0.0,0.0,0.0,0.0,0.0,0.0,0.0,0.0,0.0,0.0,0.0,0.0,0.0,0.0,0.0,0.0,0.0,-2.8061,-2.6872,-2.7965,-2.8311,-2.7681,-2.8222,-2.9729,-3.2215,-3.3169,-3.5027,-3.7588,-3.5629,-3.4223,-3.3219,-3.111,-3.003,-2.9804,-2.9804,-2.9804,-2.9804,0.0,0.0,0.0,0.0,0.0,0.0,0.0,0.0,0.0,0.0,0.0,0.0,0.0,0.0,0.0,-2.9804,-2.9804,-2.9854,-3.0105,-3.0859,-3.1788,-3.2667,0.0,-3.6757,-3.7011,0.0,0.0,0.0,0.0,0.0,0.0,0.0,0.0,0.0,0.0,0.0,0.0,0.0,0.0,0.0,0.0,0.0,0.0,0.0,0.0,0.0,0.0,0.0,0.0,0.0,0.0,0.0,-5.4185,-5.3959,-5.3532,-5.3381,-5.3381,-5.3507,-5.3507,-5.3306,-5.2904,-5.2352,-5.2101,-5.2076,-5.1523,-5.1272,-5.1272,-5.1147,-5.1147,-5.1272,-5.1122,-5.1412,-5.2057,-5.3188,-5.2776,-5.1932,0.0,0.0,0.0,0.0,0.0,0.0,0.0,0.0,0.0,0.0,0.0,0.0,0.0,0.0,0.0,0.0,0.0,0.0,0.0,0.0,-2.7913,-2.6322,-2.7421,-2.8278,-2.875,-2.9377,-3.0507,-3.2215,-3.4279,-3.5755,-3.6505,-3.5278,-3.3596,-3.1562,-3.1361,-3.0733,-2.9804,-2.9804,-2.9804,-2.9804,-2.9804,0.0,0.0,0.0,0.0,0.0,0.0,0.0,0.0,0.0,0.0,0.0,0.0,0.0,-2.9804,-2.9804,-2.9804,-3.0005,-3.1009,-3.1712,-3.2164,-3.2265,0.0,0.0,-3.7785,-3.7862,0.0,0.0,0.0,0.0,0.0,0.0,0.0,0.0,0.0,0.0,0.0,0.0,0.0,0.0,0.0,0.0,0.0,0.0,0.0,0.0,0.0,0.0,0.0,0.0,0.0,0.0,0.0,-5.303,-5.298,-5.2477,-5.2477,-5.298,-5.298,-5.2955,-5.2904,-5.2352,-5.2101,-5.2076,-5.1523,-5.1272,-5.1247,-5.0695,-5.0795,-5.1222,-5.0695,-5.1767,-5.3587,-5.3187,-5.3002,-5.2607,0.0,0.0,0.0,0.0,0.0,0.0,0.0,0.0,0.0,0.0,0.0,0.0,0.0,0.0,0.0,0.0,0.0,0.0,0.0,-2.7615,-2.7656,-2.6919,-2.7216,-2.7593,-2.8092,-2.8858,-3.0231,-3.2215,-3.4053,-3.5282,-3.5805,-3.3997,-3.2717,-3.1863,-3.0859,-3.0181,-2.9804,-2.9804,-2.9804,-2.9804,-2.9804,-2.9578,0.0,0.0,0.0,0.0,0.0,0.0,0.0,0.0,-2.9252,0.0,0.0,0.0,-2.9804,-2.9804,-2.9804,-2.988,-3.0281,-3.1286,-3.229,-3.2667,0.0,0.0,0.0,0.0,0.0,0.0,0.0,0.0,0.0,0.0,0.0,0.0,0.0,0.0,0.0,0.0,0.0,0.0,0.0,0.0,0.0,0.0,0.0,0.0,0.0,0.0,0.0,0.0,0.0,0.0,0.0,-5.19,-5.19,-5.1699,-5.1699,-5.19,-5.19,-5.19,-5.1875,-5.1322,-5.1046,-5.1021,-5.0469,-5.0243,-5.0218,-4.9992,-5.0042,-5.0218,-4.9992,-5.0445,-5.1152,-5.0947,-5.0896,-5.0691,0.0,0.0,0.0,0.0,0.0,0.0,0.0,0.0,0.0,0.0,0.0,0.0,0.0,0.0,0.0,0.0,0.0,0.0,-2.6626,-2.7225,-2.7432,-2.7074,-2.6832,-2.686,-2.7058,-2.7793,-2.9327,-3.1712,-3.3018,-3.3771,-3.3903,-3.224,-3.1436,-3.1411,-3.0281,-2.988,-3.003,-2.9679,-2.9628,-2.9779,-2.9603,-2.9402,0.0,0.0,0.0,0.0,0.0,0.0,0.0,0.0,0.0,0.0,0.0,0.0,0.0,0.0,-2.9654,-2.9528,-2.9528,-3.0331,-3.1361,0.0,0.0,0.0,0.0,0.0,0.0,0.0,0.0,0.0,0.0,0.0,0.0,0.0,0.0,0.0,0.0,0.0,0.0,0.0,0.0,0.0,0.0,0.0,0.0,0.0,0.0,0.0,0.0,0.0,0.0,0.0,0.0,-5.1272,-5.1272,-5.1096,-5.0921,-5.0745,-5.0745,-5.0946,-5.1272,-5.0695,-5.0318,-5.0117,-4.9565,-4.9238,-4.9063,-4.9063,-4.9163,-4.9339,-4.9339,-4.9339,-4.9314,-4.9138,-4.9063,-4.9012,0.0,0.0,0.0,0.0,0.0,0.0,0.0,0.0,0.0,0.0,0.0,0.0,0.0,0.0,0.0,0.0,0.0,0.0,-2.6542,-2.7225,-2.728,-2.6522,-2.633,-2.6104,-2.588,-2.6271,-2.7857,-3.0608,-3.111,-3.111,-3.0608,-3.0055,-2.9804,-2.9804,-2.9804,-3.0105,-3.0532,-2.9364,-2.9252,-2.9729,-2.9113,-2.9277,-2.9729,0.0,0.0,0.0,0.0,0.0,0.0,0.0,-2.8473,0.0,0.0,0.0,0.0,0.0,-2.9377,-2.8888,-2.8888,-2.8913,0.0,0.0,0.0,0.0,0.0,0.0,0.0,0.0,0.0,0.0,0.0,0.0,0.0,0.0,0.0,0.0,0.0,0.0,0.0,0.0,0.0,0.0,0.0,0.0,0.0,0.0,0.0,0.0,0.0,0.0,0.0,0.0,0.0,0.0,-5.1247,-5.067,-5.0117,-4.9565,-4.9565,-5.0167,-5.1222,-5.067,-5.0092,-4.954,-4.9012,-4.8435,-4.7908,-4.7908,-4.8234,-4.8761,-4.8761,-4.8761,-4.8686,-4.8109,-4.7908,-4.7908,0.0,0.0,0.0,0.0,0.0,0.0,0.0,0.0,0.0,0.0,0.0,0.0,0.0,0.0,0.0,0.0,0.0,0.0,-2.5914,-2.6986,-2.728,-2.6522,-2.633,-2.5914,-2.5357,-2.5684,-2.7017,-2.9389,-2.954,-2.9779,-3.003,-2.9854,-2.9804,-2.9804,-3.0206,-3.003,-2.9364,-2.9038,-2.8988,-2.9139,-2.8963,-2.8988,-2.9126,0.0,0.0,0.0,0.0,0.0,0.0,0.0,0.0,0.0,0.0,0.0,0.0,0.0,-2.9679,-2.9528,-2.9528,0.0,0.0,0.0,0.0,0.0,0.0,0.0,0.0,0.0,0.0,0.0,0.0,0.0,0.0,0.0,0.0,0.0,0.0,0.0,0.0,0.0,0.0,0.0,0.0,0.0,0.0,0.0,0.0,0.0,0.0,0.0,0.0,0.0,0.0,0.0,-4.8912,-4.8736,-4.856,-4.841,-4.841,-4.8586,-4.8912,-4.9163,-4.8962,-4.841,-4.8234,-4.8058,-4.7908,-4.7908,-4.8008,-4.8159,-4.8159,-4.8159,-4.8134,-4.7983,-4.7908,-4.7857,0.0,0.0,0.0,0.0,0.0,0.0,0.0,0.0,0.0,0.0,0.0,0.0,0.0,0.0,0.0,0.0,0.0,0.0,0.0,-2.6866,-2.728,-2.6522,-2.6106,-2.5581,-2.4999,-2.5818,-2.6716,-2.7595,-2.7595,-2.7896,-2.8473,-2.8699,-2.9151,-2.9804,-3.0131,-3.003,-2.954,-2.9088,-2.8888,-2.8913,-2.9176,-2.9277,-2.9202,0.0,0.0,0.0,0.0,0.0,0.0,0.0,0.0,0.0,0.0,0.0,0.0,-2.9026,-2.88,-2.8574,-2.9001,0.0,0.0,0.0,0.0,0.0,0.0,0.0,0.0,0.0,0.0,0.0,0.0,0.0,0.0,0.0,0.0,0.0,0.0,0.0,0.0,0.0,0.0,0.0,0.0,0.0,0.0,0.0,0.0,0.0,0.0,0.0,0.0,0.0,0.0,0.0,-4.7606,-4.738,-4.7154,-4.6954,-4.7179,-4.7029,-4.6652,-4.7857,-4.8134,-4.7581,-4.738,-4.728,-4.728,-4.7506,-4.7606,-4.7606,-4.7606,-4.7456,-4.7255,-4.7029,-4.6803,-4.6602,0.0,0.0,0.0,0.0,0.0,0.0,0.0,0.0,0.0,0.0,-2.2742,0.0,0.0,0.0,0.0,0.0,0.0,0.0,0.0,0.0,-2.7178,-2.6416,-2.5716,-2.5202,-2.4965,-2.6339,-2.659,-2.5586,-2.5661,-2.5912,-2.6424,-2.7077,-2.8172,-2.9654,-2.9754,-3.0005,-3.0306,-2.9189,-2.8762,-2.8863,-2.9428,-2.9654,-2.9654,-2.9038,0.0,0.0,0.0,0.0,0.0,0.0,0.0,0.0,0.0,0.0,0.0,-2.8097,-2.7344,-2.6826,0.0,0.0,0.0,0.0,0.0,0.0,0.0,0.0,0.0,0.0,0.0,0.0,0.0,0.0,0.0,0.0,0.0,0.0,0.0,0.0,0.0,0.0,0.0,0.0,0.0,0.0,0.0,0.0,0.0,0.0,0.0,0.0,0.0,0.0,0.0,-4.6842,-4.6842,-4.6401,-4.5899,0.0,-4.5924,-4.5623,-4.4694,-4.6753,-4.7431,-4.6892,-4.6401,-4.6225,-4.6351,-4.6803,-4.6918,-4.6918,-4.6918,-4.6652,-4.61,-4.5598,-4.507,-4.4719,0.0,0.0,0.0,0.0,0.0,0.0,0.0,0.0,0.0,0.0,0.0,0.0,0.0,0.0,0.0,0.0,0.0,0.0,0.0,0.0,-2.6416,-2.5687,-2.518,-2.5313,-2.6122,-2.5611,-2.5435,-2.5586,-2.6097,-2.6147,-2.5812,-2.7268,-2.8122,-2.8499,-2.9402,-2.9377,-2.8599,-2.7921,-2.7896,-2.8298,-2.8423,-2.8725,-2.9013,-2.8499,-2.7946,0.0,0.0,0.0,0.0,0.0,0.0,0.0,-2.7178,-2.7369,-2.7544,-2.7971,-2.762,0.0,0.0,0.0,0.0,0.0,0.0,0.0,0.0,0.0,0.0,0.0,0.0,0.0,0.0,0.0,0.0,0.0,0.0,0.0,0.0,0.0,0.0,0.0,0.0,0.0,0.0,0.0,0.0,0.0,0.0,0.0,0.0,0.0,0.0,0.0,-4.5171,-4.5171,-4.5171,-4.5045,-4.492,0.0,-4.492,-4.4869,-4.4644,-4.5573,-4.5949,-4.5799,-4.5246,-4.5497,-4.6276,-4.5974,-4.5849,-4.5849,-4.5849,-4.5497,-4.497,-4.4844,-4.4719,-4.4719,0.0,0.0,0.0,0.0,0.0,0.0,0.0,0.0,0.0,0.0,0.0,0.0,0.0,0.0,0.0,0.0,0.0,0.0,0.0,0.0,-2.6014,-2.4936,-2.4828,-2.4958,-2.5317,-2.5234,-2.5084,-2.4833,-2.5134,-2.5569,-2.6072,-2.7444,-2.8524,-2.9327,-2.9654,-2.9453,-2.885,-2.8021,-2.7695,-2.777,-2.8298,-2.8524,-2.8499,-2.8222,-2.777,-2.7253,-2.67,0.0,0.0,0.0,0.0,0.0,0.0,0.0,-2.6977,-2.7243,-2.6917,0.0,0.0,0.0,0.0,0.0,0.0,0.0,0.0,0.0,0.0,0.0,0.0,0.0,0.0,0.0,0.0,0.0,0.0,0.0,0.0,0.0,0.0,0.0,0.0,0.0,0.0,0.0,0.0,0.0,0.0,0.0,0.0,0.0,0.0,-4.3463,-4.3438,-4.3438,-4.3438,-4.3187,-4.3006,-4.3006,-4.3006,-4.3006,-4.3056,-4.4443,-4.507,-4.5045,-4.4744,-4.497,-4.5472,-4.5196,-4.507,-4.507,-4.507,-4.4719,-4.4242,-4.4242,-4.4066,-4.3915,0.0,0.0,0.0,0.0,0.0,0.0,0.0,0.0,0.0,0.0,0.0,0.0,0.0,0.0,0.0,0.0,0.0,0.0,0.0,0.0,0.0,-2.4291,-2.4498,-2.4456,-2.4004,-2.4858,-2.4833,-2.3853,-2.4054,0.0,0.0,0.0,-2.88,-3.0267,-2.9955,-2.9679,-2.9428,-2.8398,-2.7695,-2.7369,-2.8273,-2.8373,-2.7971,-2.7971,-2.762,-2.7102,-2.665,-2.6499,-2.6499,-2.6499,0.0,0.0,0.0,0.0,-2.6499,-2.6499,-2.6097,-2.5963,0.0,0.0,0.0,0.0,0.0,0.0,0.0,0.0,0.0,0.0,0.0,0.0,0.0,0.0,0.0,0.0,0.0,0.0,0.0,0.0,0.0,0.0,0.0,0.0,0.0,0.0,0.0,0.0,0.0,0.0,0.0,0.0,-4.2484,-4.2087,-4.2062,-4.2062,-4.2062,-4.1555,-4.1275,-4.1275,-4.1275,-4.1275,-4.1351,-4.3237,-4.4166,-4.4342,-4.4342,-4.4443,-4.4618,-4.4518,-4.4493,-4.4493,-4.4493,-4.4141,-4.3664,-4.3664,-4.3363,-4.3062,0.0,0.0,0.0,0.0,0.0,0.0,0.0,0.0,0.0,0.0,0.0,0.0,0.0,0.0,0.0,0.0,0.0,0.0,0.0,0.0,0.0,-2.407,-2.4092,-2.4079,-2.4004,-2.413,-2.3904,-2.3221,0.0,0.0,0.0,0.0,0.0,-2.9139,0.0,-2.9252,-2.8298,-2.767,-2.7379,-2.7293,-2.7444,-2.7444,-2.7394,-2.7394,-2.7077,-2.66,-2.6524,-2.6499,-2.6499,-2.6499,-2.6499,0.0,0.0,0.0,-2.6499,-2.6499,-2.6097,0.0,0.0,0.0,0.0,0.0,0.0,0.0,0.0,0.0,0.0,0.0,0.0,0.0,0.0,0.0,0.0,0.0,0.0,0.0,0.0,0.0,0.0,0.0,0.0,0.0,0.0,0.0,0.0,0.0,0.0,0.0,0.0,-4.1501,-4.1476,-4.1401,-4.1401,-4.1401,-4.1401,-4.1326,-4.1275,-4.1275,-4.1275,-4.1275,-4.13,-4.1601,-4.2308,-4.3187,-4.3187,-4.374,-4.4593,-4.4116,-4.3915,-4.3915,-4.3915,-4.3564,-4.3087,-4.3087,-4.3037,-4.3062,0.0,0.0,0.0,0.0,0.0,0.0,0.0,0.0,0.0,0.0,0.0,0.0,0.0,0.0,0.0,0.0,0.0,0.0,0.0,0.0,0.0,-2.3055,-2.305,-2.3201,-2.3471,-2.3496,-2.3371,-2.3095,0.0,0.0,0.0,-2.777,-2.9453,0.0,0.0,0.0,-2.9829,0.0,0.0,-2.6851,-2.6851,-2.6851,-2.6851,-2.6851,-2.67,-2.6499,-2.6499,-2.6499,-2.6499,-2.6499,-2.6499,-2.6499,-2.6499,0.0,0.0,0.0,0.0,0.0,0.0,0.0,0.0,0.0,0.0,0.0,0.0,0.0,0.0,0.0,0.0,0.0,0.0,0.0,0.0,0.0,0.0,0.0,0.0,0.0,0.0,0.0,0.0,0.0,0.0,0.0,0.0,0.0,0.0,0.0,-4.0902,-4.0576,-4.0425,-4.0425,-4.0425,-4.0425,-4.0425,-4.0425,-4.0425,-4.0425,-4.0425,-4.0425,-4.0425,-4.0727,-4.1304,-4.2082,-4.2384,-4.2841,-4.3237,-4.3313,-4.3338,-4.3338,-4.3338,-4.3187,-4.2986,-4.2986,-4.2986,-4.3011,0.0,0.0,0.0,0.0,0.0,0.0,0.0,0.0,0.0,0.0,0.0,0.0,0.0,0.0,0.0,0.0,0.0,0.0,0.0,0.0,0.0,-2.2326,-2.2447,-2.2619,-2.2895,-2.302,-2.3045,0.0,0.0,0.0,-2.6725,-2.8222,-3.0708,0.0,-3.2591,-3.1637,0.0,0.0,0.0,0.0,-2.6675,-2.6499,-2.6499,-2.665,-2.67,-2.67,-2.67,-2.67,-2.6675,-2.6549,-2.6499,-2.6499,-2.6499,-2.6499,0.0,0.0,0.0,0.0,0.0,0.0,0.0,0.0,0.0,0.0,0.0,0.0,0.0,0.0,0.0,0.0,0.0,0.0,0.0,0.0,0.0,0.0,0.0,0.0,0.0,0.0,0.0,0.0,0.0,0.0,0.0,0.0,0.0,0.0,-4.03,-3.9923,-3.9697,-3.9697,-3.9546,-3.9546,-3.9697,-3.9697,-3.9697,-3.9697,-3.9697,-3.9697,-3.9697,-4.0124,-4.0526,-4.0899,-4.1656,-4.1957,-4.1982,-4.2384,-4.2559,-4.2559,-4.2559,-4.2635,-4.2816,-4.2816,-4.2861,-4.2986,0.0,0.0,0.0,0.0,0.0,0.0,0.0,0.0,0.0,0.0,0.0,0.0,-2.2624,-2.2127,-2.1777,-2.1833,-2.1776,0.0,0.0,0.0,0.0,-2.2322,-2.2794,0.0,-2.2343,-2.2844,0.0,0.0,0.0,0.0,-2.7268,-2.8361,-3.0708,-3.3897,-3.3796,-3.2315,-2.9854,0.0,0.0,0.0,0.0,-2.6499,-2.6549,-2.7077,-2.7278,-2.7278,-2.7278,-2.7278,-2.7203,-2.6675,-2.6499,-2.6499,-2.6499,-2.6499,-2.6499,0.0,0.0,0.0,0.0,0.0,0.0,0.0,0.0,0.0,0.0,0.0,0.0,0.0,0.0,0.0,0.0,0.0,0.0,0.0,0.0,0.0,0.0,0.0,0.0,0.0,0.0,0.0,0.0,0.0,0.0,0.0,0.0,0.0,-3.9747,-3.9722,-3.9697,-3.9697,-3.9195,-3.917,-3.9697,-3.9697,-3.9697,-3.9697,-3.9697,-3.9697,-3.9697,-3.9722,-3.9747,-3.9848,-4.0902,-4.1326,-4.1326,-4.1351,-4.1376,-4.1376,-4.1376,-4.1731,-4.2263,-4.2263,-4.259,-4.2986,0.0,0.0,0.0,0.0,0.0,0.0,0.0,0.0,0.0,0.0,0.0,0.0,0.0,-2.274,-2.2493,-2.2843,-2.2065,0.0,0.0,0.0,0.0,-2.1295,-2.2121,-2.2493,-2.2293,-2.2819,0.0,0.0,0.0,-2.4199,-2.5737,-2.7193,-2.8323,-2.9265,-3.1336,-3.1938,-3.1235,-2.9453,0.0,0.0,0.0,0.0,-2.6474,-2.6264,0.0,0.0,0.0,0.0,0.0,-2.757,-2.7293,-2.7027,-2.7027,-2.6776,-2.6499,-2.6499,-2.6499,0.0,0.0,0.0,0.0,0.0,0.0,0.0,0.0,0.0,0.0,0.0,0.0,0.0,0.0,0.0,0.0,0.0,0.0,0.0,0.0,0.0,0.0,0.0,0.0,0.0,0.0,0.0,0.0,0.0,0.0,0.0,-3.8642,-3.8969,-3.8994,-3.8617,-3.8417,-3.8417,-3.8617,-3.8969,-3.917,-3.917,-3.9521,-3.9697,-3.9697,-3.9697,-3.9697,-3.9722,-4.0124,-4.0475,-4.0774,-4.115,-4.1275,-4.1275,-4.1275,-4.1401,-4.1681,-4.2087,-4.2338,-4.2564,0.0,0.0,0.0,0.0,0.0,0.0,0.0,0.0,0.0,-2.2853,0.0,0.0,0.0,0.0,-2.188,-2.2217,-2.1476,-2.0733,-2.0164,-2.0641,-2.1043,-2.1245,-2.2096,-2.2569,-2.2569,0.0,0.0,0.0,0.0,0.0,0.0,-2.5937,-2.6565,-2.6851,-2.8888,-3.0256,0.0,0.0,0.0,-2.7971,0.0,0.0,-2.7268,0.0,0.0,0.0,0.0,0.0,0.0,0.0,0.0,-2.7027,-2.7027,-2.6801,-2.6568,-2.6816,-2.6714,0.0,0.0,0.0,0.0,0.0,0.0,0.0,0.0,0.0,0.0,0.0,0.0,0.0,0.0,0.0,0.0,0.0,0.0,0.0,0.0,0.0,0.0,0.0,0.0,0.0,0.0,0.0,0.0,0.0,0.0,0.0,-3.8015,-3.8366,-3.8316,-3.7739,-3.7914,-3.7914,-3.7739,-3.8291,-3.8567,-3.8592,-3.9145,-3.9421,-3.9421,-3.9622,-3.9697,-3.9697,-3.9697,-3.9898,-4.0275,-4.0626,-4.0724,-4.0724,-4.0724,-4.0849,-4.1103,-4.148,-4.1886,-4.2238,0.0,0.0,0.0,0.0,0.0,0.0,0.0,0.0,-2.1691,-2.1715,0.0,0.0,0.0,0.0,0.0,-1.9861,-1.9861,-2.0087,-2.0666,-2.1219,-2.1719,-2.2246,0.0,0.0,0.0,0.0,0.0,0.0,0.0,0.0,0.0,0.0,-2.5661,-2.7168,-2.67,-2.7318,-2.8813,0.0,-2.9704,-2.9478,0.0,-2.6917,-2.8938,0.0,0.0,0.0,-3.1311,-3.1009,0.0,-2.8097,0.0,0.0,0.0,-2.6499,-2.6645,-2.7438,-2.7095,0.0,0.0,0.0,0.0,0.0,0.0,0.0,0.0,0.0,0.0,0.0,0.0,0.0,0.0,0.0,0.0,0.0,0.0,0.0,0.0,0.0,0.0,0.0,0.0,0.0,0.0,0.0,0.0,0.0,0.0,-3.7965,-3.7965,-3.7965,-3.7713,-3.7186,-3.7688,-3.7688,-3.7161,-3.7713,-3.799,-3.799,-3.8567,-3.8894,-3.8919,-3.9396,-3.9647,-3.9672,-3.9672,-3.9672,-3.9697,-3.9697,-3.9697,-3.9697,-3.9697,-4.0023,-4.0501,-4.0501,-4.1178,-4.2087,0.0,0.0,0.0,0.0,0.0,0.0,0.0,-2.1569,-2.1693,0.0,0.0,0.0,-2.1472,-2.1585,-2.1505,-2.1071,-2.1016,-2.0943,-2.0717,-2.1219,-2.1368,-2.1169,-2.2422,-2.292,0.0,0.0,0.0,0.0,0.0,0.0,0.0,0.0,0.0,0.0,-2.5561,-2.5887,-2.5954,-2.654,0.0,0.0,-2.5837,-2.6364,0.0,0.0,0.0,0.0,0.0,-2.9779,-2.993,0.0,-2.8725,-2.8097,0.0,0.0,-2.6533,-2.6782,-2.6679,-2.6602,-2.7061,0.0,0.0,0.0,0.0,0.0,0.0,0.0,0.0,0.0,0.0,0.0,0.0,0.0,0.0,0.0,0.0,0.0,0.0,0.0,0.0,0.0,0.0,0.0,0.0,0.0,0.0,0.0,-3.6609,-3.6835,-3.681,-3.6857,-3.6782,-3.6631,-3.6782,-3.6782,-3.6631,-3.7136,-3.7412,-3.7412,-3.799,-3.8241,-3.8241,-3.8391,-3.8693,-3.9094,-3.9094,-3.932,-3.9697,-3.9697,-3.9697,-3.9697,-3.9697,-3.9798,-3.9973,-4.0375,-4.0701,-4.1003,0.0,0.0,0.0,0.0,0.0,0.0,0.0,-2.1664,-2.156,0.0,0.0,0.0,-2.1312,-2.1929,-2.214,-2.1549,-2.1493,-2.137,-2.1043,-2.1546,-2.1694,-2.1395,-2.2468,-2.2945,0.0,0.0,0.0,0.0,0.0,0.0,0.0,0.0,0.0,0.0,0.0,0.0,0.0,0.0,0.0,0.0,-2.5636,0.0,0.0,-2.8348,-2.9076,0.0,0.0,0.0,-3.0984,-2.9829,-2.9051,0.0,0.0,0.0,0.0,0.0,0.0,-2.6776,-2.6549,-2.6499,0.0,0.0,0.0,0.0,0.0,0.0,0.0,0.0,0.0,0.0,0.0,0.0,0.0,0.0,0.0,0.0,0.0,0.0,0.0,0.0,0.0,0.0,0.0,0.0,0.0,0.0,-3.5504,-3.5705,-3.568,-3.568,-3.568,-3.568,-3.568,-3.568,-3.568,-3.6232,-3.6508,-3.6508,-3.7287,-3.7663,-3.7688,-3.814,-3.8417,-3.8542,-3.9019,-3.927,-3.9371,-3.9597,-3.9697,-3.9697,-3.9697,-3.9697,-3.9747,-4.0049,-4.0325,-4.0526,0.0,0.0,0.0,0.0,0.0,0.0,0.0,-2.1694,-2.1504,0.0,-2.0989,-2.1069,-2.1075,-2.1845,-2.2221,-2.1794,-2.1644,-2.1568,-2.1568,-2.2046,-2.2322,-2.2322,-2.2819,-2.3095,-2.3095,0.0,0.0,0.0,0.0,0.0,0.0,0.0,0.0,0.0,0.0,0.0,0.0,0.0,0.0,-2.6197,-2.5762,-2.7243,0.0,0.0,-3.106,0.0,-3.1938,-3.2265,-3.234,-2.9854,-2.8612,0.0,0.0,0.0,0.0,0.0,-2.6977,-2.7228,-2.6801,-2.6675,-2.6776,0.0,0.0,0.0,-2.5862,-2.6223,-2.6373,0.0,0.0,0.0,0.0,0.0,0.0,0.0,0.0,0.0,0.0,0.0,0.0,0.0,0.0,0.0,0.0,0.0,-3.4508,-3.4558,-3.4595,-3.4625,-3.4625,-3.47,-3.468,-3.468,-3.468,-3.468,-3.468,-3.5232,-3.5508,-3.5508,-3.6609,-3.7086,-3.7136,-3.819,-3.8341,-3.7965,-3.8969,-3.9195,-3.8969,-3.9396,-3.9647,-3.9697,-3.9697,-3.9697,-3.9697,-3.9697,-3.9998,-4.035,-2.0498,0.0,0.0,0.0,0.0,0.0,0.0,0.0,-2.2349,-2.2578,-2.2618,-2.2816,-2.3306,-2.3125,-2.3095,-2.3477,-2.2673,-2.2146,-2.2146,-2.2246,-2.2322,-2.2322,-2.2819,-2.3095,-2.3095,-2.3095,0.0,0.0,0.0,0.0,0.0,0.0,0.0,0.0,0.0,0.0,0.0,0.0,0.0,-2.4531,-2.5285,0.0,-2.9063,-2.9189,-2.9679,-3.0256,-3.0256,-3.0331,-3.0357,0.0,-2.9252,-2.8687,0.0,0.0,0.0,-2.772,0.0,0.0,0.0,0.0,0.0,0.0,0.0,0.0,-2.665,-2.7067,-2.7595,0.0,0.0,0.0,0.0,0.0,0.0,0.0,0.0,0.0,0.0,0.0,0.0,0.0,0.0,0.0,0.0,0.0,-3.3361,-3.3856,-3.3997,-3.4073,-3.4073,-3.4474,-3.468,-3.468,-3.468,-3.468,-3.468,-3.5232,-3.5508,-3.5508,-3.6207,-3.6581,-3.6581,-3.6807,-3.7084,-3.7362,-3.7588,-3.8115,-3.8919,-3.8994,-3.9295,-3.9697,-3.9697,-3.9697,-3.9697,-3.9697,-3.9772,-3.9848,-2.1216,0.0,0.0,0.0,0.0,0.0,0.0,0.0,-2.2821,-2.305,-2.3597,-2.3948,-2.4004,-2.3948,-2.3948,-2.4004,-2.3195,-2.2569,-2.2322,-2.2543,-2.2569,-2.2322,-2.2819,-2.3095,-2.3095,-2.3095,0.0,0.0,0.0,0.0,0.0,0.0,0.0,0.0,0.0,0.0,0.0,0.0,-2.3904,-2.4481,-2.5285,0.0,-2.8172,-2.8687,-2.9277,-2.9804,-2.9804,-2.9804,-2.9804,-2.9804,-2.9603,0.0,0.0,-2.8298,-2.8473,0.0,-2.8097,-2.8097,0.0,0.0,0.0,-2.777,0.0,0.0,0.0,-2.67,0.0,0.0,0.0,0.0,0.0,0.0,0.0,0.0,0.0,0.0,0.0,0.0,0.0,0.0,0.0,0.0,0.0,0.0,-3.2398,-3.2555,-3.2608,-3.2641,-3.2641,-3.2918,-3.3068,-3.3068,-3.3319,-3.347,-3.347,-3.4254,-3.468,-3.4726,-3.5554,-3.5956,-3.5981,-3.6533,-3.6832,-3.6857,-3.7362,-3.7914,-3.8467,-3.8793,-3.9195,-3.9697,-3.9697,-3.9697,-3.9697,-3.9697,-3.9697,-3.9697,-2.1924,0.0,0.0,0.0,0.0,0.0,0.0,0.0,-2.3195,-2.3396,-2.4299,-2.4833,-2.4506,-2.4682,-2.4782,-2.4657,-2.3597,-2.2945,-2.2949,-2.2945,-2.2744,-2.2322,-2.2819,-2.3045,-2.2945,-2.3045,-2.3095,0.0,0.0,0.0,0.0,0.0,0.0,0.0,0.0,0.0,0.0,0.0,0.0,-2.4675,0.0,-2.6264,-2.7394,-2.8499,-2.9189,-2.9628,-2.9754,-2.9804,-2.9804,-2.9804,0.0,-2.9553,-2.8197,-2.8624,0.0,0.0,0.0,0.0,0.0,0.0,0.0,0.0,0.0,-2.767,0.0,0.0,0.0,0.0,0.0,0.0,0.0,0.0,0.0,0.0,0.0,0.0,0.0,0.0,0.0,0.0,0.0,0.0,0.0,0.0,-3.1241,-3.0813,-3.0959,-3.1085,-3.1085,-3.1286,-3.1386,-3.1386,-3.1913,-3.2215,-3.2215,-3.3345,-3.3897,-3.3897,-3.4856,-3.5408,-3.5533,-3.6458,-3.6684,-3.6455,-3.7312,-3.7814,-3.804,-3.8517,-3.9094,-3.9697,-3.9697,-3.9697,-3.9697,-3.9697,-3.9697,-3.9697,-2.2703,-2.2583,0.0,0.0,0.0,0.0,0.0,0.0,-2.3606,-2.4494,-2.5134,-2.5686,-2.6172,-2.536,-2.5385,-2.6791,-2.4155,0.0,-2.5109,0.0,-2.2343,-2.2322,-2.2819,-2.2869,-2.2393,-2.2869,-2.3095,0.0,0.0,0.0,0.0,0.0,0.0,0.0,-2.2543,0.0,0.0,0.0,-2.3547,0.0,-2.5184,-2.6264,0.0,-2.8499,-2.8938,-2.9063,-2.9603,-2.9804,-2.9804,0.0,-2.9804,-2.9754,0.0,-2.9277,-2.9063,0.0,0.0,0.0,0.0,0.0,0.0,0.0,-2.9176,0.0,0.0,0.0,0.0,0.0,0.0,0.0,0.0,0.0,0.0,0.0,0.0,0.0,0.0,0.0,0.0,0.0,0.0,0.0,0.0,0.0,0.0,-2.8547,-2.9402,-2.998,-2.998,-3.0884,-3.1386,-3.1386,-3.1913,-3.2215,-3.2215,-3.3345,-3.3897,-3.3897,-3.4525,-3.5031,-3.5508,-3.5633,-3.5956,-3.6405,-3.6531,-3.7111,-3.8015,-3.8065,-3.8743,-3.9697,-3.9697,-3.9697,-3.9697,-3.9697,-3.9697,-3.9697,-2.3251,-2.3242,0.0,0.0,0.0,0.0,0.0,0.0,-2.4416,-2.5167,-2.6314,-2.7268,0.0,0.0,0.0,0.0,0.0,-2.546,0.0,0.0,-2.4054,-2.4714,0.0,0.0,0.0,-2.3321,-2.3095,-2.3095,-2.3095,0.0,0.0,0.0,0.0,0.0,-2.2272,0.0,-2.2598,0.0,0.0,0.0,0.0,0.0,0.0,-2.767,-2.8373,-2.8913,-2.9202,-2.9503,-2.9704,0.0,-2.9252,0.0,0.0,0.0,0.0,0.0,0.0,0.0,0.0,0.0,0.0,0.0,0.0,0.0,-2.7304,0.0,-2.7153,0.0,0.0,0.0,0.0,0.0,0.0,0.0,0.0,0.0,0.0,0.0,0.0,0.0,0.0,0.0,0.0,0.0,0.0,0.0,0.0,-2.895,-2.9277,-2.9729,-3.0105,-3.0457,-3.1009,-3.1436,-3.1738,-3.2516,-3.3093,-3.342,-3.3972,-3.4374,-3.458,-3.5207,-3.5633,-3.5906,-3.6279,-3.6857,-3.7538,-3.7538,-3.799,-3.8743,-3.9094,-3.9421,-3.9697,-3.9697,-3.9697,-3.9697,-2.361,0.0,0.0,0.0,0.0,0.0,0.0,0.0,0.0,0.0,0.0,0.0,-2.8787,-2.8762,0.0,0.0,-2.8273,-2.7278,0.0,0.0,-2.5034,0.0,0.0,0.0,0.0,0.0,-2.3271,0.0,0.0,0.0,0.0,0.0,0.0,0.0,0.0,-2.2272,-2.2246,0.0,0.0,-2.4876,-2.5837,-2.6348,-2.6549,-2.7102,-2.7871,-2.8662,-2.8662,-2.8976,-2.9227,-2.8549,-2.8875,0.0,-2.9252,0.0,0.0,0.0,0.0,0.0,-2.9603,0.0,0.0,0.0,0.0,0.0,0.0,0.0,0.0,0.0,0.0,0.0,0.0,0.0,0.0,0.0,0.0,0.0,0.0,0.0,0.0,0.0,0.0,0.0,0.0,0.0,0.0,0.0,-2.8028,-2.8308,-2.8551,-2.8786,-2.9088,-2.9553,-3.0231,-3.0859,-3.1386,-3.1938,-3.2516,-3.3093,-3.347,-3.3746,-3.3922,-3.4726,-3.5207,-3.5508,-3.5956,-3.6533,-3.7186,-3.7186,-3.7513,-3.8065,-3.8642,-3.912,-3.9496,-3.9647,-3.9697,-3.9697,-2.361,-2.361,0.0,0.0,0.0,0.0,0.0,0.0,0.0,0.0,0.0,0.0,0.0,0.0,0.0,0.0,0.0,-2.772,-2.8737,0.0,-2.4324,0.0,0.0,-2.3998,0.0,0.0,0.0,0.0,0.0,0.0,0.0,0.0,0.0,0.0,0.0,-2.2899,-2.3879,-2.3346,-2.3772,-2.4825,-2.541,-2.5996,-2.6549,0.0,-2.7645,-2.8122,-2.8122,0.0,0.0,-2.8687,-2.8888,0.0,0.0,0.0,0.0,0.0,0.0,0.0,0.0,0.0,0.0,-2.8549,0.0,0.0,0.0,0.0,-2.7921,0.0,0.0,0.0,0.0,0.0,-2.7102,-2.6524,-2.5971,0.0,0.0,0.0,0.0,0.0,0.0,0.0,0.0,0.0,0.0,-2.681,-2.7814,-2.8234,-2.7676,-2.842,-2.8888,-2.8913,-3.003,-3.0859,-3.1386,-3.1938,-3.2516,-3.3111,-3.3136,-3.3395,-3.3897,-3.3947,-3.4525,-3.5508,-3.5508,-3.6182,-3.7186,-3.7186,-3.7513,-3.8065,-3.8642,-3.8919,-3.902,-3.9496,-3.9697,-3.9697,0.0,0.0,0.0,0.0,0.0,0.0,0.0,-2.4,0.0,0.0,0.0,0.0,0.0,0.0,-3.2867,0.0,0.0,-3.111,-3.111,-2.8838,0.0,0.0,0.0,-2.6189,0.0,0.0,0.0,0.0,0.0,0.0,0.0,0.0,0.0,0.0,0.0,-2.2694,0.0,0.0,0.0,0.0,0.0,-2.6163,-2.7052,0.0,0.0,-2.757,-2.757,-2.7795,0.0,-2.7896,-2.8323,-2.8938,-2.9113,-2.9478,-2.9754,-2.9553,-2.9628,0.0,0.0,0.0,-2.9854,-2.8875,0.0,0.0,0.0,0.0,0.0,0.0,0.0,0.0,0.0,-2.772,-2.7394,-2.6088,-2.5711,-2.5159,0.0,0.0,0.0,0.0,0.0,0.0,0.0,0.0,0.0,-2.6904,-2.7163,-2.74,0.0,-2.7742,-2.8172,-2.8863,-2.9264,-2.9891,-3.0859,-3.106,-3.1612,-3.2516,-3.2516,-3.2792,-3.337,-3.3746,-3.4299,-3.4981,-3.5332,-3.5956,-3.6681,-3.6681,-3.6807,-3.7033,-3.7586,-3.7764,-3.7914,-3.922,-3.9697,-3.9697,-2.4993,0.0,0.0,0.0,0.0,0.0,0.0,0.0,0.0,0.0,-2.9854,0.0,-3.3671,0.0,-3.46,0.0,-3.3997,-3.2968,-3.1989,-3.0392,0.0,-2.9428,-2.8423,0.0,0.0,0.0,0.0,0.0,0.0,-2.3597,0.0,0.0,0.0,0.0,0.0,0.0,0.0,0.0,-2.3446,0.0,0.0,-2.6163,0.0,0.0,-2.7153,-2.7304,0.0,-2.7253,-2.7494,-2.7344,-2.7745,-2.8423,-2.8762,-2.9176,-2.9478,-2.9478,-2.9628,-2.9754,-2.9553,-2.9628,0.0,-2.9038,-2.8637,0.0,-2.7444,0.0,0.0,0.0,0.0,0.0,0.0,0.0,-2.7394,-2.6113,-2.5586,-2.4883,0.0,-2.4336,0.0,0.0,0.0,0.0,0.0,0.0,-2.6843,-2.6726,-2.6823,-2.7055,0.0,0.0,-2.7494,-2.8562,-2.8787,-2.9439,-3.0608,-3.0608,-3.106,-3.1913,-3.2114,-3.2416,-3.2792,-3.3345,-3.3897,-3.4449,-3.4756,-3.5378,-3.6081,-3.6081,-3.6182,-3.6455,-3.696,-3.7312,-3.7638,-3.8919,-3.9521,-3.9697,0.0,0.0,0.0,0.0,-2.4365,0.0,0.0,0.0,-2.8323,0.0,-3.0507,-3.2139,-3.3847,-3.4022,-3.4424,-3.5408,-3.455,0.0,-3.1612,-3.1009,0.0,0.0,-2.8473,-2.7734,-2.5051,0.0,0.0,0.0,0.0,0.0,0.0,0.0,0.0,0.0,-2.3346,0.0,-2.3095,-2.3095,-2.3446,-2.413,-2.5159,-2.5971,-2.6524,-2.6499,-2.6826,-2.7253,-2.67,-2.6499,-2.6575,-2.7102,-2.7304,-2.7469,-2.8524,-2.8838,-2.8838,-2.8838,-2.9277,-2.9578,-2.9026,-2.9302,-2.9578,-2.9013,0.0,0.0,0.0,0.0,-2.8762,0.0,0.0,0.0,0.0,0.0,0.0,-2.6575,-2.5536,-2.46,-2.4104,0.0,0.0,0.0,0.0,0.0,0.0,-2.6245,-2.6903,-2.6324,-2.682,0.0,0.0,0.0,-2.6977,-2.8072,-2.8587,-2.9389,-3.0557,-3.0583,-3.0834,-3.1361,-3.1913,-3.219,-3.224,-3.2817,-3.337,-3.3897,-3.3922,-3.455,-3.5508,-3.5533,-3.5881,-3.6455,-3.6935,-3.7487,-3.809,-3.8693,-3.9245,-3.9697,-2.5884,-2.6662,-2.7148,0.0,-2.4504,-2.4168,0.0,0.0,0.0,0.0,-3.2466,-3.3897,-3.56,-3.5776,-3.568,-3.5508,-3.4856,0.0,0.0,0.0,0.0,-3.0382,-3.0231,-2.9414,-2.786,-2.7494,0.0,-2.5644,0.0,0.0,-2.3979,0.0,0.0,0.0,0.0,0.0,-2.3095,-2.3095,-2.3672,-2.4632,-2.4876,-2.5837,0.0,0.0,-2.6826,-2.7253,-2.67,-2.6499,-2.6524,-2.665,-2.6977,-2.7344,-2.762,-2.7996,-2.8323,-2.8323,-2.8423,-2.8499,-2.8348,-2.8423,-2.8599,-2.8838,-2.8587,-2.8348,0.0,0.0,0.0,0.0,0.0,0.0,0.0,0.0,0.0,-2.665,-2.5536,-2.475,0.0,0.0,0.0,-2.5586,0.0,0.0,-2.6398,-2.6469,-2.6666,-2.7208,-2.675,0.0,0.0,0.0,0.0,-2.8047,-2.8247,-2.885,-2.998,-3.0005,-3.0281,-3.0809,-3.1361,-3.1813,-3.224,-3.2817,-3.337,-3.3922,-3.4324,-3.4856,-3.5533,-3.5981,-3.6279,-3.643,-3.6556,-3.7161,-3.8115,-3.912,-3.9572,-3.9697,-2.738,0.0,0.0,-2.8201,0.0,0.0,-2.7835,0.0,0.0,-3.224,-3.4023,0.0,-3.5621,-3.6544,-3.6815,-3.5977,-3.5177,0.0,0.0,0.0,0.0,-3.0733,-3.0633,-2.9854,-2.8247,-2.7846,0.0,-2.5737,0.0,0.0,-2.4682,0.0,0.0,0.0,0.0,-2.3246,0.0,-2.3471,-2.4123,-2.5134,-2.4876,0.0,0.0,-2.66,-2.6675,-2.6927,-2.66,-2.6499,-2.6499,-2.6499,-2.67,-2.7002,-2.7253,-2.7494,-2.7795,-2.8021,-2.8097,-2.8097,-2.8097,-2.8097,-2.8172,-2.8461,-2.8524,-2.8473,-2.8512,-2.9001,-2.9176,0.0,0.0,0.0,0.0,0.0,0.0,-2.6248,-2.5385,0.0,0.0,0.0,0.0,0.0,0.0,0.0,-2.7324,-2.6774,-2.6687,-2.7486,0.0,0.0,0.0,0.0,0.0,-2.7695,-2.8222,-2.89,-2.9779,-3.003,-3.0181,-3.0256,-3.1035,-3.1562,-3.1888,-3.2692,-3.3244,-3.3571,-3.4123,-3.4675,-3.5182,-3.578,-3.6132,-3.643,-3.6681,-3.7236,-3.8115,-3.9019,-3.9496,-3.9697,0.0,0.0,0.0,0.0,0.0,0.0,0.0,-3.0925,0.0,-3.3326,0.0,-3.6043,-3.5117,-3.6606,-3.726,-3.6172,0.0,-3.4148,-3.3043,-3.2617,-3.1716,-3.0149,-3.0646,-2.9999,-2.786,-2.8062,0.0,0.0,0.0,0.0,0.0,0.0,0.0,0.0,0.0,0.0,0.0,-2.4054,-2.4632,0.0,-2.5051,-2.5536,-2.6499,-2.6499,-2.6499,-2.6499,-2.6499,-2.6499,-2.6499,-2.6499,-2.6499,-2.6575,-2.7052,-2.7203,-2.7304,-2.7745,-2.7896,-2.7896,-2.7896,-2.7896,-2.7921,-2.7971,-2.8373,-2.8562,-2.8197,-2.8473,-2.8637,-2.8197,-2.767,-2.7419,0.0,0.0,0.0,0.0,0.0,0.0,0.0,0.0,0.0,0.0,0.0,0.0,0.0,-2.7116,0.0,0.0,0.0,0.0,0.0,0.0,0.0,-2.7153,-2.8247,0.0,-2.9779,0.0,-3.0331,-3.0005,-3.0934,-3.1436,-3.1537,-3.2591,-3.3162,-3.3219,-3.3771,-3.4324,-3.4831,-3.5382,-3.5931,-3.6455,-3.696,-3.7487,-3.799,-3.8617,-3.917,-3.9597,0.0,0.0,0.0,0.0,0.0,-3.5228,-3.51,-3.4486,-3.4511,-3.5746,-3.5763,-3.5947,-3.675,-3.5942,-3.5027,-3.4374,-3.4148,0.0,0.0,0.0,0.0,-3.1653,-3.2439,-3.2176,-3.0561,-2.9249,-2.8265,0.0,0.0,0.0,0.0,0.0,0.0,0.0,0.0,0.0,-2.3321,-2.4249,0.0,-2.4983,-2.5335,-2.5862,-2.6499,-2.6499,-2.6499,-2.6499,-2.6499,-2.6499,-2.6499,-2.6499,-2.6499,-2.6524,-2.66,-2.665,-2.665,-2.6751,-2.6776,-2.6776,-2.6776,-2.6776,-2.6901,-2.7318,-2.7494,-2.767,-2.8021,-2.8172,-2.8222,-2.8122,-2.767,-2.7318,-2.7394,0.0,0.0,0.0,0.0,0.0,0.0,0.0,0.0,0.0,0.0,0.0,0.0,0.0,0.0,0.0,0.0,0.0,0.0,0.0,0.0,0.0,-2.767,0.0,0.0,0.0,-3.0331,-3.111,-3.1311,-3.1637,-3.2089,-3.2767,-3.3319,-3.3796,-3.4349,-3.4856,-3.5408,-3.5981,-3.6329,-3.6455,-3.696,-3.7236,-3.7462,-3.8492,-3.8969,-3.9069,0.0,0.0,0.0,0.0,0.0,0.0,0.0,-3.7085,0.0,-3.6114,-3.5774,-3.5652,-3.5901,-3.625,-3.6096,-3.5226,-3.4873,-3.4016,-3.2332,-3.2832,-3.2725,-3.1642,-3.2038,0.0,-3.0808,-2.8673,-2.7582,-2.767,0.0,0.0,0.0,0.0,0.0,0.0,0.0,-2.4498,0.0,0.0,0.0,-2.5661,-2.5611,-2.5971,-2.6499,-2.6499,-2.6499,-2.6499,-2.6499,-2.6499,-2.6499,-2.6499,-2.6499,-2.6499,-2.6499,-2.6499,-2.6499,-2.6499,-2.6499,-2.6499,-2.6499,-2.6499,-2.6549,-2.6826,-2.7102,-2.7379,-2.762,-2.7896,-2.8021,-2.7745,-2.7469,-2.7293,-2.7293,-2.6876,0.0,0.0,0.0,0.0,0.0,0.0,0.0,0.0,0.0,0.0,0.0,0.0,0.0,0.0,0.0,0.0,0.0,0.0,0.0,0.0,0.0,0.0,0.0,0.0,0.0,-3.0557,-3.111,-3.1537,-3.1813,-3.2692,-3.337,-3.3922,-3.4474,-3.4981,-3.5533,-3.6132,-3.6405,-3.643,-3.6707,-3.6983,-3.7262,-3.7838,-3.8416,-3.8994,0.0,-3.6398,0.0,0.0,-3.8539,0.0,-3.8596,-3.888,-3.8498,-3.655,-3.568,-3.5236,-3.5219,-3.651,-3.6997,-3.6023,-3.5558,-3.4402,-3.2198,-3.2495,-3.2419,-3.1553,-3.1499,-3.1286,-3.0895,-2.8326,-2.7129,0.0,0.0,0.0,0.0,0.0,0.0,0.0,0.0,0.0,0.0,0.0,-2.5611,-2.6273,-2.5912,-2.6097,-2.6499,-2.6499,-2.6499,-2.6499,-2.6499,-2.6499,-2.6499,-2.6499,-2.6499,-2.6499,-2.6499,-2.6499,-2.6499,-2.6499,-2.6499,-2.6499,-2.6499,-2.6499,-2.6499,-2.6499,-2.6826,-2.7153,-2.7153,-2.7444,-2.7645,-2.7228,-2.7153,-2.7178,-2.7304,-2.6952,0.0,0.0,0.0,0.0,0.0,0.0,0.0,0.0,0.0,0.0,0.0,0.0,0.0,0.0,0.0,0.0,0.0,0.0,0.0,0.0,0.0,-2.8762,-2.8888,0.0,-3.0407,0.0,-3.1035,-3.1512,-3.1788,-3.2667,-3.3445,-3.4098,-3.4525,-3.5102,-3.5708,-3.6182,-3.6405,-3.6405,-3.6405,-3.6681,-3.701,-3.7136,-3.7739,-3.8617,0.0,0.0,0.0,0.0,0.0,0.0,0.0,-3.9648,-3.9554,-3.8778,-3.5965,-3.4822,-3.6743,-3.579,-3.5001,-3.4876,-3.4824,-3.3845,-3.1619,-3.2289,-3.2726,-3.247,-3.2451,-3.2423,-3.2396,-2.9851,-2.8452,0.0,0.0,0.0,0.0,0.0,0.0,0.0,0.0,0.0,0.0,-2.572,-2.6097,-2.5711,-2.6223,-2.6449,-2.6499,-2.6499,-2.6499,-2.6499,-2.6499,-2.6499,-2.6499,-2.6499,-2.6499,-2.6499,-2.6499,-2.6499,-2.6499,-2.6499,-2.6499,-2.6499,-2.6499,-2.6499,-2.6499,-2.6499,-2.6524,-2.6575,-2.6575,-2.66,-2.6625,-2.6575,-2.6575,-2.6725,-2.7228,-2.7278,-2.7218,0.0,0.0,0.0,0.0,0.0,0.0,0.0,0.0,0.0,0.0,0.0,0.0,0.0,0.0,0.0,0.0,0.0,0.0,-2.4876,0.0,-2.8423,-2.8888,-2.9553,-3.0583,-3.1989,-3.1587,-3.1938,-3.2918,-3.3061,-3.3646,-3.465,-3.47,-3.5303,-3.6329,-3.638,-3.6405,-3.6405,-3.6405,-3.643,-3.6556,-3.701,-3.7262,-3.7487,0.0,0.0,0.0,0.0,0.0,0.0,0.0,-4.0677,-3.9738,-3.9524,-3.7084,-3.5913,-3.7422,-3.6957,-3.618,-3.5192,-3.5125,-3.3927,-3.1105,-3.1811,-3.2163,-3.1783,-3.1756,-3.2019,-3.2593,-2.9973,-2.8852,0.0,0.0,0.0,0.0,0.0,0.0,0.0,0.0,-2.5795,-2.5544,-2.5845,-2.6047,-2.6172,-2.6399,-2.6499,-2.6499,-2.6499,-2.6499,-2.6499,-2.6499,-2.6499,-2.6499,-2.6499,-2.6499,-2.6499,-2.6499,-2.6499,-2.6499,-2.6499,-2.6499,-2.6499,-2.6499,-2.6499,-2.6499,-2.6499,-2.6499,-2.6499,-2.6499,-2.6499,-2.6499,-2.6499,-2.6499,-2.665,-2.7193,-2.7052,-2.6927,0.0,0.0,0.0,0.0,0.0,0.0,0.0,0.0,0.0,0.0,0.0,0.0,0.0,0.0,0.0,0.0,0.0,0.0,-2.531,0.0,-2.8222,-2.8423,-2.9327,-3.0281,-3.126,-3.1361,-3.1788,-3.2566,-3.2918,-3.3671,-3.4751,-3.5429,-3.6003,-3.6405,-3.6405,-3.6405,-3.6405,-3.6405,-3.6405,-3.643,-3.6656,-3.6933,-3.7262,-4.1662,0.0,-4.1324,0.0,-4.2252,-4.2076,-4.2446,-4.1102,-3.9899,-3.9524,-3.8032,-3.7195,-3.7739,-3.7805,-3.7225,-3.5748,-3.5477,-3.4104,-3.1044,-3.1304,-3.1458,-3.1193,-3.1204,0.0,-3.2558,-3.0601,-2.9855,-3.049,-2.8433,0.0,0.0,0.0,0.0,0.0,-2.5996,-2.6021,-2.6223,-2.5996,-2.6122,-2.6499,-2.6499,-2.6499,-2.6499,-2.6499,-2.6499,-2.6499,-2.6499,-2.6499,-2.6499,-2.6499,-2.6499,-2.6499,-2.6499,-2.6499,-2.6499,-2.6499,-2.6499,-2.6499,-2.6499,-2.6499,-2.6499,-2.6499,-2.6499,-2.6499,-2.6499,-2.6499,-2.6499,-2.6499,-2.6499,-2.665,-2.7193,-2.7002,-2.6876,-2.7253,0.0,0.0,0.0,0.0,0.0,0.0,-2.6005,-2.5852,-2.4664,0.0,0.0,0.0,0.0,0.0,0.0,0.0,0.0,0.0,0.0,0.0,0.0,-2.9302,-3.0156,-3.0859,-3.121,-3.1763,-3.2491,-3.3219,-3.4073,-3.4981,-3.5956,-3.6405,-3.6405,-3.6405,-3.6405,-3.6405,-3.6405,-3.6405,-3.6405,-3.6405,-3.6656,-3.7008,-4.2261,-4.2381,-4.259,-4.317,-4.326,-4.2663,-4.0874,-4.0596,-4.0136,-3.8859,-3.8687,-3.8457,-3.7863,-3.7805,-3.7367,-3.6263,-3.5726,-3.4266,-3.1574,-3.0909,-3.0802,0.0,0.0,-3.1646,-3.2558,-3.2055,-3.1853,-3.2076,0.0,0.0,-2.8121,0.0,-2.5611,-2.5636,-2.6223,-2.6172,-2.5636,-2.6248,-2.6474,-2.6499,-2.6499,-2.6499,-2.6499,-2.6499,-2.6499,-2.6499,-2.6499,-2.6499,-2.6499,-2.6499,-2.6499,-2.6499,-2.6499,-2.6499,-2.6499,-2.6499,-2.6499,-2.6499,-2.6499,-2.6499,-2.6499,-2.6499,-2.6499,-2.6499,-2.6499,-2.6499,-2.6499,-2.6499,-2.6499,-2.665,-2.7193,-2.7268,-2.7268,-2.7293,0.0,0.0,0.0,0.0,0.0,0.0,-2.66,-2.6424,-2.423,0.0,0.0,0.0,0.0,0.0,0.0,0.0,0.0,-2.6474,-2.7519,0.0,-2.8888,-2.9503,-3.0331,-3.1386,-3.1386,-3.1989,-3.3136,-3.4198,-3.4956,-3.5508,-3.6132,-3.6405,-3.6405,-3.6405,-3.6405,-3.6405,-3.6405,-3.6405,-3.6405,-3.6405,-3.6405,-3.6505,-4.288,-4.303,-4.309,-4.326,-4.329,-4.3001,-4.2001,-4.1844,-4.1331,-4.003,-3.9882,-3.9616,-3.8966,-3.8907,-3.787,0.0,-3.4944,-3.3549,0.0,-3.0156,-3.0394,-3.1193,-3.1204,-3.1911,-3.3533,-3.297,-3.2803,-3.3053,0.0,0.0,0.0,-2.6468,-2.6223,-2.6223,-2.6399,-2.6399,-2.6223,-2.6424,-2.6499,-2.6499,-2.6499,-2.6499,-2.6499,-2.6499,-2.6499,-2.6499,-2.6499,-2.6499,-2.6499,-2.6499,-2.6499,-2.6499,-2.6499,-2.6499,-2.6499,-2.6499,-2.6499,-2.6499,-2.6499,-2.6499,-2.6499,-2.6499,-2.6499,-2.6499,-2.6499,-2.6499,-2.6499,-2.6499,-2.6499,-2.6549,-2.6725,-2.6751,-2.6751,-2.6751,-2.6751,0.0,0.0,0.0,0.0,0.0,-2.5385,-2.5184,0.0,-2.4506,0.0,0.0,0.0,0.0,0.0,0.0,0.0,0.0,-2.8097,0.0,-2.9528,-3.008,-3.0884,-3.1964,-3.1964,-3.2541,-3.3671,-3.4776,-3.5332,-3.5533,-3.6132,-3.6405,-3.6405,-3.6405,-3.6405,-3.6405,-3.6405,-3.6405,-3.6405,-3.6405,-3.6405,-3.643,-4.2521,-4.2611,-4.2611,-4.2611,-4.2611,-4.2372,-4.1713,-4.1662,-4.1235,-4.0157,-4.0038,-3.9858,-3.9433,-3.8845,0.0,-3.5123,-3.4355,-3.2886,-3.0273,-3.0228,-3.0582,-3.1167,-3.1901,-3.2806,-3.3979,0.0,0.0,-3.4262,-3.1646,-2.9287,-2.7267,-2.7028,-2.6952,-2.6985,-2.7297,-2.7095,-2.6533,-2.6816,-2.6782,-2.6499,-2.6499,-2.6499,-2.6499,-2.6499,-2.6499,-2.6499,-2.6499,-2.6499,-2.6499,-2.6499,-2.6499,-2.6499,-2.6499,-2.6499,-2.6499,-2.6499,-2.6499,-2.6499,-2.6499,-2.6499,-2.6499,-2.6499,-2.6499,-2.6499,-2.6499,-2.6714,-2.685,-2.6568,-2.6748,-2.685,-2.6568,-2.6499,-2.6499,-2.6499,-2.6323,-2.6047,-2.5636,0.0,0.0,0.0,0.0,0.0,0.0,-2.5109,-2.5259,0.0,0.0,0.0,0.0,0.0,0.0,-2.7595,-2.8473,0.0,-3.0105,-3.0432,-3.116,-3.2215,-3.2641,-3.3319,-3.4248,-3.5082,-3.5608,-3.5881,-3.6254,-3.6405,-3.6405,-3.6405,-3.6405,-3.6405,-3.6405,-3.6405,-3.6405,-3.6405,-3.6405,-3.6405,-4.1422,-4.1422,0.0,0.0,-4.1422,0.0,-4.0487,-4.0427,-4.0217,-3.9463,-3.9469,-3.9433,-3.9301,-3.7908,-3.6484,-3.5415,0.0,0.0,0.0,-3.0943,-3.1204,-3.1278,-3.3017,-3.4013,-3.4081,-3.5034,-3.5457,-3.5332,-3.2539,-3.0254,-2.8494,-2.806,-2.7796,-2.7736,-2.862,-2.8103,-2.6611,-2.7397,-2.7229,-2.6499,-2.6499,-2.6499,-2.6499,-2.6499,-2.6499,-2.6499,-2.6499,-2.6499,-2.6499,-2.6499,-2.6499,-2.6499,-2.6499,-2.6499,-2.6499,-2.6499,-2.6499,-2.6499,-2.6499,-2.6499,-2.6499,-2.6499,-2.6499,-2.6499,-2.6499,-2.7154,-2.7523,-2.6705,-2.7188,-2.749,-2.6671,-2.6474,-2.6424,-2.6424,-2.5946,-2.5536,-2.5485,0.0,0.0,0.0,0.0,0.0,0.0,-2.6223,-2.6122,0.0,0.0,0.0,0.0,0.0,-2.762,-2.8147,-2.8725,-2.954,-3.0658,-3.0708,-3.1235,-3.229,-3.342,-3.4223,-3.4751,-3.5282,-3.5881,-3.6405,-3.6405,-3.6405,-3.6405,-3.6405,-3.6405,-3.6405,-3.6405,-3.6405,-3.6405,-3.6405,-3.6405,-3.6405,0.0,0.0,-4.1422,-4.1422,-4.1422,-4.1145,-4.0487,-4.0816,-4.0726,-3.9559,-3.9858,-3.9654,-3.8315,-3.711,-3.5903,-3.473,-3.3284,-3.1719,-3.0083,-3.0736,-3.1536,-3.2236,-3.3394,-3.4346,-3.5133,-3.5392,-3.4928,-3.3747,-3.3038,-3.1305,-2.8649,-2.9191,-2.8828,-2.7736,-2.862,-2.8395,-2.7404,-2.7604,-2.7229,-2.6499,-2.6499,-2.6499,-2.6499,-2.6499,-2.6499,-2.6499,-2.6499,-2.6499,-2.6499,-2.6499,-2.6499,-2.6499,-2.6499,-2.6499,-2.6499,-2.6499,-2.6499,-2.6499,-2.6499,-2.6499,-2.6499,-2.6499,-2.6499,-2.6499,-2.6499,-2.7532,-2.8095,-2.6781,-2.7532,-2.8061,-2.6721,-2.6122,-2.5812,-2.5812,-2.536,-2.4858,-2.4431,-2.4632,0.0,0.0,-2.5737,-2.6298,-2.6298,-2.6801,-2.7027,0.0,0.0,0.0,0.0,-2.8247,-2.8562,-2.8687,-2.9704,-3.0532,-3.121,-3.1612,-3.219,-3.2893,-3.3997,-3.46,-3.4705,-3.573,-3.6279,-3.6405,-3.6405,-3.6405,-3.6405,-3.6405,-3.6405,-3.6405,-3.6405,-3.6405,-3.6405,-3.6405,-3.6405,-3.6405,-4.0008,-4.0008,-3.9918,-3.9619,-3.9559,-3.9439,-3.908,-3.9589,-3.9768,-3.905,-3.926,-3.9139,-3.8172,-3.6613,-3.5395,-3.4719,-3.3338,-3.2052,-3.1161,-3.1974,-3.27,-3.3192,-3.4177,-3.4938,-3.5519,-3.519,-3.4268,-3.2692,-3.2407,-3.1436,-2.9788,-2.961,-2.9082,-2.8298,-2.878,-2.8298,-2.7196,-2.7537,-2.7229,-2.6499,-2.6499,-2.6499,-2.6499,-2.6499,-2.6499,-2.6499,-2.6499,-2.6499,-2.6499,-2.6499,-2.6499,-2.6499,-2.6499,-2.6499,-2.6499,-2.6499,-2.6499,-2.6499,-2.6499,-2.6499,-2.6499,-2.6499,-2.6675,-2.6876,-2.6876,-2.7988,-2.8638,-2.7151,-2.7988,-2.8499,-2.6797,-2.6223,-2.5912,-2.5636,-2.4958,-2.433,-2.4029,-2.4255,0.0,-2.5109,-2.5971,-2.67,-2.7203,-2.772,-2.7921,-2.767,-2.8147,0.0,-2.8473,-2.9252,-2.954,-2.9327,-3.0156,-3.0984,-3.1763,-3.2315,-3.2893,-3.347,-3.4324,-3.4806,-3.5082,-3.5981,-3.6405,-3.6405,-3.6405,-3.6405,-3.6405,-3.6405,-3.6405,-3.6405,-3.6405,-3.6405,-3.6405,-3.6405,-3.6405,-3.6405,-3.8512,-3.8302,-3.8063,-3.7494,-3.7404,-3.7434,-3.7554,-3.7943,-3.8302,-3.8512,-3.8362,-3.8237,-3.8186,-3.6324,-3.5113,-3.4992,-3.3826,-3.2987,-3.264,-3.3498,-3.3979,-3.3979,-3.4938,-3.5519,-3.5519,-3.4831,-3.3826,-3.2445,-3.1872,-3.1401,-3.1097,-2.9869,-2.9212,-2.9002,-2.9002,-2.8136,-2.6714,-2.7404,-2.7178,-2.6373,-2.6373,-2.6323,-2.6248,-2.6248,-2.6316,-2.6418,-2.6357,-2.6442,-2.6544,-2.6508,-2.6499,-2.6499,-2.6499,-2.6499,-2.6499,-2.6499,-2.6602,-2.6645,-2.6533,-2.6602,-2.6645,-2.6533,-2.7006,-2.7445,-2.7304,-2.847,-2.917,-2.7733,-2.8547,-2.8926,-2.6974,-2.6474,-2.6197,-2.5661,-2.4632,-2.3929,-2.4104,0.0,-2.4607,-2.5611,-2.6424,-2.7228,-2.8147,-2.8612,-2.8762,-2.8499,-2.9302,-2.9654,-2.9289,-3.0167,-3.0557,-3.0156,-3.0608,-3.1336,-3.234,-3.2842,-3.3319,-3.3796,-3.4424,-3.4931,-3.5382,-3.6081,-3.6405,-3.6405,-3.6405,-3.6405,-3.6405,-3.6405,-3.6405,-3.6405,-3.6405,-3.6405,-3.6405,-3.6405,-3.6405,-3.6405,-3.8422,-3.7943,-3.7524,-3.7434,-3.7404,-3.7584,-3.8153,-3.7853,-3.7973,-3.911,-3.8272,-3.7421,-3.7099,-3.6303,-3.5532,-3.4979,-3.469,-3.4008,-3.2684,-3.3498,-3.3979,-3.3979,-3.4938,-3.5519,-3.5519,-3.4831,-3.4381,-3.4103,-3.3449,-3.2457,-3.1193,-3.0953,-3.0202,-2.9002,-2.9002,-2.846,-2.7504,-2.7637,-2.6945,-2.5737,-2.5737,-2.546,-2.5084,-2.5084,-2.5454,-2.5965,-2.58,-2.6118,-2.6655,-2.6561,-2.6499,-2.6499,-2.6499,-2.6499,-2.6499,-2.6499,-2.696,-2.7397,-2.6679,-2.6994,-2.7364,-2.6679,-2.7404,-2.8135,-2.7445,-2.8841,-2.9807,-2.829,-2.9202,-2.9624,-2.7556,-2.6364,-2.5711,-2.5611,-2.4249,-2.3572,-2.4525,0.0,-2.5586,-2.6273,-2.7645,-2.8587,-2.8737,-2.8838,-2.9239,-3.0156,-2.9955,-3.0156,-3.0959,-3.1185,-3.1436,-3.1838,-3.1913,-3.229,-3.2943,-3.3043,-3.3162,-3.3262,-3.4248,-3.4731,-3.4876,-3.5906,-3.6405,-3.6405,-3.6405,-3.6405,-3.6405,-3.6405,-3.6405,-3.6405,-3.6405,-3.6405,-3.6405,-3.6405,-3.6405,-3.6405,-3.7943,-3.7345,-3.6806,-3.6447,-3.6387,-3.6477,-3.6776,-3.6866,-3.7255,-3.8212,-3.7793,-3.7322,-3.7134,-3.6599,-3.5952,-3.5272,-3.5242,-3.4927,-3.4206,-3.4543,-3.4576,-3.4013,-3.4938,-3.516,-3.4442,-3.4113,-3.3604,-3.2886,-3.2557,-3.1841,-3.0702,-3.0211,-2.941,-2.8266,-2.7523,-2.715,-2.7035,-2.6693,-2.6418,-2.6154,-2.5752,-2.5755,-2.5963,-2.5527,-2.587,-2.6485,-2.6383,-2.6827,-2.731,-2.6791,-2.6871,-2.7162,-2.7162,-2.7162,-2.7229,-2.7703,-2.7769,-2.7736,-2.7835,-2.8103,-2.8281,-2.7728,-2.8675,-2.9453,-2.8399,-2.9563,-3.0383,-2.8835,-2.9351,-2.9588,-2.7994,-2.7067,-2.6515,-2.6515,-2.5134,0.0,0.0,-2.5946,-2.6424,-2.7278,-2.8273,-2.9013,-2.9352,-2.9402,-2.9729,-3.0557,-3.0382,-3.0583,-3.1361,-3.1662,-3.1938,-3.2215,-3.2516,-3.2817,-3.3111,-3.337,-3.352,-3.352,-3.4349,-3.4831,-3.5132,-3.5705,-3.6081,-3.6405,-3.6405,-3.6405,-3.6405,-3.6405,-3.6405,-3.6405,-3.6405,-3.6405,-3.6405,-3.6405,-3.6405,-3.6405,-3.7315,-3.6926,-3.6507,-3.5848,-3.5729,-3.5818,-3.6118,-3.6357,-3.6836,-3.7764,-3.7494,-3.7255,-3.7404,-3.6716,-3.6058,-3.5549,-3.5519,-3.5519,-3.5519,-3.5519,-3.5166,-3.438,-3.4952,-3.4711,-3.3514,-3.3335,-3.2766,-3.172,-3.1396,-3.0896,-3.0269,-2.9192,-2.833,-2.7644,-2.6238,-2.5837,-2.6248,-2.5836,-2.5904,-2.6285,-2.5897,-2.61,-2.6562,-2.5995,-2.6237,-2.6909,-2.701,-2.7513,-2.7986,-2.7422,-2.7567,-2.7999,-2.7999,-2.7999,-2.8136,-2.8812,-2.8684,-2.8395,-2.8876,-2.916,-2.9236,-2.8899,-2.9962,-3.0794,-2.9527,-3.028,-3.0802,-2.9391,-2.9478,-2.9478,-2.8473,-2.7846,-2.7469,-2.7469,0.0,0.0,0.0,-2.6876,-2.7228,-2.8172,-2.8775,-2.9302,-2.9754,-2.9804,-3.008,-3.0758,-3.0809,-3.1085,-3.1738,-3.219,-3.2416,-3.2416,-3.2842,-3.3111,-3.3111,-3.3495,-3.3771,-3.3897,-3.4449,-3.4906,-3.5307,-3.5433,-3.578,-3.6182,-3.6182,-3.6279,-3.6405,-3.6405,-3.6405,-3.6405,-3.6405,-3.6405,-3.6405,-3.6405,-3.6405,-3.6405,-3.6686,-3.6985,-3.7135,-3.6507,-3.6417,-3.6806,-3.8003,-3.7225,-3.7165,-3.8985,-3.7674,-3.6776,-3.7345,-3.6327,-3.5549,-3.5519,-3.5519,-3.5519,-3.5519,-3.5519,-3.5457,-3.5392,-3.4859,-3.4264,-3.3514,-3.2886,-3.2527,-3.2437,-3.107,-3.0359,-3.0269,-2.8588,-2.7769,-2.7644,-2.6238,-2.5611,-2.5703,-2.5838,-2.5608,-2.5282,-2.5909,-2.5903,-2.5494,-2.5438,-2.5881,-2.6596,-2.7025,-2.7647,-2.8339,-2.8716,-2.8852,-2.8907,-2.8907,-2.8907,-2.8907,-2.8971,-2.9535,-2.9936,-2.9192,-2.9597,-3.0168,-2.9942,-3.0946,-3.1698,-3.0575,-3.0761,-3.0932,-2.996,-2.9754,-2.9603,-2.8938,-2.8423,-2.8047,-2.8047,0.0,0.0,-2.7821,-2.7971,-2.8197,-2.8762,-2.9377,-2.9754,-2.9804,-2.9804,-3.0231,-3.126,-3.1336,-3.1813,-3.2935,-3.2993,-3.3018,-3.3018,-3.3086,-3.3111,-3.3111,-3.3162,-3.3395,-3.3897,-3.4449,-3.4705,-3.4801,-3.5257,-3.5508,-3.5558,-3.5558,-3.5881,-3.6405,-3.6405,-3.6405,-3.6405,-3.6405,-3.6405,-3.6405,-3.6405,-3.6405,-3.6405,-3.7105,-3.7255,-3.7225,-3.6596,-3.6477,-3.6507,-3.6596,-3.6178,-3.6417,-3.7973,-3.7195,-3.6716,-3.7345,-3.6626,-3.5938,-3.5549,-3.5519,-3.5519,-3.5519,-3.5519,-3.5519,-3.5519,-3.4316,-3.3606,-3.3514,-3.2856,-3.2288,-3.1869,-3.0426,-2.9656,-2.9473,-2.7921,-2.7124,-2.69,-2.5676,-2.5285,-2.5602,-2.546,-2.5545,-2.583,-2.6534,-2.706,-2.7401,-2.7311,-2.75,-2.7809,-2.7883,-2.8425,-2.9021,-2.854,-2.901,-2.9813,-2.9813,-2.9813,-2.9875,-3.0389,-3.11,-3.1603,-3.1271,-3.11,-3.11,-3.1282,-3.1711,-3.1877,-3.1074,-3.1072,-3.0932,-3.0011,-2.9804,-2.9729,-2.9503,-2.9001,-2.8725,-2.9101,0.0,-2.7871,-2.9001,-2.885,-2.8825,-2.9402,-2.9654,-2.9804,-2.9804,-3.0105,-3.0608,-3.1336,-3.1712,-3.224,-3.3086,-3.3111,-3.3111,-3.3111,-3.3111,-3.3111,-3.3111,-3.342,-3.352,-3.3395,-3.4299,-3.468,-3.4751,-3.5257,-3.6075,-3.7091,-3.7091,-3.7266,-3.7448,-3.7448,-3.701,-3.6405,-3.6405,-3.6405,-3.6405,-3.6405,-3.6405,-3.6405,-3.6896,-3.7315,-3.7464,-3.6626,-3.6656,-3.6626,-3.6178,-3.5938,-3.6207,-3.7255,-3.6866,-3.6656,-3.7075,-3.6567,-3.5998,-3.5549,-3.5519,-3.5519,-3.5519,-3.5519,-3.54,-3.519,-3.3927,-3.3187,-3.3215,-3.2527,-3.1841,-3.1131,-3.0163,-2.9327,-2.8588,-2.7605,-2.7039,-2.6833,-2.5888,-2.582,-2.6401,-2.6237,-2.6426,-2.6945,-2.7682,-2.8333,-2.8883,-2.8809,-2.883,-2.8889,-2.871,-2.9168,-2.9761,-2.8961,-2.9594,-3.0688,-3.0688,-3.0805,-3.11,-3.1663,-3.2288,-3.2826,-3.2826,-3.2497,-3.2258,-3.274,-3.2844,-3.2717,-3.2195,-3.1865,-3.1352,-3.0419,-3.0011,-2.9804,-2.9804,-2.9478,-2.9327,-2.9729,-2.9151,-2.89,-2.9679,-2.9694,-2.9643,-2.9793,-3.0062,-3.0177,-3.0069,-3.0382,-3.0909,-3.1587,-3.1989,-3.2466,-3.3086,-3.3111,-3.3111,-3.3111,-3.3111,-3.3111,-3.3111,-3.3445,-3.3545,-3.3345,-3.4274,-3.468,-3.4751,-3.5618,-3.6735,-3.7889,-3.822,-3.8506,-3.8649,-3.8243,-3.7632,-3.6896,-3.6546,-3.6405,-3.6405,-3.6405,-3.6615,-3.6896,-3.5759,-3.7075,-3.8003,-3.6716,-3.7015,-3.7404,-3.7404,-3.6866,-3.6716,-3.7315,-3.6866,-3.6477,-3.6477,-3.5908,-3.5519,-3.5519,-3.5519,-3.5519,-3.5519,-3.5519,-3.519,-3.4533,-3.3844,-3.3185,-3.2497,-3.1839,-3.1102,-3.0299,-3.0299,-2.9411,-2.7703,-2.7703,-2.7703,-2.7677,-2.7161,-2.7404,-2.8216,-2.834,-2.8396,-2.8452,-2.9262,-2.9621,-2.9621,-2.9621,-2.9621,-2.9573,-2.9377,-2.9841,-3.0499,-3.0366,-3.0837,-3.1511,-3.1511,-3.1959,-3.2527,-3.2527,-3.2976,-3.3514,-3.3514,-3.3514,-3.3664,-3.4354,-3.4472,-3.4399,-3.4066,-3.3262,-3.2307,-3.1389,-3.0457,-2.9804,-2.9804,-2.9804,-2.9804,-2.9804,-2.9804,-2.9804,-2.9804,-3.062,-3.0857,-2.9934,-3.0646,-3.1055,-3.0637,-3.0633,-3.106,-3.2139,-3.2215,-3.2466,-3.3086,-3.3111,-3.3111,-3.3111,-3.3111,-3.3111,-3.3136,-3.3111,-3.3345,-3.3897,-3.4449,-3.4726,-3.4796,-3.6538,-3.7352,-3.7396,-3.8519,-3.9376,-3.9826,-3.8604,-3.8107,-3.7971,-3.6849,-3.6405,-3.6405,-3.6405,-3.7103,-3.7926,-3.6926,-3.8063,-3.8691,-3.7375,-3.7285,-3.7105,-3.6207,-3.5908,-3.6028,-3.6686,-3.6207,-3.5968,-3.6447,-3.5908,-3.5519,-3.5519,-3.5519,-3.5519,-3.5519,-3.5519,-3.54,-3.522,-3.4532,-3.3873,-3.3215,-3.2527,-3.1871,-3.1161,-3.0133,-2.9327,-2.862,-2.8216,-2.7953,-2.771,-2.7773,-2.7937,-2.8216,-2.834,-2.8396,-2.851,-2.9737,-3.0223,-3.0283,-3.0761,-3.0642,-3.0201,-3.0075,-3.0221,-3.0499,-3.0366,-3.0837,-3.1511,-3.1511,-3.1959,-3.2527,-3.2527,-3.3305,-3.4204,-3.4204,-3.4532,-3.4831,-3.4593,-3.3997,-3.359,-3.3931,-3.3262,-3.2307,-3.1389,-3.097,-3.0582,-2.9934,-2.9804,-2.9804,-2.9804,-2.9804,-3.0024,-3.0696,-3.1007,-3.1239,-3.1355,-3.161,-3.1616,-3.1206,-3.1512,-3.1863,-3.219,-3.2591,-3.2893,-3.3111,-3.3111,-3.3111,-3.3111,-3.3111,-3.3269,-3.3646,-3.3269,-3.3547,-3.4464,-3.547,-3.6349,-3.7133,-3.8521,-3.9566,-4.0308,-4.0674,-4.0492,-3.9869,-3.9492,-3.8379,-3.6896,-3.6546,-3.6405,-3.6405,-3.6405,-3.7103,-3.8062,-3.7135,-3.8093,-3.8661,-3.7584,-3.7404,-3.7075,-3.6058,-3.5669,-3.5639,-3.6058,-3.5759,-3.5639,-3.6058,-3.5729,-3.5519,-3.5519,-3.5519,-3.5519,-3.5519,-3.5519,-3.5519,-3.5519,-3.51,-3.4562,-3.3903,-3.2976,-3.2109,-3.1397,-3.0602,-2.9806,-2.9002,-2.9019,-2.8923,-2.8721,-2.8926,-2.9213,-2.9515,-2.958,-2.9636,-2.9722,-3.0562,-3.0883,-3.0943,-3.1361,-3.1241,-3.0827,-3.0424,-3.0749,-3.1245,-3.0802,-3.1364,-3.2228,-3.1959,-3.2557,-3.3275,-3.3275,-3.4053,-3.4891,-3.4891,-3.519,-3.54,-3.4981,-3.4475,-3.4138,-3.4489,-3.3842,-3.2876,-3.1947,-3.1462,-3.0895,-2.9972,-2.9804,-2.9804,-2.9804,-3.0101,-3.0545,-3.1119,-3.2054,-3.2691,-3.2664,-3.3207,-3.3436,-3.3001,-3.3273,-3.3561,-3.377,-3.4136,-3.4137,-3.3742,-3.3725,-3.3556,-3.3111,-3.3111,-3.3477,-3.4212,-3.3879,-3.4286,-3.5447,-3.6534,-3.7585,-3.8518,-3.9914,-4.0958,-4.1629,-4.207,-4.1657,-4.0532,-4.0059,-3.8783,-3.701,-3.6593,-3.6405,-3.6405,-3.6405,-3.7428,-3.8738,-3.6776,-3.7494,-3.8093,-3.7434,-3.7375,-3.7195,-3.6507,-3.5938,-3.5579,-3.5519,-3.5519,-3.5519,-3.5519,-3.5519,-3.5519,-3.5519,-3.5519,-3.5519,-3.5519,-3.5519,-3.5519,-3.5519,-3.5519,-3.522,-3.4623,-3.3275,-3.2167,-3.1317,-3.1457,-3.0688,-2.9129,-3.0025,-3.0359,-3.0299,-3.0389,-3.0807,-3.1511,-3.1511,-3.1511,-3.1511,-3.1511,-3.1511,-3.1511,-3.1511,-3.1511,-3.1424,-3.0688,-3.1278,-3.2288,-3.1563,-3.2278,-3.3395,-3.2796,-3.3455,-3.4503,-3.4503,-3.4951,-3.5519,-3.5519,-3.5519,-3.5519,-3.5519,-3.5519,-3.5519,-3.5519,-3.4806,-3.3842,-3.2806,-3.1938,-3.1007,-3.0011,-2.9829,-2.9893,-2.9895,-3.0736,-3.1373,-3.1505,-3.3597,-3.4768,-3.3971,-3.5195,-3.5903,-3.5509,-3.5477,-3.567,-3.6156,-3.6267,-3.5856,-3.4812,-3.4771,-3.434,-3.3359,-3.3316,-3.3845,-3.4974,-3.5098,-3.566,-3.6663,-3.7688,-3.8519,-3.9271,-4.098,-4.1753,-4.1794,-4.2739,-4.2478,-4.1293,-4.0204,-3.8996,-3.7703,-3.6701,-3.6304,-3.6279,-3.6329,-3.7782,-3.9699,-3.7165,-3.7434,-3.7434,-3.6806,-3.7075,-3.7015,-3.5878,-3.6028,-3.6088,-3.5579,-3.5519,-3.5519,-3.5519,-3.5519,-3.5519,-3.5519,-3.5519,-3.5519,-3.5519,-3.5519,-3.5519,-3.5519,-3.5519,-3.5429,-3.528,-3.3963,-3.2915,-3.2198,-3.1722,-3.0984,-3.0056,-3.0866,-3.0896,-3.0329,-3.0955,-3.1336,-3.1511,-3.1511,-3.1511,-3.1511,-3.1511,-3.1511,-3.1511,-3.1511,-3.1511,-3.1482,-3.1307,-3.1425,-3.175,-3.2109,-3.2795,-3.3455,-3.3335,-3.3814,-3.4503,-3.4503,-3.4951,-3.5519,-3.5519,-3.5519,-3.5519,-3.5519,-3.5519,-3.5519,-3.5519,-3.5326,-3.4706,-3.2947,-3.2451,-3.1792,-3.0101,-3.0156,-3.0531,-3.0849,-3.1844,-3.2993,-3.4043,-3.5103,-3.5849,-3.6082,-3.6401,-3.6456,-3.608,-3.6018,-3.6073,-3.6184,-3.6693,-3.6511,-3.5378,-3.5378,-3.5252,-3.4982,-3.5025,-3.5759,-3.7276,-3.8246,-3.828,-3.7522,-3.8791,-3.9931,-4.091,-4.2287,-4.2941,-4.29,-4.2234,-4.105,-3.9535,-3.8789,-3.7292,-3.5466,-3.5646,-3.5454,-3.5127,-3.5554,-3.7179,-3.9478,-3.7075,-3.7464,-3.7674,-3.7045,-3.6956,-3.6746,-3.6088,-3.5998,-3.5908,-3.5549,-3.5519,-3.5519,-3.5519,-3.5519,-3.5519,-3.5519,-3.5519,-3.5519,-3.5519,-3.5519,-3.5519,-3.5519,-3.5519,-3.5519,-3.5519,-3.4502,-3.3634,-3.2976,-3.2317,-3.1604,-3.0866,-3.1307,-3.1278,-3.0896,-3.1307,-3.1511,-3.1511,-3.1511,-3.1511,-3.1511,-3.1511,-3.1511,-3.1511,-3.1511,-3.1511,-3.154,-3.1869,-3.2378,-3.2976,-3.3335,-3.3903,-3.4412,-3.4053,-3.4412,-3.4981,-3.4981,-3.522,-3.5519,-3.5519,-3.5519,-3.5519,-3.5519,-3.5519,-3.5519,-3.5519,-3.5519,-3.5023,-3.3338,-3.2751,-3.2355,-3.1461,-3.1345,-3.1668,-3.2654,-3.3731,-3.4678,-3.5382,-3.6435,-3.7239,-3.7527,-3.7849,-3.7952,-3.7748,-3.7738,-3.752,-3.7021,-3.8043,-3.7851,-3.5967,-3.6661,-3.6729,-3.5858,-3.5858,-3.6661,-3.8352,-3.9018,-3.9383,-3.9522,-4.0529,-4.134,-4.1931,-4.288,-4.311,-4.2841,-4.2227,-4.1003,-3.9388,-3.8467,-3.7085,-3.5479,-3.5253,-3.5303,-3.5504,-3.5483,-3.7179,-3.9786,-3.6926,-3.7315,-3.7734,-3.7165,-3.6746,-3.6447,-3.6327,-3.5938,-3.5639,-3.5519,-3.5519,-3.5519,-3.5519,-3.5519,-3.5519,-3.5519,-3.5519,-3.5519,-3.5519,-3.5519,-3.5519,-3.5519,-3.5519,-3.5519,-3.5519,-3.4951,-3.4294,-3.3484,-3.2946,-3.2258,-3.1511,-3.163,-3.16,-3.1511,-3.1511,-3.1511,-3.1511,-3.1511,-3.1511,-3.1511,-3.1511,-3.1511,-3.1511,-3.1511,-3.157,-3.175,-3.2288,-3.3365,-3.4503,-3.4503,-3.4951,-3.54,-3.4863,-3.504,-3.5519,-3.5519,-3.5519,-3.5519,-3.5519,-3.5519,-3.5519,-3.5519,-3.5519,-3.5519,-3.5639,-3.5579,-3.5145,-3.3936,-3.3306,-3.3054,-3.3227,-3.2966,-3.3214,-3.4613,-3.565,-3.6346,-3.6373,-3.7636,-3.8571,-3.8571,-3.908,-3.9373,-3.9373,-3.9373,-3.8943,-3.7881,-3.9274,-3.8946,-3.6246,-3.7473,-3.7608,-3.6138,-3.6298,-3.7237,-3.8976,-3.9286,-4.0197,-4.1713,-4.2321,-4.25,-4.241,-4.303,-4.297,-4.241,-4.2186,-4.1192,-3.9617,-3.8405,-3.7226,-3.6029,-3.5148,-3.5253,-3.5848,-3.5938,-3.7697,-4.0307,-3.7105,-3.6537,-3.5878,-3.5789,-3.6178,-3.6297,-3.5729,-3.6058,-3.6148,-3.5579,-3.5519,-3.5519,-3.5519,-3.5519,-3.5519,-3.5519,-3.5519,-3.5519,-3.5519,-3.5519,-3.5519,-3.5519,-3.5519,-3.5519,-3.5519,-3.54,-3.4741,-3.3484,-3.3395,-3.2736,-3.1511,-3.2079,-3.2049,-3.1511,-3.1511,-3.1511,-3.1511,-3.1511,-3.1511,-3.1511,-3.1511,-3.1511,-3.1511,-3.1511,-3.1869,-3.2407,-3.2467,-3.3365,-3.4503,-3.4503,-3.4951,-3.5489,-3.54,-3.5429,-3.5519,-3.5519,-3.5519,-3.5519,-3.5519,-3.5519,-3.5519,-3.5519,-3.5519,-3.5639,-3.6237,-3.5908,-3.5344,-3.4883,-3.4702,-3.4626,-3.4445,-3.4689,-3.5131,-3.5718,-3.6798,-3.768,-3.802,-3.877,-3.9254,-3.9254,-3.9313,-3.9373,-3.9373,-3.9373,-3.8943,-3.7881,-3.8572,-3.8003,-3.5725,-3.5889,-3.5889,-3.5599,-3.6525,-3.7882,-3.965,-4.1165,-4.2285,-4.3021,-4.311,-4.291,-4.241,-4.303,-4.297,-4.2342,-4.1299,-4.0129,-3.8871,-3.7714,-3.6296,-3.4946,-3.5263,-3.465,-3.39,-3.6795,-3.8978,-4.0785,-3.6447,-3.6477,-3.6357,-3.5639,-3.5759,-3.5848,-3.5549,-3.5759,-3.5848,-3.5549,-3.5519,-3.5519,-3.5519,-3.5519,-3.5519,-3.5519,-3.5519,-3.5519,-3.5519,-3.5519,-3.5519,-3.5519,-3.5519,-3.5519,-3.5519,-3.5519,-3.504,-3.4053,-3.4053,-3.3544,-3.2617,-3.2557,-3.2318,-3.2019,-3.166,-3.1511,-3.1511,-3.1511,-3.1511,-3.1511,-3.1511,-3.1511,-3.154,-3.1899,-3.2228,-3.2557,-3.2916,-3.3933,-3.4981,-3.4623,-3.4951,-3.5519,-3.5519,-3.5519,-3.5519,-3.5519,-3.5519,-3.5519,-3.5519,-3.5519,-3.5519,-3.5519,-3.5789,-3.6118,-3.6417,-3.6537,-3.6446,-3.6063,-3.5776,-3.5727,-3.6287,-3.6325,-3.6633,-3.7703,-3.8377,-3.8752,-3.8919,-3.923,-3.9373,-3.9373,-3.9373,-3.9373,-3.9373,-3.9373,-3.8694,-3.7021,-3.8649,-3.8582,-3.6049,-3.7398,-3.7811,-3.6813,-3.7833,-3.8717,-3.9236,-4.063,-4.1594,-4.2252,-4.2252,-4.2282,-4.241,-4.2671,-4.2641,-4.2312,-4.1035,-4.0227,-3.9682,-3.7841,-3.6507,-3.5536,-3.5181,-3.5206,-3.5748,-3.8533,-4.0199,-4.1336]},{"header":{"parameterUnit":"m.s-1","parameterCategory":1,"la1":30.6,"la2":28.766,"lo1":-90.7593,"lo2":-88.6598,"dy":0.0162,"dx":0.0183,"nx":116,"ny":114,"refTime":"2023-08-09T12:00:00:Z","depth":0,"parameterNumber":3,"parameterNumberName":"V-component_of_WINDS"},"data":[0.0,0.0,0.0,0.0,0.0,0.0,0.0,0.0,0.0,0.0,0.0,0.0,0.0,0.0,0.0,0.0,0.0,0.0,0.0,0.0,0.0,0.0,0.0,0.0,0.0,0.0,0.0,0.0,0.0,0.0,0.0,0.0,0.0,0.0,0.0,0.0,0.0,0.0,0.0,0.0,0.0,0.0,0.0,0.0,0.0,0.0,0.0,0.0,0.0,0.0,0.0,0.0,0.0,0.0,0.0,0.0,0.0,0.0,0.0,0.0,0.0,0.0,0.0,0.0,0.0,0.0,0.0,0.0,0.0,0.0,0.0,0.0,0.0,0.0,0.0,0.0,0.0,0.0,0.0,0.0,0.0,0.0,0.0,0.0,0.0,0.0,0.0,0.0,0.0,0.0,0.0,0.0,0.0,0.0,0.0,0.0,0.0,0.0,0.0,0.0,0.0,0.0,0.0,0.0,0.0,0.0,0.0,0.0,0.0,0.0,0.0,0.0,0.0,0.0,0.0,0.0,0.0,0.0,0.0,0.0,0.0,0.0,0.0,0.0,0.0,0.0,0.0,0.0,0.0,0.0,0.0,0.0,0.0,0.0,0.0,0.0,0.0,0.0,0.0,0.0,0.0,0.0,0.0,0.0,0.0,0.0,0.0,0.0,0.0,0.0,0.0,0.0,0.0,0.0,0.0,0.0,0.0,0.0,0.0,0.0,0.0,0.0,0.0,0.0,0.0,0.0,0.0,0.0,0.0,0.0,0.0,0.0,0.0,0.0,0.0,0.0,0.0,0.0,0.0,0.0,0.0,0.0,0.0,0.0,0.0,0.0,0.0,0.0,0.0,0.0,0.0,0.0,0.0,0.0,0.0,0.0,0.0,0.0,0.0,0.0,0.0,0.0,0.0,0.0,0.0,0.0,0.0,0.0,0.0,0.0,0.0,0.0,0.0,0.0,0.0,0.0,0.0,0.0,0.0,0.0,0.0,0.0,0.0,0.0,0.0,0.0,0.0,0.0,0.0,0.0,0.0,0.0,0.0,0.0,0.0,0.0,0.0,0.0,0.0,0.0,0.0,0.0,0.0,0.0,0.0,0.0,0.0,0.0,0.0,0.0,0.0,0.0,0.0,0.0,0.0,0.0,0.0,0.0,0.0,0.0,0.0,0.0,0.0,0.0,0.0,0.0,0.0,0.0,0.0,0.0,0.0,0.0,0.0,0.0,0.0,0.0,0.0,0.0,0.0,0.0,0.0,0.0,0.0,0.0,0.0,0.0,0.0,0.0,0.0,0.0,0.0,0.0,0.0,0.0,0.0,0.0,0.0,0.0,0.0,0.0,0.0,0.0,0.0,0.0,0.0,0.0,0.0,0.0,0.0,0.0,0.0,0.0,0.0,0.0,0.0,0.0,0.0,0.0,0.0,0.0,0.0,0.0,0.0,0.0,0.0,0.0,0.0,0.0,0.0,0.0,0.0,0.0,0.0,0.0,0.0,0.0,0.0,0.0,0.0,0.0,0.0,0.0,0.0,0.0,0.0,0.0,0.0,0.0,0.0,0.0,0.0,0.0,0.0,0.0,0.0,0.0,0.0,0.0,0.0,0.0,0.0,0.0,0.0,0.0,0.0,0.0,0.0,0.0,0.0,0.0,0.0,0.0,0.0,0.0,0.0,0.0,0.0,0.0,0.0,0.0,0.0,0.0,0.0,0.0,0.0,0.0,0.0,0.0,0.0,0.0,0.0,0.0,0.0,0.0,0.0,0.0,0.0,0.0,0.0,0.0,0.0,0.0,0.0,0.0,0.0,0.0,0.0,0.0,0.0,0.0,0.0,0.0,0.0,0.0,0.0,0.0,0.0,0.0,0.0,0.0,0.0,0.0,0.0,0.0,0.0,0.0,0.0,0.0,0.0,0.0,0.0,0.0,0.0,0.0,0.0,0.0,0.0,0.0,0.0,0.0,0.0,0.0,0.0,0.0,0.0,0.0,0.0,0.0,0.0,0.0,0.0,0.0,0.0,0.0,0.0,0.0,0.0,0.0,0.0,0.0,0.0,0.0,0.0,0.0,0.0,0.0,0.0,0.0,0.0,0.0,0.0,0.0,0.0,0.0,0.0,0.0,0.0,0.0,0.0,0.0,0.0,0.0,0.0,0.0,0.0,0.0,0.0,0.0,0.0,0.0,0.0,0.0,0.0,0.0,0.0,0.0,0.0,0.0,0.0,0.0,0.0,0.0,0.0,0.0,0.0,0.0,0.0,0.0,0.0,0.0,0.0,0.0,0.0,0.0,0.0,0.0,0.0,0.0,0.0,0.0,0.0,0.0,0.0,0.0,0.0,0.0,0.0,0.0,0.0,0.0,0.0,0.0,0.0,0.0,0.0,0.0,0.0,0.0,0.0,0.0,0.0,0.0,0.0,0.0,0.0,0.0,0.0,0.0,0.0,0.0,0.0,0.0,0.0,0.0,0.0,0.0,0.0,0.0,0.0,0.0,0.0,0.0,0.0,0.0,0.0,0.0,0.0,0.0,0.0,0.0,0.0,0.0,0.0,0.0,0.0,0.0,0.0,0.0,0.0,0.0,0.0,0.0,0.0,0.0,0.0,0.0,0.0,0.0,0.0,0.0,0.0,0.0,0.0,0.0,0.0,0.0,0.0,0.0,0.0,0.0,0.0,0.0,0.0,0.0,0.0,0.0,0.0,0.0,0.0,0.0,0.0,0.0,0.0,0.0,0.0,0.0,0.0,0.0,0.0,0.0,0.0,0.0,0.0,0.0,0.0,0.0,0.0,0.0,0.0,0.0,0.0,0.0,0.0,0.0,0.0,0.0,0.0,0.0,0.0,0.0,0.0,0.0,0.0,0.0,0.0,0.0,0.0,0.0,0.0,0.0,0.0,0.0,0.0,0.0,0.0,0.0,0.0,0.0,0.0,0.0,0.0,0.0,0.0,0.0,0.0,0.0,0.0,0.0,0.0,0.0,0.0,0.0,0.0,0.0,0.0,0.0,0.0,0.0,0.0,0.0,0.0,0.0,0.0,0.0,0.0,0.0,0.0,0.0,0.0,0.0,0.0,0.0,0.0,0.0,0.0,0.0,0.0,0.0,0.0,0.0,0.0,0.0,0.0,0.0,0.0,0.0,0.0,0.0,0.0,0.0,0.0,0.0,0.0,0.0,0.0,0.0,0.0,0.0,0.0,0.0,0.0,0.0,0.0,0.0,0.0,0.0,0.0,0.0,0.0,0.0,0.0,0.0,0.0,0.0,0.0,0.0,0.0,0.0,0.0,0.0,0.0,0.0,0.0,0.0,0.0,0.0,0.0,0.0,0.0,0.0,0.0,0.0,0.0,0.0,0.0,0.0,0.0,0.0,0.0,0.0,0.0,0.0,0.0,0.0,0.0,0.0,0.0,0.0,0.0,0.0,0.0,0.0,0.0,0.0,0.0,0.0,0.0,0.0,0.0,0.0,0.0,0.0,0.0,0.0,0.0,0.0,0.0,0.0,0.0,0.0,0.0,0.0,0.0,0.0,0.0,0.0,0.0,0.0,0.0,0.0,0.0,0.0,0.0,0.0,0.0,0.0,0.0,0.0,0.0,0.0,0.0,0.0,0.0,0.0,0.0,0.0,0.0,0.0,0.0,0.0,0.0,0.0,0.0,0.0,0.0,0.0,0.0,0.0,0.0,0.0,0.0,0.0,0.0,0.0,0.0,0.0,0.0,0.0,0.0,0.0,0.0,0.0,0.0,0.0,0.0,0.0,0.0,0.0,0.0,0.0,0.0,0.0,0.0,0.0,0.0,0.0,0.0,0.0,0.0,0.0,0.0,0.0,0.0,0.0,0.0,0.0,0.0,0.0,0.0,0.0,0.0,0.0,0.0,0.0,0.0,0.0,0.0,0.0,0.0,0.0,0.0,0.0,0.0,0.0,0.0,0.0,0.0,0.0,0.0,0.0,0.0,0.0,0.0,0.0,0.0,0.0,0.0,0.0,0.0,0.0,0.0,0.0,0.0,0.0,0.0,0.0,0.0,0.0,0.0,0.0,0.0,0.0,0.0,0.0,0.0,0.0,0.0,0.0,0.0,0.0,0.0,0.0,0.0,0.0,0.0,0.0,0.0,0.0,0.0,0.0,0.0,0.0,0.0,0.0,0.0,0.0,0.0,0.0,0.0,0.0,0.0,0.0,0.0,0.0,0.0,0.0,0.0,0.0,0.0,0.0,0.0,0.0,0.0,0.0,0.0,0.0,0.0,0.0,0.0,0.0,0.0,0.0,0.0,0.0,0.0,0.0,0.0,0.0,0.0,0.0,0.0,0.0,0.0,0.0,0.0,0.0,0.0,0.0,0.0,0.0,0.0,0.0,0.0,0.0,0.0,0.0,0.0,0.0,0.0,0.0,0.0,0.0,0.0,0.0,0.0,0.0,0.0,0.0,0.0,0.0,0.0,0.0,0.0,0.0,0.0,0.0,0.0,0.0,0.0,0.0,0.0,0.0,0.0,0.0,0.0,0.0,0.0,0.0,0.0,0.0,0.0,0.0,0.0,0.0,0.0,0.0,0.0,0.0,0.0,0.0,0.0,0.0,0.0,0.0,0.0,0.0,0.0,0.0,0.0,0.0,0.0,0.0,0.0,0.0,0.0,0.0,0.0,0.0,0.0,0.0,0.0,0.0,0.0,0.0,0.0,0.0,0.0,0.0,0.0,0.0,0.0,0.0,0.0,0.0,0.0,0.0,0.0,0.0,0.0,0.0,0.0,0.0,0.0,0.0,0.0,0.0,0.0,0.0,0.0,0.0,0.0,0.0,0.0,0.0,0.0,0.0,0.0,0.0,0.0,0.0,0.0,0.0,0.0,0.0,0.0,0.0,0.0,0.0,0.0,0.0,0.0,0.0,0.0,0.0,0.0,0.0,0.0,0.0,0.0,0.0,0.0,0.0,0.0,0.0,0.0,0.0,0.0,0.0,0.0,0.0,0.0,0.0,0.0,0.0,0.0,0.0,0.0,0.0,0.0,0.0,0.0,0.0,0.0,0.0,0.0,0.0,0.0,0.0,0.0,0.0,0.0,0.0,0.0,0.0,0.0,0.0,0.0,0.0,0.0,0.0,0.0,0.0,0.0,0.0,0.0,0.0,0.0,0.0,0.0,0.0,0.0,0.0,0.0,0.0,0.0,0.0,0.0,0.0,0.0,0.0,0.0,0.0,0.0,0.0,0.0,0.0,0.0,0.0,0.0,0.0,0.0,0.0,0.0,0.0,0.0,0.0,0.0,0.0,0.0,0.0,0.0,0.0,0.0,0.0,0.0,0.0,0.0,0.0,0.0,0.0,0.0,0.0,0.0,0.0,0.0,0.0,0.0,0.0,0.0,0.0,0.0,0.0,0.0,0.0,0.0,0.0,0.0,0.0,0.0,0.0,0.0,0.0,0.0,0.0,0.0,0.0,0.0,0.0,0.0,0.0,0.0,0.0,0.0,0.0,0.0,0.0,0.0,0.0,0.0,0.0,0.0,0.0,0.0,0.0,0.0,0.0,0.0,0.0,0.0,0.0,0.0,0.0,0.0,0.0,0.0,0.0,0.0,0.0,0.0,0.0,0.0,0.0,0.0,0.0,0.0,0.0,0.0,0.0,0.0,0.0,0.0,0.0,0.0,0.0,0.0,0.0,0.0,0.0,0.0,0.0,0.0,0.0,0.0,0.0,0.0,0.0,0.0,0.0,0.0,0.0,0.0,0.0,0.0,0.0,0.0,0.0,0.0,0.0,0.0,0.0,0.0,0.0,0.0,0.0,0.0,0.0,0.0,0.0,0.0,0.0,0.0,0.0,0.0,0.0,0.0,0.0,0.0,0.0,0.0,0.0,0.0,0.0,0.0,0.0,0.0,0.0,0.0,0.0,0.0,0.0,0.0,0.0,0.0,0.0,0.0,0.0,0.0,0.0,0.0,0.0,0.0,0.0,0.0,0.0,0.0,0.0,0.0,0.0,0.0,0.0,0.0,0.0,0.0,0.0,0.0,0.0,0.0,0.0,0.0,0.0,0.0,0.0,0.0,0.0,0.0,0.0,0.0,0.0,0.0,0.0,0.0,0.0,0.0,0.0,0.0,0.0,0.0,0.0,0.0,0.0,-3.9998,0.0,0.0,0.0,0.0,0.0,0.0,0.0,0.0,0.0,0.0,0.0,0.0,0.0,0.0,0.0,0.0,0.0,0.0,0.0,0.0,0.0,0.0,0.0,0.0,0.0,0.0,0.0,0.0,0.0,0.0,0.0,0.0,0.0,0.0,0.0,0.0,0.0,0.0,0.0,0.0,0.0,0.0,0.0,0.0,0.0,0.0,0.0,0.0,0.0,0.0,0.0,0.0,0.0,0.0,0.0,0.0,0.0,0.0,0.0,0.0,0.0,0.0,0.0,0.0,0.0,0.0,0.0,0.0,0.0,0.0,0.0,0.0,0.0,0.0,0.0,0.0,0.0,0.0,0.0,0.0,0.0,0.0,0.0,0.0,0.0,0.0,0.0,0.0,0.0,0.0,0.0,0.0,0.0,0.0,0.0,0.0,0.0,0.0,0.0,0.0,0.0,0.0,0.0,0.0,0.0,0.0,0.0,0.0,0.0,0.0,0.0,0.0,0.0,0.0,0.0,0.0,-4.2384,0.0,0.0,0.0,0.0,0.0,0.0,0.0,0.0,0.0,0.0,0.0,0.0,0.0,0.0,0.0,0.0,0.0,0.0,0.0,0.0,0.0,0.0,0.0,0.0,0.0,0.0,0.0,0.0,0.0,0.0,0.0,0.0,0.0,0.0,0.0,0.0,0.0,0.0,0.0,0.0,0.0,0.0,0.0,0.0,0.0,0.0,0.0,0.0,0.0,0.0,0.0,0.0,0.0,0.0,0.0,0.0,0.0,0.0,0.0,0.0,0.0,0.0,0.0,0.0,0.0,0.0,0.0,0.0,0.0,0.0,0.0,0.0,0.0,0.0,0.0,0.0,0.0,0.0,0.0,0.0,0.0,0.0,0.0,0.0,0.0,0.0,0.0,0.0,0.0,0.0,0.0,0.0,0.0,0.0,0.0,0.0,0.0,0.0,0.0,0.0,0.0,0.0,0.0,0.0,0.0,0.0,0.0,0.0,-4.969,-5.0795,-5.1599,-5.2176,-5.2427,-5.2277,-4.9615,-4.7556,-4.5949,-4.4443,0.0,0.0,0.0,0.0,0.0,0.0,0.0,0.0,0.0,0.0,0.0,0.0,0.0,0.0,0.0,0.0,0.0,0.0,0.0,0.0,0.0,0.0,0.0,0.0,0.0,0.0,0.0,0.0,0.0,0.0,0.0,0.0,0.0,0.0,0.0,0.0,0.0,0.0,-4.897,-5.081,-5.1798,-5.1887,0.0,0.0,0.0,0.0,0.0,0.0,0.0,0.0,0.0,0.0,0.0,0.0,0.0,0.0,0.0,0.0,0.0,0.0,0.0,0.0,0.0,0.0,0.0,0.0,0.0,0.0,0.0,0.0,0.0,0.0,0.0,0.0,0.0,0.0,0.0,0.0,0.0,0.0,0.0,0.0,0.0,0.0,0.0,0.0,-3.5648,-3.5859,0.0,0.0,0.0,0.0,0.0,0.0,0.0,0.0,0.0,0.0,0.0,0.0,0.0,-4.7029,-4.8611,-5.1272,-5.2703,-5.2879,-5.5465,-5.652,-5.6168,-5.6771,-5.7022,-5.7022,-5.7047,0.0,-4.8284,-4.7556,0.0,0.0,0.0,0.0,0.0,0.0,0.0,0.0,0.0,0.0,0.0,0.0,0.0,0.0,0.0,0.0,0.0,0.0,0.0,0.0,0.0,0.0,0.0,0.0,0.0,0.0,0.0,0.0,0.0,0.0,0.0,0.0,0.0,0.0,0.0,0.0,0.0,-5.0451,-5.2067,-5.3683,-5.497,-5.5867,-5.4042,-5.3025,-5.2486,-5.0481,0.0,0.0,0.0,0.0,0.0,0.0,0.0,0.0,0.0,0.0,0.0,0.0,0.0,0.0,0.0,0.0,0.0,0.0,0.0,0.0,0.0,0.0,0.0,0.0,0.0,0.0,0.0,0.0,0.0,0.0,0.0,0.0,0.0,0.0,0.0,0.0,0.0,0.0,0.0,-3.605,-3.848,-3.813,-4.0564,-4.1188,0.0,0.0,0.0,0.0,0.0,0.0,0.0,0.0,0.0,-4.7431,-4.9665,-5.1473,-5.2829,-5.5591,-5.7273,-5.7926,-5.9458,-6.0563,-6.119,-6.0839,-6.0839,-6.114,-6.104,-5.883,-5.5039,-5.2302,-5.0067,-4.8134,0.0,0.0,0.0,0.0,-4.6552,-4.723,0.0,0.0,0.0,0.0,0.0,0.0,0.0,0.0,0.0,0.0,0.0,0.0,0.0,0.0,0.0,0.0,0.0,0.0,0.0,0.0,0.0,0.0,0.0,0.0,0.0,0.0,0.0,0.0,0.0,-5.3832,-5.5508,-5.6974,-5.8291,-5.9368,-5.886,-5.7184,-5.464,-5.3294,-5.1289,0.0,0.0,0.0,0.0,0.0,0.0,0.0,0.0,0.0,0.0,0.0,0.0,0.0,0.0,0.0,0.0,0.0,0.0,0.0,0.0,0.0,0.0,0.0,0.0,0.0,0.0,0.0,0.0,0.0,0.0,0.0,0.0,0.0,0.0,0.0,0.0,0.0,0.0,-3.8915,-4.1542,-4.0747,-4.4766,-4.5811,0.0,0.0,0.0,0.0,0.0,0.0,-4.6401,-4.7732,-4.9615,-5.2251,-5.4336,-5.5942,-5.7072,-5.9408,-6.0989,-6.1818,-6.2245,-6.3073,-6.4228,-6.3274,-6.3048,-6.345,-6.3023,-6.2119,-6.0638,-5.6495,-5.3884,-5.2302,-4.9791,-4.8661,-4.856,-4.9791,-5.0444,-5.0996,0.0,0.0,0.0,0.0,0.0,0.0,0.0,0.0,0.0,0.0,0.0,0.0,0.0,0.0,0.0,0.0,0.0,0.0,0.0,0.0,0.0,0.0,0.0,0.0,0.0,0.0,0.0,0.0,0.0,0.0,-5.889,-6.0864,-6.2181,-6.2839,-6.278,-6.2331,-6.1283,-5.6226,-5.4012,-5.3533,0.0,0.0,0.0,0.0,0.0,0.0,0.0,0.0,0.0,0.0,0.0,0.0,0.0,0.0,0.0,0.0,0.0,0.0,0.0,0.0,0.0,0.0,0.0,0.0,0.0,0.0,0.0,0.0,0.0,0.0,0.0,0.0,0.0,0.0,0.0,0.0,0.0,0.0,0.0,-4.4186,-4.9793,0.0,0.0,0.0,0.0,-4.9775,-4.9378,-4.9891,-5.1624,-5.3281,-5.5189,-5.7449,-5.9131,-6.0537,-6.1667,-6.2873,-6.35,-6.3576,-6.3601,-6.3651,-6.3701,-6.3099,-6.2847,-6.2873,-6.2847,-6.2772,-6.2446,-5.9081,-5.6997,-5.5792,-5.4059,-5.3683,-5.416,-5.4235,-5.4938,-5.5792,0.0,0.0,0.0,0.0,0.0,0.0,0.0,0.0,0.0,0.0,0.0,0.0,0.0,0.0,0.0,0.0,0.0,0.0,0.0,0.0,0.0,0.0,0.0,0.0,0.0,0.0,0.0,0.0,0.0,0.0,0.0,0.0,-6.3917,-6.4964,-6.4964,-6.4844,-6.4366,-6.0356,-5.7184,-5.461,-5.1887,-4.9075,0.0,0.0,0.0,0.0,0.0,0.0,0.0,0.0,0.0,0.0,0.0,0.0,0.0,0.0,0.0,0.0,0.0,0.0,0.0,0.0,0.0,0.0,0.0,0.0,0.0,0.0,0.0,0.0,0.0,0.0,0.0,0.0,0.0,0.0,0.0,0.0,0.0,-5.184,-5.5507,0.0,0.0,-5.2412,-5.2233,-5.2038,-5.3165,-5.4587,-5.6269,-5.7926,-5.9508,-6.1014,-6.232,-6.3174,-6.3576,-6.4329,-6.4731,-6.4731,-6.4731,-6.4731,-6.468,-6.3802,-6.3375,-6.3375,-6.2998,-6.2822,-6.2747,-6.1567,-6.0186,-5.873,-5.7424,-5.6846,-5.6746,-5.7097,-5.77,-5.8353,0.0,0.0,0.0,0.0,0.0,0.0,0.0,0.0,0.0,0.0,0.0,0.0,0.0,0.0,0.0,0.0,0.0,0.0,0.0,0.0,0.0,0.0,0.0,0.0,0.0,0.0,0.0,0.0,0.0,0.0,0.0,0.0,0.0,-6.5682,-6.5682,-6.5562,-6.5203,-6.3258,-6.0146,-5.6316,-5.4102,-5.1887,-4.9464,0.0,0.0,0.0,0.0,0.0,0.0,0.0,0.0,0.0,0.0,0.0,0.0,0.0,0.0,0.0,0.0,0.0,0.0,0.0,0.0,0.0,0.0,0.0,0.0,0.0,0.0,0.0,0.0,0.0,0.0,0.0,0.0,0.0,0.0,0.0,-5.5854,-5.6996,-6.0345,-6.1033,-5.6941,-5.6891,-5.704,-5.6831,-5.7974,-5.9307,-6.0588,-6.1692,-6.2621,-6.335,-6.4078,-6.4454,-6.4454,-6.5007,-6.5283,-6.5283,-6.5283,-6.5283,-6.5258,-6.4354,-6.3852,-6.3676,-6.3299,-6.2998,-6.2822,-6.2822,-6.2169,-6.109,-6.0387,-5.9885,-5.9608,-5.996,-6.0337,-6.0613,0.0,0.0,0.0,0.0,0.0,0.0,0.0,0.0,0.0,0.0,0.0,0.0,0.0,0.0,0.0,0.0,0.0,0.0,0.0,0.0,0.0,0.0,0.0,0.0,0.0,0.0,0.0,0.0,0.0,0.0,0.0,0.0,0.0,0.0,-6.5054,-6.4695,-6.4126,-6.4755,-6.281,-5.9069,-5.6406,-5.4521,-5.2845,0.0,0.0,0.0,0.0,0.0,0.0,0.0,0.0,0.0,0.0,0.0,0.0,0.0,0.0,0.0,0.0,0.0,0.0,0.0,0.0,0.0,0.0,0.0,0.0,0.0,0.0,0.0,0.0,0.0,0.0,0.0,0.0,0.0,-5.0892,-5.6799,-6.0727,-5.9365,-6.4271,-6.5984,-6.1384,-6.2651,-6.3984,-6.4456,-6.4026,-6.3952,-6.4429,-6.4479,-6.4479,-6.4479,-6.4505,-6.4505,-6.4505,-6.5057,-6.5308,-6.5308,-6.5308,-6.5308,-6.5258,-6.4705,-6.4178,-6.3676,-6.3676,-6.335,-6.2822,-6.2822,-6.2822,-6.2822,-6.2822,-6.2822,-6.2822,-6.2822,-6.2822,-6.2672,0.0,0.0,0.0,0.0,0.0,0.0,0.0,0.0,0.0,0.0,0.0,0.0,0.0,0.0,0.0,0.0,0.0,0.0,0.0,0.0,0.0,0.0,0.0,0.0,0.0,0.0,0.0,0.0,0.0,0.0,0.0,0.0,0.0,0.0,0.0,-6.5892,-6.6101,-6.5353,-6.4395,-6.3139,-5.9997,-5.7363,-5.497,0.0,0.0,0.0,0.0,0.0,0.0,0.0,0.0,0.0,0.0,0.0,0.0,0.0,0.0,0.0,0.0,0.0,0.0,0.0,0.0,0.0,0.0,0.0,0.0,0.0,0.0,0.0,0.0,0.0,0.0,0.0,0.0,-5.7694,-5.5643,-6.0255,-6.4095,-6.5028,-6.6563,-6.7198,-6.6286,-6.5379,-6.4926,-6.5078,-6.4907,-6.4731,-6.4479,-6.4856,-6.5057,-6.5057,-6.5459,-6.566,-6.566,-6.581,-6.5886,-6.5886,-6.5886,-6.5459,-6.468,-6.453,-6.3952,-6.3073,-6.3073,-6.2973,-6.2822,-6.2822,-6.2822,-6.2822,-6.2822,-6.2822,-6.2822,-6.2822,-6.2822,-6.2672,0.0,0.0,0.0,0.0,0.0,0.0,0.0,0.0,0.0,0.0,0.0,0.0,0.0,0.0,0.0,0.0,0.0,0.0,0.0,0.0,0.0,0.0,0.0,0.0,0.0,0.0,0.0,0.0,0.0,0.0,0.0,0.0,0.0,0.0,0.0,0.0,-6.658,-6.634,-6.5951,-6.5293,-6.3647,-6.1403,-5.868,-5.5059,-5.3519,-5.2947,-5.0216,-5.052,-5.1735,-4.8619,0.0,0.0,0.0,0.0,0.0,0.0,0.0,0.0,0.0,0.0,0.0,0.0,0.0,0.0,0.0,0.0,0.0,0.0,0.0,0.0,0.0,0.0,0.0,0.0,-6.0132,-6.2807,-6.203,-6.5436,-6.806,-6.8167,-6.8413,-6.8494,-6.8119,-6.6628,-6.6136,-6.722,-6.6246,-6.5883,-6.6509,-6.5943,-6.5634,-6.5634,-6.5936,-6.6112,-6.6112,-6.6112,-6.6112,-6.6112,-6.5886,-6.5559,-6.5132,-6.468,-6.4128,0.0,-6.3274,-6.3048,-6.2822,-6.2822,-6.2822,0.0,0.0,0.0,0.0,0.0,-6.2546,-6.2044,0.0,0.0,0.0,0.0,0.0,0.0,0.0,0.0,0.0,0.0,0.0,0.0,0.0,0.0,0.0,0.0,0.0,0.0,0.0,0.0,0.0,0.0,0.0,0.0,0.0,0.0,0.0,0.0,0.0,0.0,0.0,0.0,0.0,0.0,0.0,0.0,0.0,-6.7478,-6.7268,-6.6191,-6.6819,-6.5533,-6.278,-5.8979,-5.7918,-5.7971,-5.469,-5.3068,-5.2392,-5.1567,0.0,0.0,0.0,0.0,0.0,0.0,0.0,0.0,0.0,0.0,0.0,0.0,0.0,0.0,0.0,0.0,0.0,0.0,0.0,0.0,0.0,0.0,0.0,0.0,-6.4969,-6.7081,-6.8619,-7.0857,-7.1464,-6.9139,-6.9407,-6.9357,-6.7995,-6.694,-6.7383,-6.9973,-6.7725,-6.7137,-6.9218,0.0,0.0,0.0,0.0,-6.6112,-6.6112,-6.6112,-6.6112,-6.6112,-6.5609,-6.5584,-6.5886,-6.4982,-6.4479,-6.4354,-6.3902,-6.34,-6.2923,-6.2847,-6.2822,-6.2822,-6.2822,-6.2822,-6.2822,-6.2822,-6.2169,-6.1266,0.0,0.0,0.0,0.0,0.0,0.0,0.0,0.0,0.0,0.0,0.0,0.0,0.0,0.0,0.0,0.0,0.0,0.0,0.0,0.0,0.0,0.0,0.0,0.0,0.0,0.0,0.0,0.0,0.0,0.0,0.0,0.0,0.0,0.0,0.0,0.0,0.0,0.0,-6.7508,-6.6849,-6.7508,-6.6191,-6.3558,-6.1224,-6.0294,-5.9869,-5.6705,-5.7733,-5.9915,-5.5719,-5.4744,-5.4669,-5.1122,0.0,0.0,0.0,0.0,0.0,0.0,0.0,0.0,0.0,0.0,0.0,0.0,0.0,0.0,0.0,0.0,0.0,0.0,0.0,0.0,-6.6969,-6.9641,-7.1142,-7.0975,-7.1148,-7.0312,-6.7714,-6.7851,-6.8346,-6.8396,-6.7869,-6.8402,-7.0631,-6.8339,-6.7571,-6.9244,-6.7315,0.0,-6.6112,-6.6112,-6.6112,-6.6112,-6.6112,-6.6112,-6.6112,0.0,0.0,-6.4806,-6.5032,-6.4655,-6.3827,-6.3726,-6.3626,-6.3475,-6.3023,-6.2822,-6.2822,-6.2822,-6.2822,-6.2822,-6.2822,-6.2395,-6.1793,0.0,0.0,0.0,0.0,0.0,0.0,0.0,0.0,0.0,0.0,0.0,0.0,0.0,0.0,0.0,0.0,0.0,0.0,0.0,0.0,0.0,0.0,0.0,0.0,0.0,0.0,0.0,0.0,0.0,0.0,0.0,0.0,0.0,0.0,0.0,0.0,0.0,0.0,0.0,-6.655,-6.7208,-6.6281,-6.4395,-6.3438,-6.2608,-6.1716,-5.9795,-5.9948,-6.0568,-5.8258,-5.6888,-5.5877,-5.4009,-5.1061,-4.7818,0.0,0.0,0.0,0.0,0.0,0.0,0.0,0.0,0.0,0.0,0.0,0.0,0.0,0.0,-5.877,0.0,0.0,-6.7611,-7.1571,-7.1397,-7.0803,-7.0772,-6.9758,-6.8595,-6.7542,-6.7643,-6.812,-6.8949,-6.8045,-6.8402,-7.0788,-6.8236,-6.7494,-6.9557,-6.7384,-6.6237,-6.6538,-6.6538,-6.6538,-6.6538,-6.6538,-6.6538,-6.6538,-6.5961,-6.5559,-6.5283,-6.4731,-6.4329,-6.4053,-6.35,-6.3249,-6.3249,-6.2948,-6.2822,-6.2797,-6.2521,-6.2421,-6.2395,-6.2094,-6.1642,-6.109,0.0,0.0,0.0,0.0,0.0,0.0,0.0,0.0,0.0,0.0,0.0,0.0,0.0,0.0,0.0,0.0,0.0,0.0,0.0,0.0,0.0,0.0,0.0,0.0,0.0,0.0,0.0,0.0,0.0,0.0,0.0,0.0,0.0,0.0,0.0,0.0,0.0,0.0,0.0,0.0,-6.6879,-6.6191,-6.5024,-6.4874,-6.4186,-6.3109,-6.2091,-6.0266,-5.8421,-5.8857,-5.7142,-5.491,-5.5603,-5.3958,-5.1169,-4.7983,-4.6698,0.0,0.0,0.0,0.0,0.0,0.0,0.0,0.0,0.0,-5.6176,-6.0156,-6.2523,-6.5314,-7.0005,-7.1151,-7.2187,-7.4602,-7.2277,-7.0028,-6.9934,-6.8254,-6.7091,-6.7442,-6.7668,-6.8196,-6.92,-6.797,-6.8224,-7.0788,-6.816,-6.746,-6.9978,-6.7742,-6.6564,-6.6815,-6.6915,-6.6965,-6.6965,-6.6865,-6.6865,-6.6965,-6.5936,-6.5634,-6.5911,-6.4605,-6.4178,-6.4404,-6.3425,-6.2923,-6.2822,-6.2822,-6.2772,-6.2621,-6.2069,-6.1768,-6.1642,-6.1316,-6.0738,-6.0085,0.0,0.0,0.0,0.0,0.0,0.0,0.0,0.0,0.0,0.0,0.0,0.0,0.0,0.0,0.0,0.0,0.0,0.0,0.0,0.0,0.0,0.0,0.0,0.0,0.0,0.0,0.0,0.0,0.0,0.0,0.0,0.0,0.0,0.0,0.0,0.0,0.0,0.0,0.0,0.0,0.0,0.0,-6.4964,-6.4336,-6.4006,-6.3588,-6.1164,-5.8291,-5.5769,-5.635,-5.521,-5.3762,-5.554,-5.51,-5.3324,-5.0554,0.0,-4.6082,-4.5035,-4.6322,-4.8656,-5.1558,-5.3025,-5.5748,0.0,0.0,-6.3468,-6.9903,-7.0819,-7.1164,-7.3411,-7.5933,-7.6814,-7.3828,-7.356,-7.2696,-6.9842,-6.8023,-6.6815,-6.6363,-6.7191,-6.8045,-6.8648,-6.8095,-6.8631,-7.0815,-6.8902,-6.83,-7.0004,-6.8508,-6.7191,-6.6237,-6.6714,-6.6965,-6.6965,-6.6463,-6.6463,-6.6965,-6.6338,-6.5785,-6.5383,-6.5183,-6.4881,-6.4429,-6.3852,-6.3299,-6.2822,-6.2822,-6.2546,-6.2044,-6.1492,-6.0964,-6.0563,-6.1014,-6.0512,-5.9583,0.0,0.0,0.0,0.0,0.0,0.0,0.0,0.0,0.0,0.0,0.0,0.0,0.0,0.0,0.0,0.0,0.0,0.0,0.0,0.0,0.0,0.0,0.0,0.0,0.0,0.0,0.0,0.0,0.0,0.0,0.0,0.0,0.0,0.0,0.0,0.0,0.0,0.0,0.0,0.0,0.0,0.0,-6.3767,-6.272,-6.1613,-6.0386,-5.889,-5.6226,0.0,0.0,-5.2785,-5.1828,-5.3803,-5.3533,-5.2037,-4.9763,-4.8865,0.0,-4.9643,-5.1079,0.0,0.0,-5.9159,-6.2462,-6.5504,-6.7036,-6.845,-7.0804,-7.2518,-7.3807,-7.4749,-7.482,-7.4269,0.0,-7.1141,-6.9567,-6.8134,-6.6813,-6.5785,-6.5233,-6.5559,-6.6338,-6.7543,-6.7141,-6.7374,-6.8604,-6.7486,-6.7273,-6.8245,-6.7663,-6.7241,-6.7091,-6.7643,-6.7769,-6.7467,-6.7216,-6.7066,-6.6965,-6.6388,-6.5986,-6.5735,-6.5107,-6.4329,-6.35,-6.3274,-6.3048,-6.2797,-6.2471,-6.222,-6.1918,-6.1014,-6.0337,-5.9834,-5.9784,-5.9458,-5.8956,0.0,0.0,0.0,0.0,0.0,0.0,0.0,0.0,0.0,0.0,0.0,0.0,0.0,0.0,0.0,0.0,0.0,0.0,0.0,0.0,0.0,0.0,0.0,0.0,0.0,0.0,0.0,0.0,0.0,0.0,0.0,0.0,0.0,0.0,0.0,0.0,0.0,0.0,0.0,0.0,0.0,0.0,-6.263,-6.0924,-5.871,-5.6406,-5.5718,-5.3114,0.0,0.0,-4.8895,-4.8163,-5.0186,-5.0488,-4.9927,-4.8729,-4.9385,-5.0853,-5.2695,0.0,0.0,-6.0206,-6.4397,-6.773,-6.7745,-6.9588,-7.1325,-7.1741,-7.2939,-7.4086,-7.4552,-7.3257,0.0,-7.0631,-6.8871,-6.7415,-6.6625,-6.5559,-6.463,-6.4078,-6.3475,-6.3751,-6.5434,-6.5634,-6.5961,-6.6689,-6.6338,-6.6438,-6.7166,-6.7342,-6.7543,-6.7794,-6.8196,-6.8196,-6.7794,-6.7493,-6.7216,-6.6965,-6.6237,-6.5886,-6.5835,-6.4756,-6.3726,-6.2822,-6.2822,-6.2822,-6.2797,-6.2245,-6.1818,-6.1466,-6.0638,-5.9809,-5.9006,-5.8629,-5.8403,-5.8127,0.0,0.0,0.0,0.0,0.0,0.0,0.0,0.0,0.0,0.0,0.0,0.0,0.0,0.0,0.0,0.0,0.0,0.0,0.0,0.0,0.0,0.0,0.0,0.0,0.0,0.0,0.0,0.0,0.0,0.0,0.0,0.0,0.0,0.0,0.0,0.0,0.0,0.0,0.0,0.0,0.0,0.0,-6.1852,-5.9219,-5.5777,-5.2306,-5.1618,0.0,0.0,0.0,-4.2731,-4.2037,-4.4266,-4.6094,0.0,-4.8448,-4.9852,0.0,0.0,0.0,-6.0086,-6.4665,-6.7676,-7.0162,-7.2702,-7.1945,-7.1792,-7.5185,-7.3446,-7.1582,-7.2805,-7.2858,-7.1391,-6.6992,-6.8016,-6.845,-6.5748,-6.4429,-6.3525,-6.2948,-6.0964,-6.0311,0.0,-6.3601,-6.4982,-6.6061,-6.6112,-6.6589,-6.7719,-6.8296,-6.8346,-6.7819,-6.7819,-6.7819,-6.7794,-6.6714,-6.6438,-6.6965,-6.5835,-6.5308,-6.5283,-6.4203,-6.34,-6.2822,-6.2822,-6.2822,-6.2797,-6.2245,-6.1366,-6.0362,-6.0337,-5.9357,-5.7951,-5.7926,-5.7575,-5.6997,0.0,0.0,0.0,0.0,0.0,0.0,0.0,0.0,0.0,0.0,0.0,0.0,0.0,0.0,0.0,0.0,0.0,0.0,0.0,0.0,0.0,0.0,0.0,0.0,0.0,0.0,0.0,0.0,0.0,0.0,0.0,0.0,0.0,0.0,0.0,0.0,0.0,0.0,0.0,0.0,0.0,0.0,-6.0266,-5.5867,-5.2276,-4.9134,0.0,0.0,0.0,0.0,0.0,0.0,-3.9345,0.0,0.0,-4.6061,-4.9369,-5.2725,0.0,0.0,-6.4517,-6.8152,-7.0973,-7.2876,-7.2885,-7.2765,-7.2332,-7.1383,-6.9334,-6.723,-6.5447,-6.481,-6.4034,-6.2487,-6.3828,-6.4989,-6.4823,-6.4756,-6.3726,-6.0939,-6.1266,0.0,0.0,0.0,0.0,-6.4881,-6.5358,-6.5735,-6.6112,-6.7367,-6.7995,-6.7819,-6.8145,-6.817,-6.7794,-6.7066,-6.6589,-6.6388,-6.5634,-6.4931,-6.4228,-6.3852,-6.3375,-6.2822,-6.2446,-6.2295,-6.2195,-6.0864,-6.0337,-6.0211,-5.9131,-5.8378,-5.7801,-5.7047,-5.642,-5.5917,0.0,0.0,0.0,0.0,0.0,0.0,0.0,0.0,0.0,0.0,0.0,0.0,0.0,0.0,0.0,0.0,0.0,0.0,0.0,0.0,0.0,0.0,0.0,0.0,0.0,0.0,0.0,0.0,0.0,0.0,0.0,0.0,0.0,0.0,0.0,0.0,0.0,0.0,0.0,0.0,0.0,0.0,-5.5388,-5.105,-4.7553,0.0,0.0,0.0,0.0,0.0,0.0,0.0,0.0,-3.9199,-4.2536,-4.6499,-5.0661,-5.5149,0.0,-6.4934,-6.8466,-7.158,-7.3728,-7.4517,-7.2729,-7.2088,-7.089,-6.759,-6.5208,-6.2847,-5.9935,-5.8303,-5.765,-5.8428,-5.9784,-6.1416,-6.3324,-6.3726,-6.3048,-6.0939,-6.124,0.0,0.0,0.0,0.0,-6.4028,-6.4881,-6.5459,-6.586,-6.7292,-6.8196,-6.8396,-6.8346,-6.817,-6.7794,-6.7041,-6.6287,-6.5509,-6.5157,-6.4429,-6.3375,-6.3375,-6.3174,-6.2797,-6.2245,-6.1994,-6.1868,-6.0186,-5.9608,-5.9633,-5.8378,-5.7524,-5.6947,-5.642,-5.5616,-5.4787,0.0,0.0,0.0,0.0,0.0,0.0,0.0,0.0,0.0,0.0,0.0,0.0,0.0,0.0,0.0,0.0,0.0,0.0,0.0,0.0,0.0,0.0,0.0,0.0,0.0,-4.9314,-5.0255,0.0,0.0,0.0,0.0,0.0,0.0,0.0,0.0,0.0,0.0,0.0,0.0,0.0,0.0,0.0,-4.7878,-4.5113,0.0,0.0,0.0,0.0,0.0,0.0,0.0,0.0,0.0,0.0,-4.7357,-4.9799,-5.3832,-5.874,-6.4665,-6.8642,-7.1748,-7.4683,-7.5535,-7.4933,-7.2335,-6.9958,-6.7442,-6.4153,-6.1165,-5.8453,0.0,0.0,-5.2678,-5.4863,-5.6319,-5.8328,-6.1667,-6.1743,-6.1793,0.0,0.0,0.0,0.0,0.0,0.0,-6.3651,0.0,-6.576,-6.6865,-6.7995,-6.8848,-6.9285,-6.8371,-6.7794,-6.7794,-6.6639,-6.5534,-6.4454,-6.4429,-6.3877,-6.2822,-6.2822,-6.2822,-6.2747,-6.2195,-6.1943,-6.1743,-6.0085,-5.9131,-5.8629,-5.8027,-5.6846,-5.5491,-5.5968,-5.5089,-5.3708,0.0,0.0,0.0,0.0,0.0,0.0,0.0,0.0,0.0,0.0,0.0,0.0,0.0,0.0,0.0,0.0,0.0,0.0,0.0,0.0,0.0,0.0,0.0,0.0,0.0,0.0,0.0,0.0,0.0,0.0,0.0,0.0,0.0,0.0,0.0,0.0,0.0,0.0,0.0,0.0,0.0,0.0,-4.6326,0.0,0.0,0.0,0.0,0.0,0.0,0.0,0.0,0.0,0.0,0.0,-4.9708,-5.4071,0.0,-6.3318,-6.8315,-7.1609,-7.3715,-7.4278,-7.3322,-7.174,-6.986,-6.7122,-6.4128,-6.1165,-5.7399,-5.3432,0.0,0.0,0.0,-5.2653,-5.6269,0.0,-6.3375,-6.4429,0.0,0.0,0.0,-6.35,-6.2697,-6.3224,0.0,0.0,-6.5132,-6.5584,-6.6287,-6.7794,-6.8698,-6.8823,-6.817,-6.7794,-6.7794,-6.6262,-6.5157,-6.4454,-6.4078,-6.3525,-6.2822,-6.2822,-6.2596,-6.2195,-6.1642,-6.0914,-6.0035,-5.8805,-5.8227,-5.8001,-5.7022,-5.6369,-5.5917,-5.5239,-5.4436,-5.3658,0.0,0.0,0.0,0.0,0.0,0.0,0.0,0.0,0.0,0.0,0.0,0.0,0.0,0.0,0.0,0.0,0.0,0.0,0.0,0.0,0.0,0.0,0.0,0.0,0.0,0.0,0.0,0.0,0.0,0.0,0.0,0.0,0.0,0.0,0.0,0.0,0.0,0.0,0.0,0.0,0.0,0.0,0.0,0.0,0.0,0.0,0.0,0.0,0.0,0.0,0.0,-4.4641,-4.7311,-5.116,-5.547,-5.9742,0.0,-6.7292,-7.04,-7.3457,-7.5284,-7.3541,-7.2445,-7.0789,-6.6929,-6.3877,-6.0512,-5.5767,-5.2051,0.0,0.0,0.0,0.0,0.0,0.0,0.0,-6.2446,-6.4203,-6.4756,0.0,-6.5157,0.0,-6.4379,-6.4831,-6.5434,0.0,-6.5785,-6.5886,-6.6463,-6.7844,-6.8622,-6.8622,-6.8095,-6.7442,-6.6714,-6.576,-6.4906,-6.4128,-6.3827,-6.34,-6.2822,-6.2571,-6.2295,-6.1969,0.0,-6.0311,-5.9408,-5.8353,-5.775,-5.7399,-5.6294,-5.5691,-5.539,-5.4511,-5.3833,-5.3331,0.0,0.0,0.0,0.0,0.0,0.0,0.0,0.0,0.0,0.0,0.0,0.0,0.0,0.0,0.0,0.0,0.0,0.0,0.0,0.0,0.0,0.0,0.0,0.0,0.0,0.0,0.0,0.0,0.0,0.0,0.0,0.0,0.0,0.0,0.0,0.0,0.0,0.0,0.0,0.0,0.0,0.0,0.0,0.0,0.0,0.0,0.0,0.0,0.0,0.0,-4.6661,-4.9687,-5.3399,-5.8006,-6.266,-6.5862,-6.8336,-7.0407,-7.1708,-7.4192,-7.5755,-7.2605,-7.1814,-7.0219,-6.3944,-6.0437,-5.6545,-4.964,0.0,0.0,-4.1326,0.0,-4.4016,-4.7556,0.0,-5.5616,-6.0788,-6.2898,-6.4304,-6.5383,-6.6513,-6.699,-6.6488,-6.6388,-6.6538,-6.7041,-6.6488,-6.6388,-6.7041,-6.7995,-6.8472,-6.8396,-6.7869,-6.684,-6.5308,-6.5157,-6.4605,-6.3701,-6.3626,-6.3274,-6.2697,-6.222,-6.1918,-6.1718,0.0,0.0,-5.9207,-5.8202,-5.7449,-5.6821,-5.5792,-5.5039,-5.4486,-5.3909,-5.3381,-5.2929,0.0,0.0,0.0,0.0,0.0,0.0,0.0,0.0,0.0,0.0,-2.8772,0.0,0.0,0.0,0.0,0.0,0.0,0.0,0.0,0.0,0.0,0.0,0.0,0.0,0.0,0.0,0.0,0.0,0.0,0.0,0.0,0.0,0.0,0.0,0.0,0.0,0.0,0.0,0.0,0.0,0.0,0.0,0.0,0.0,0.0,0.0,0.0,0.0,0.0,0.0,-5.1977,-5.5998,-5.8887,-6.3023,-6.7328,-7.0051,-7.0746,-7.106,-7.3395,-7.3039,-7.2101,-7.1867,-6.9179,-6.5563,-6.1672,-5.6947,0.0,0.0,0.0,-4.0802,-3.8944,0.0,0.0,-4.8535,0.0,0.0,0.0,0.0,-6.5434,0.0,0.0,0.0,0.0,0.0,0.0,0.0,0.0,0.0,-6.7593,-6.7844,-6.7744,-6.7267,-6.6714,-6.6036,-6.5308,-6.4404,-6.3877,-6.3676,-6.3199,-6.2697,-6.2144,-6.2044,-6.1492,-6.0563,-5.9935,0.0,-5.8127,-5.7449,-5.6846,-5.6294,-5.5641,-5.5039,-5.4486,-5.3909,-5.3381,-5.2929,0.0,0.0,0.0,0.0,0.0,0.0,0.0,0.0,0.0,0.0,-3.1685,-3.2264,0.0,0.0,0.0,0.0,0.0,0.0,0.0,0.0,0.0,0.0,0.0,0.0,0.0,0.0,0.0,0.0,0.0,0.0,0.0,0.0,0.0,0.0,0.0,0.0,0.0,0.0,0.0,0.0,0.0,0.0,0.0,0.0,0.0,0.0,0.0,0.0,0.0,0.0,-5.018,-5.5907,-6.1416,-6.5403,-6.8364,-6.9851,-7.0316,-7.0398,-7.107,-7.1365,-7.1255,-7.0359,-6.7441,-6.3626,-5.8855,0.0,0.0,0.0,0.0,-3.8015,-3.6935,0.0,0.0,0.0,0.0,0.0,0.0,0.0,0.0,0.0,0.0,0.0,0.0,0.0,0.0,0.0,0.0,0.0,-6.7342,-6.7367,-6.7116,-6.6538,-6.5986,-6.5283,-6.4479,-6.3952,-6.3525,-6.3249,-6.2948,-6.2546,-6.1994,-6.1718,-6.1115,-6.0261,-5.9458,0.0,-5.7851,-5.7273,-5.6696,-5.6118,-5.529,-5.4787,-5.4461,-5.3607,-5.313,-5.2929,0.0,0.0,0.0,0.0,0.0,0.0,0.0,-2.7055,-2.857,-3.2703,-3.4134,-3.4477,-3.3773,-3.4567,-3.516,0.0,0.0,0.0,0.0,0.0,0.0,0.0,0.0,0.0,0.0,0.0,0.0,0.0,0.0,0.0,0.0,0.0,0.0,0.0,0.0,0.0,0.0,0.0,0.0,0.0,0.0,0.0,0.0,0.0,0.0,0.0,0.0,0.0,0.0,0.0,-4.6067,-5.1955,-5.9141,-6.391,-6.6918,-6.7479,-6.816,-6.8693,-6.8357,-6.9485,-7.0395,-6.8688,-6.5911,-6.2019,-5.6043,-5.0393,0.0,0.0,0.0,0.0,0.0,0.0,0.0,0.0,0.0,0.0,0.0,0.0,0.0,0.0,0.0,0.0,0.0,0.0,0.0,0.0,0.0,0.0,0.0,-6.6865,-6.6538,-6.5961,-6.5283,-6.453,-6.3701,-6.3576,-6.3274,-6.2822,-6.2822,-6.2471,-6.1818,-6.1391,-6.0814,-6.0085,-5.9131,0.0,0.0,-5.7273,-5.6696,-5.6093,-5.4988,-5.4561,-5.4436,-5.3331,-5.2929,-5.2929,0.0,0.0,0.0,0.0,0.0,0.0,0.0,-2.6827,-2.8656,-3.2907,-3.3413,-3.3864,-3.5145,-3.6413,-3.6447,0.0,0.0,0.0,0.0,0.0,0.0,0.0,0.0,0.0,0.0,0.0,0.0,0.0,0.0,0.0,0.0,0.0,0.0,0.0,0.0,0.0,0.0,0.0,0.0,0.0,0.0,0.0,0.0,0.0,0.0,0.0,0.0,0.0,0.0,0.0,0.0,-4.4011,-4.8311,-5.5669,-6.2872,-6.3448,0.0,0.0,-6.7742,-6.7847,-6.7377,-6.7203,-6.3877,-5.9232,-5.3683,0.0,0.0,0.0,0.0,-3.5558,0.0,0.0,0.0,0.0,0.0,0.0,0.0,0.0,0.0,0.0,0.0,0.0,0.0,0.0,0.0,0.0,0.0,0.0,0.0,-6.6488,-6.5936,-6.5383,-6.4379,-6.3802,-6.3701,-6.3174,-6.2873,-6.2822,-6.2822,-6.227,-6.1266,-6.1215,-6.0588,-5.9533,-5.893,0.0,0.0,-5.7273,-5.6696,-5.6093,-5.4988,-5.4561,-5.4436,-5.3331,-5.2929,-5.2929,0.0,0.0,0.0,0.0,0.0,0.0,0.0,-2.7198,-2.9299,-3.3537,-3.427,-3.4864,-3.5992,-3.6178,-3.5609,0.0,0.0,0.0,0.0,0.0,0.0,0.0,0.0,0.0,0.0,0.0,0.0,0.0,0.0,0.0,0.0,0.0,0.0,0.0,0.0,0.0,0.0,0.0,0.0,0.0,0.0,0.0,0.0,0.0,0.0,0.0,0.0,0.0,0.0,0.0,0.0,0.0,-3.9834,-4.4467,0.0,0.0,-5.8279,-6.0428,-6.3632,-6.5477,-6.6388,-6.6036,-6.2621,-5.7976,-5.2779,0.0,0.0,-3.6737,-3.5132,-3.455,-3.455,0.0,0.0,0.0,0.0,0.0,0.0,0.0,0.0,0.0,0.0,0.0,0.0,0.0,0.0,0.0,0.0,0.0,0.0,-6.6287,-6.5926,-6.6594,-6.4691,-6.4133,-6.4913,-6.3549,-6.2672,-6.2345,-6.2345,-6.1743,-6.0638,-6.0311,-5.9759,-5.8981,-5.8077,0.0,0.0,-5.6771,-5.6219,-5.5641,-5.4863,-5.4361,-5.3959,-5.3206,-5.2929,-5.2929,0.0,0.0,0.0,0.0,0.0,0.0,-2.5572,-2.6836,-2.8901,-3.2503,-3.3423,-3.4185,-3.5159,-3.4335,-3.3384,-3.2642,0.0,0.0,0.0,0.0,0.0,0.0,0.0,0.0,0.0,0.0,-3.277,-3.3157,-3.277,0.0,0.0,0.0,0.0,0.0,0.0,0.0,0.0,0.0,0.0,0.0,0.0,0.0,0.0,0.0,0.0,0.0,0.0,0.0,0.0,0.0,0.0,0.0,0.0,0.0,0.0,0.0,-5.2521,-5.5817,-5.9533,-6.2672,-6.4756,-6.4203,-6.0613,-5.5993,0.0,0.0,0.0,-3.5984,-3.455,-3.3847,-3.3696,0.0,0.0,0.0,0.0,0.0,0.0,0.0,0.0,0.0,0.0,0.0,0.0,0.0,0.0,0.0,0.0,0.0,0.0,-6.5735,-6.5409,-6.6559,-6.4576,-6.3935,-6.487,-6.3351,-6.2395,-6.1994,-6.1843,-6.1266,-6.0311,-5.9759,-5.9207,-5.8679,0.0,0.0,0.0,-5.6369,-5.5792,-5.5089,-5.4536,-5.4059,-5.3632,-5.313,-5.2929,-5.2929,0.0,0.0,0.0,0.0,0.0,0.0,0.0,-2.5468,-2.6981,-2.9084,-2.9993,-3.094,-3.2309,-3.0652,-2.9695,-3.0391,0.0,0.0,0.0,0.0,0.0,0.0,0.0,0.0,0.0,0.0,-3.2128,-3.1204,-3.2128,-3.2128,-3.1278,0.0,0.0,0.0,0.0,0.0,0.0,0.0,0.0,0.0,0.0,0.0,0.0,0.0,0.0,0.0,0.0,0.0,0.0,0.0,0.0,0.0,0.0,0.0,0.0,0.0,-4.7807,-5.2879,-5.6194,-5.9508,-6.1918,-6.1366,-5.7449,-5.2729,0.0,0.0,0.0,0.0,-3.4299,-3.3746,0.0,0.0,0.0,0.0,0.0,0.0,0.0,0.0,0.0,0.0,0.0,0.0,0.0,0.0,0.0,0.0,0.0,0.0,0.0,0.0,-6.3952,-6.4538,-6.34,-6.2847,-6.2822,-6.2295,-6.2019,-6.1994,-6.1441,-6.0889,-6.0311,-5.9759,-5.9207,0.0,0.0,0.0,0.0,-5.6219,-5.5566,-5.4511,-5.3934,-5.3708,-5.3632,-5.313,-5.2929,-5.2929,0.0,0.0,0.0,0.0,0.0,0.0,0.0,-2.4469,-2.6072,-2.7712,-2.8514,-2.9256,-3.0199,-2.9342,-2.8598,-2.833,0.0,0.0,0.0,0.0,0.0,0.0,0.0,0.0,0.0,0.0,-3.2451,-3.2164,-3.3087,-3.3394,-3.3122,-3.4442,-3.5034,0.0,0.0,0.0,0.0,0.0,0.0,0.0,0.0,0.0,0.0,0.0,0.0,0.0,0.0,0.0,0.0,0.0,0.0,0.0,0.0,0.0,0.0,0.0,0.0,0.0,-4.9012,-5.2126,-5.4361,-5.303,-5.0946,-4.8284,-4.4769,0.0,0.0,0.0,0.0,0.0,0.0,0.0,0.0,0.0,0.0,0.0,0.0,0.0,0.0,0.0,0.0,0.0,0.0,0.0,0.0,0.0,0.0,0.0,0.0,0.0,-6.4361,-6.5987,-6.3885,-6.3245,-6.4272,-6.2767,-6.1617,-6.0864,-6.0688,-6.0111,-5.9207,-5.8654,0.0,0.0,0.0,0.0,0.0,-5.5641,-5.4988,-5.3959,-5.3758,-5.3482,-5.3155,-5.298,-5.2929,-5.2929,0.0,0.0,0.0,0.0,0.0,0.0,0.0,-2.2937,-2.4047,-2.4974,-2.567,-2.6446,-2.7418,-2.6746,-2.6329,-2.6532,0.0,0.0,0.0,0.0,0.0,0.0,0.0,0.0,-2.9692,-3.1158,-3.2215,-3.2779,-3.3591,-3.4157,-3.4387,-3.5292,-3.5759,-3.5878,-3.5878,0.0,0.0,0.0,0.0,0.0,0.0,0.0,-3.2947,0.0,0.0,0.0,0.0,0.0,0.0,0.0,0.0,0.0,0.0,0.0,0.0,0.0,-3.805,0.0,0.0,-4.6728,-4.8837,-4.7807,-4.6225,0.0,0.0,0.0,0.0,0.0,0.0,0.0,0.0,0.0,0.0,0.0,0.0,0.0,0.0,0.0,0.0,0.0,0.0,0.0,0.0,0.0,0.0,0.0,0.0,0.0,0.0,0.0,-6.395,-6.5976,-6.3754,-6.294,-6.3882,-6.2179,-6.0914,-6.001,-5.9809,-5.9131,-5.8077,-5.7499,0.0,0.0,0.0,0.0,0.0,-5.614,-5.5417,-5.3545,-5.4815,-5.4363,-5.3042,-5.4325,-5.4013,-5.2998,0.0,0.0,0.0,0.0,0.0,0.0,0.0,0.0,0.0,0.0,-2.2132,-2.3069,-2.4294,-2.3335,-2.3307,0.0,0.0,0.0,0.0,0.0,0.0,0.0,0.0,0.0,-2.9854,-3.056,-3.1634,-3.3115,-3.3816,-3.4519,-3.5189,-3.5948,-3.6406,-3.6567,-3.6596,-3.6207,0.0,0.0,0.0,0.0,0.0,-3.3802,0.0,0.0,0.0,0.0,0.0,0.0,0.0,0.0,0.0,0.0,0.0,0.0,0.0,0.0,0.0,0.0,0.0,0.0,0.0,0.0,0.0,0.0,0.0,0.0,0.0,0.0,0.0,0.0,0.0,0.0,0.0,0.0,0.0,0.0,0.0,0.0,0.0,0.0,0.0,0.0,0.0,0.0,0.0,0.0,0.0,0.0,0.0,0.0,-6.2879,-6.4843,-6.3069,-6.2084,-6.2109,-6.1104,-6.0349,-5.987,-5.9313,-5.8478,-5.7291,-5.6785,0.0,0.0,0.0,0.0,0.0,-5.7459,-5.6571,-5.3427,-5.6726,-5.5906,-5.3316,-5.6596,-5.5709,-5.311,0.0,0.0,0.0,0.0,0.0,0.0,0.0,0.0,0.0,0.0,-2.2132,-2.2665,-2.2828,-2.2685,0.0,0.0,0.0,0.0,0.0,0.0,0.0,0.0,0.0,0.0,-2.8859,-3.0792,-3.2229,-3.3115,-3.4982,-3.6234,-3.6887,-3.8549,-3.8603,-3.7225,-3.7704,-3.7045,0.0,0.0,0.0,0.0,-3.4476,-3.3973,0.0,0.0,0.0,0.0,-3.2522,-3.2912,0.0,0.0,0.0,0.0,0.0,0.0,0.0,0.0,-3.5433,-3.5809,-3.652,0.0,-3.8183,0.0,0.0,0.0,0.0,0.0,0.0,0.0,0.0,0.0,0.0,0.0,0.0,0.0,0.0,0.0,0.0,0.0,0.0,0.0,0.0,0.0,0.0,0.0,0.0,0.0,0.0,0.0,0.0,0.0,-6.27,-6.4186,-6.2862,-6.2398,-6.2944,-6.3585,-6.3722,-6.31,-6.2533,-6.1571,-6.0384,-6.0249,0.0,0.0,0.0,0.0,-5.7656,-5.8437,-5.7239,-5.5049,-5.7176,-5.5906,-5.3179,-5.5247,-5.4675,-5.2998,0.0,0.0,0.0,0.0,0.0,0.0,0.0,0.0,0.0,0.0,0.0,0.0,0.0,0.0,0.0,0.0,0.0,0.0,0.0,0.0,0.0,0.0,0.0,-2.8492,-2.9311,-3.0605,-3.2072,-3.3739,-3.5291,-3.6985,-3.8811,-4.0217,-3.9948,-3.8302,-3.7434,-3.6477,-3.5457,-3.4905,-3.4739,-3.4806,-3.4739,0.0,0.0,0.0,0.0,0.0,-3.3602,-3.3973,0.0,-3.4893,-3.5748,-3.6417,0.0,0.0,0.0,0.0,-3.5722,-3.5796,-3.5638,-3.5749,-3.5703,-3.4839,-3.4863,-3.482,0.0,0.0,0.0,0.0,0.0,0.0,0.0,0.0,0.0,0.0,0.0,0.0,0.0,0.0,0.0,0.0,0.0,0.0,0.0,0.0,0.0,0.0,0.0,0.0,0.0,0.0,-6.4049,-6.5389,-6.4528,-6.4045,-6.4069,-6.4215,-6.3831,-6.2922,-6.2619,-6.1681,-6.0221,-6.0221,-5.9725,0.0,0.0,0.0,-5.8538,-6.0137,-5.9102,-5.6828,-5.938,-5.8257,-5.5538,-5.804,-5.6828,-5.4231,0.0,0.0,0.0,0.0,0.0,0.0,0.0,0.0,0.0,0.0,0.0,0.0,0.0,0.0,0.0,0.0,0.0,0.0,0.0,0.0,0.0,0.0,0.0,-2.8707,-3.0413,-3.0477,-3.1805,-3.4503,-3.5459,-3.7464,-4.0427,-4.1474,-4.1115,-3.9469,-3.6926,-3.5699,-3.5519,-3.5359,-3.4872,-3.4279,-3.5001,0.0,0.0,0.0,0.0,0.0,0.0,0.0,0.0,-3.5885,-3.6327,-3.6327,-3.6327,0.0,0.0,0.0,0.0,0.0,-3.6306,-3.622,-3.5995,-3.5562,-3.5562,-3.544,0.0,0.0,0.0,0.0,0.0,0.0,0.0,0.0,0.0,0.0,0.0,0.0,0.0,0.0,0.0,0.0,0.0,0.0,0.0,0.0,0.0,0.0,0.0,0.0,0.0,0.0,0.0,-6.6634,-6.6001,-6.5507,-6.5251,-6.433,-6.3269,-6.2124,-6.1974,-6.1119,-5.9591,-5.9591,-5.9283,0.0,0.0,0.0,-5.9008,-6.1763,-6.114,-5.8669,-6.1763,-6.0752,-5.8005,-6.1168,-5.9323,-5.572,0.0,0.0,0.0,0.0,0.0,0.0,0.0,0.0,0.0,0.0,0.0,0.0,0.0,0.0,0.0,0.0,0.0,0.0,0.0,0.0,0.0,-2.8044,-2.8569,-2.9509,-3.1048,-3.122,-3.2378,-3.4503,-3.6806,-3.8781,-4.0457,-4.3359,-4.309,-4.0157,-3.8063,-3.6507,-3.5424,-3.4576,-3.461,-3.5198,-3.4509,0.0,0.0,0.0,0.0,0.0,0.0,0.0,0.0,-3.5576,-3.5639,-3.5639,-3.5639,0.0,0.0,0.0,0.0,0.0,-3.7739,-3.8472,-3.8387,-3.594,-3.5821,-3.6081,0.0,0.0,0.0,0.0,0.0,0.0,0.0,0.0,0.0,0.0,0.0,0.0,0.0,0.0,0.0,0.0,0.0,0.0,0.0,0.0,0.0,0.0,0.0,0.0,0.0,0.0,0.0,-6.4548,-6.398,-6.4352,-6.5837,-6.6224,-6.6047,-6.5278,-6.4746,-6.4007,-6.3239,-6.3239,-6.2884,0.0,0.0,-6.2555,-6.2321,-6.2279,-6.141,-6.0241,-6.17,-5.9597,-5.6076,-5.804,-5.7041,-5.4849,0.0,0.0,0.0,0.0,0.0,0.0,0.0,0.0,0.0,0.0,0.0,0.0,0.0,0.0,0.0,0.0,0.0,0.0,0.0,0.0,0.0,-2.7626,-2.8571,-2.9973,-3.1866,-3.2348,-3.3903,-3.663,-3.8182,-4.0337,-4.306,-4.315,-4.2192,-4.0277,-3.7584,-3.6058,-3.5457,-3.5034,-3.51,-3.5457,0.0,0.0,0.0,0.0,0.0,0.0,0.0,0.0,0.0,0.0,-3.5519,-3.5519,-3.5519,0.0,0.0,0.0,0.0,0.0,-3.6656,-3.7623,-3.8274,-3.7692,-3.8349,-3.8932,-3.7918,0.0,0.0,0.0,0.0,0.0,0.0,0.0,0.0,0.0,0.0,0.0,0.0,0.0,0.0,0.0,0.0,0.0,0.0,0.0,0.0,0.0,0.0,0.0,0.0,0.0,0.0,0.0,-6.4317,-6.4451,-6.4934,-6.5233,-6.5233,-6.4934,-6.4605,-6.4126,-6.3498,-6.3139,-6.281,-6.254,0.0,-6.2032,-6.2002,-6.1702,-6.1305,-6.0908,-6.1359,-6.0296,-5.8423,-5.8301,-5.8192,-5.7821,0.0,0.0,0.0,0.0,0.0,0.0,0.0,0.0,0.0,0.0,0.0,0.0,0.0,0.0,0.0,0.0,0.0,0.0,0.0,0.0,-2.4935,-2.6989,-2.8271,-3.0161,-3.2916,-3.3634,-3.5429,-3.8392,-3.9529,-4.1743,-4.4796,-4.2462,-4.0786,-3.9589,-3.7075,-3.5789,-3.5519,-3.5519,-3.5519,-3.5519,0.0,0.0,0.0,0.0,0.0,0.0,0.0,0.0,0.0,0.0,0.0,0.0,0.0,0.0,0.0,-3.5519,-3.5519,-3.5579,-3.5878,-3.6776,-3.7883,-3.8931,0.0,-4.0913,-4.1105,0.0,0.0,0.0,0.0,0.0,0.0,0.0,0.0,0.0,0.0,0.0,0.0,0.0,0.0,0.0,0.0,0.0,0.0,0.0,0.0,0.0,0.0,0.0,0.0,0.0,0.0,0.0,-6.4575,-6.4306,-6.3797,-6.3617,-6.3617,-6.3767,-6.3767,-6.3528,-6.3049,-6.2391,-6.2091,-6.2061,-6.1403,-6.1104,-6.1104,-6.0954,-6.0954,-6.1104,-6.0924,-6.0731,-6.0282,-5.8813,-5.9131,-5.9873,0.0,0.0,0.0,0.0,0.0,0.0,0.0,0.0,0.0,0.0,0.0,0.0,0.0,0.0,0.0,0.0,0.0,0.0,0.0,0.0,-2.4749,-2.6379,-2.7601,-3.0192,-3.4262,-3.5011,-3.6357,-3.8392,-4.0943,-4.2611,-4.3409,-4.2043,-4.0038,-3.7614,-3.7375,-3.6626,-3.5519,-3.5519,-3.5519,-3.5519,-3.5519,0.0,0.0,0.0,0.0,0.0,0.0,0.0,0.0,0.0,0.0,0.0,0.0,0.0,-3.5519,-3.5519,-3.5519,-3.5759,-3.6956,-3.7793,-3.8332,-3.8452,0.0,0.0,-4.4732,-4.4923,0.0,0.0,0.0,0.0,0.0,0.0,0.0,0.0,0.0,0.0,0.0,0.0,0.0,0.0,0.0,0.0,0.0,0.0,0.0,0.0,0.0,0.0,0.0,0.0,0.0,0.0,0.0,-6.3199,-6.3139,-6.254,-6.254,-6.3139,-6.3139,-6.3109,-6.3049,-6.2391,-6.2091,-6.2061,-6.1403,-6.1104,-6.1074,-6.0416,-6.0535,-6.1044,-6.0416,-5.9551,-5.8609,-5.7916,-5.7715,-5.7916,0.0,0.0,0.0,0.0,0.0,0.0,0.0,0.0,0.0,0.0,0.0,0.0,0.0,0.0,0.0,0.0,0.0,0.0,0.0,-2.312,-2.4094,-2.5601,-2.6921,-2.9013,-3.1892,-3.3864,-3.6028,-3.8392,-4.0673,-4.2141,-4.2671,-4.0516,-3.899,-3.7973,-3.6776,-3.5968,-3.5519,-3.5519,-3.5519,-3.5519,-3.5519,-3.525,0.0,0.0,0.0,0.0,0.0,0.0,0.0,0.0,-3.4861,0.0,0.0,0.0,-3.5519,-3.5519,-3.5519,-3.5609,-3.6088,-3.7285,-3.8482,-3.8931,0.0,0.0,0.0,0.0,0.0,0.0,0.0,0.0,0.0,0.0,0.0,0.0,0.0,0.0,0.0,0.0,0.0,0.0,0.0,0.0,0.0,0.0,0.0,0.0,0.0,0.0,0.0,0.0,0.0,0.0,0.0,-6.1852,-6.1852,-6.1613,-6.1613,-6.1852,-6.1852,-6.1852,-6.1822,-6.1164,-6.0835,-6.0805,-6.0146,-5.9877,-5.9847,-5.9578,-5.9638,-5.9847,-5.9578,-5.9194,-5.8844,-5.8608,-5.8549,-5.8571,0.0,0.0,0.0,0.0,0.0,0.0,0.0,0.0,0.0,0.0,0.0,0.0,0.0,0.0,0.0,0.0,0.0,0.0,-2.2293,-2.2794,-2.3637,-2.4863,-2.6253,-2.7876,-2.9724,-3.2256,-3.4951,-3.7793,-3.9349,-4.0247,-4.0494,-3.8422,-3.7464,-3.7434,-3.6088,-3.5609,-3.5789,-3.537,-3.531,-3.5489,-3.528,-3.504,0.0,0.0,0.0,0.0,0.0,0.0,0.0,0.0,0.0,0.0,0.0,0.0,0.0,0.0,-3.534,-3.519,-3.519,-3.6148,-3.7375,0.0,0.0,0.0,0.0,0.0,0.0,0.0,0.0,0.0,0.0,0.0,0.0,0.0,0.0,0.0,0.0,0.0,0.0,0.0,0.0,0.0,0.0,0.0,0.0,0.0,0.0,0.0,0.0,0.0,0.0,0.0,0.0,-6.1104,-6.1104,-6.0894,-6.0685,-6.0475,-6.0475,-6.0715,-6.1104,-6.0416,-5.9967,-5.9727,-5.9069,-5.868,-5.8471,-5.8471,-5.859,-5.88,-5.88,-5.88,-5.877,-5.856,-5.8471,-5.8411,0.0,0.0,0.0,0.0,0.0,0.0,0.0,0.0,0.0,0.0,0.0,0.0,0.0,0.0,0.0,0.0,0.0,0.0,-2.2272,-2.2794,-2.3454,-2.425,-2.5649,-2.7031,-2.8367,-3.0422,-3.3125,-3.6477,-3.7075,-3.7075,-3.6477,-3.5818,-3.5519,-3.5519,-3.5519,-3.5878,-3.6387,-3.5073,-3.4861,-3.5429,-3.4773,-3.4891,-3.5429,0.0,0.0,0.0,0.0,0.0,0.0,0.0,-3.3933,0.0,0.0,0.0,0.0,0.0,-3.5011,-3.4503,-3.4503,-3.4533,0.0,0.0,0.0,0.0,0.0,0.0,0.0,0.0,0.0,0.0,0.0,0.0,0.0,0.0,0.0,0.0,0.0,0.0,0.0,0.0,0.0,0.0,0.0,0.0,0.0,0.0,0.0,0.0,0.0,0.0,0.0,0.0,0.0,0.0,-6.1074,-6.0386,-5.9727,-5.9069,-5.9069,-5.9787,-6.1044,-6.0386,-5.9697,-5.9039,-5.8411,-5.7723,-5.7094,-5.7094,-5.7483,-5.8112,-5.8112,-5.8112,-5.8022,-5.7334,-5.7094,-5.7094,0.0,0.0,0.0,0.0,0.0,0.0,0.0,0.0,0.0,0.0,0.0,0.0,0.0,0.0,0.0,0.0,0.0,0.0,-2.1744,-2.2594,-2.3454,-2.425,-2.5649,-2.6835,-2.7733,-2.9742,-3.2198,-3.5102,-3.5282,-3.5489,-3.5789,-3.5579,-3.5519,-3.5519,-3.5998,-3.5789,-3.5073,-3.4683,-3.4623,-3.4803,-3.4593,-3.4623,-3.4711,0.0,0.0,0.0,0.0,0.0,0.0,0.0,0.0,0.0,0.0,0.0,0.0,0.0,-3.537,-3.519,-3.519,0.0,0.0,0.0,0.0,0.0,0.0,0.0,0.0,0.0,0.0,0.0,0.0,0.0,0.0,0.0,0.0,0.0,0.0,0.0,0.0,0.0,0.0,0.0,0.0,0.0,0.0,0.0,0.0,0.0,0.0,0.0,0.0,0.0,0.0,0.0,-5.8291,-5.8082,-5.7872,-5.7693,-5.7693,-5.7902,-5.8291,-5.859,-5.8351,-5.7693,-5.7483,-5.7274,-5.7094,-5.7094,-5.7214,-5.7393,-5.7393,-5.7393,-5.7363,-5.7184,-5.7094,-5.7034,0.0,0.0,0.0,0.0,0.0,0.0,0.0,0.0,0.0,0.0,0.0,0.0,0.0,0.0,0.0,0.0,0.0,0.0,0.0,-2.2493,-2.3454,-2.425,-2.5375,-2.6722,-2.8318,-3.0296,-3.1839,-3.2886,-3.2886,-3.3245,-3.3933,-3.4203,-3.4741,-3.5519,-3.5908,-3.5789,-3.5282,-3.4743,-3.4503,-3.4533,-3.4771,-3.4891,-3.4801,0.0,0.0,0.0,0.0,0.0,0.0,0.0,0.0,0.0,0.0,0.0,0.0,-3.4592,-3.4322,-3.4053,-3.4562,0.0,0.0,0.0,0.0,0.0,0.0,0.0,0.0,0.0,0.0,0.0,0.0,0.0,0.0,0.0,0.0,0.0,0.0,0.0,0.0,0.0,0.0,0.0,0.0,0.0,0.0,0.0,0.0,0.0,0.0,0.0,0.0,0.0,0.0,0.0,-5.6735,-5.6466,-5.6196,-5.5957,-5.6226,-5.6047,-5.5598,-5.7034,-5.7363,-5.6705,-5.6466,-5.6346,-5.6346,-5.6615,-5.6735,-5.6735,-5.6735,-5.6555,-5.6316,-5.6047,-5.5777,-5.5538,0.0,0.0,0.0,0.0,0.0,0.0,0.0,0.0,0.0,0.0,-1.9083,0.0,0.0,0.0,0.0,0.0,0.0,0.0,0.0,0.0,-2.3573,-2.4366,-2.5271,-2.7026,-2.9687,-3.139,-3.1689,-3.0492,-3.0582,-3.0881,-3.1421,-3.2198,-3.3574,-3.534,-3.5459,-3.5759,-3.6118,-3.4863,-3.4354,-3.4474,-3.507,-3.534,-3.534,-3.4683,0.0,0.0,0.0,0.0,0.0,0.0,0.0,0.0,0.0,0.0,0.0,-3.3484,-3.2587,-3.1899,0.0,0.0,0.0,0.0,0.0,0.0,0.0,0.0,0.0,0.0,0.0,0.0,0.0,0.0,0.0,0.0,0.0,0.0,0.0,0.0,0.0,0.0,0.0,0.0,0.0,0.0,0.0,0.0,0.0,0.0,0.0,0.0,0.0,0.0,0.0,-5.5948,-5.5948,-5.5299,-5.47,0.0,-5.473,-5.4371,-5.3264,-5.5718,-5.6526,-5.6008,-5.5299,-5.5089,-5.5239,-5.5777,-5.6038,-5.6038,-5.6038,-5.5598,-5.494,-5.4341,-5.3713,-5.3294,0.0,0.0,0.0,0.0,0.0,0.0,0.0,0.0,0.0,0.0,0.0,0.0,0.0,0.0,0.0,0.0,0.0,0.0,0.0,0.0,-2.4366,-2.5133,-2.7419,-2.9442,-3.1062,-3.0522,-3.0313,-3.0492,-3.1032,-3.1092,-3.0761,-3.2497,-3.3514,-3.3963,-3.504,-3.5011,-3.4083,-3.3275,-3.3245,-3.3724,-3.3873,-3.4233,-3.4653,-3.3963,-3.3305,0.0,0.0,0.0,0.0,0.0,0.0,0.0,-3.2318,-3.2617,-3.2826,-3.3335,-3.2916,0.0,0.0,0.0,0.0,0.0,0.0,0.0,0.0,0.0,0.0,0.0,0.0,0.0,0.0,0.0,0.0,0.0,0.0,0.0,0.0,0.0,0.0,0.0,0.0,0.0,0.0,0.0,0.0,0.0,0.0,0.0,0.0,0.0,0.0,0.0,-5.3832,-5.3832,-5.3832,-5.3683,-5.3533,0.0,-5.3533,-5.3473,-5.3204,-5.4311,-5.476,-5.4581,-5.3922,-5.4221,-5.5149,-5.479,-5.464,-5.464,-5.464,-5.4221,-5.3593,-5.3443,-5.3294,-5.3294,0.0,0.0,0.0,0.0,0.0,0.0,0.0,0.0,0.0,0.0,0.0,0.0,0.0,0.0,0.0,0.0,0.0,0.0,0.0,0.0,-2.4794,-2.5878,-2.8311,-2.9744,-3.0105,-3.0073,-2.9894,-2.9594,-2.9953,-3.0404,-3.1002,-3.2706,-3.3993,-3.4951,-3.534,-3.51,-3.4382,-3.3395,-3.3006,-3.3095,-3.3724,-3.3993,-3.3963,-3.3634,-3.3095,-3.2407,-3.175,0.0,0.0,0.0,0.0,0.0,0.0,0.0,-3.2079,-3.2467,-3.2078,0.0,0.0,0.0,0.0,0.0,0.0,0.0,0.0,0.0,0.0,0.0,0.0,0.0,0.0,0.0,0.0,0.0,0.0,0.0,0.0,0.0,0.0,0.0,0.0,0.0,0.0,0.0,0.0,0.0,0.0,0.0,0.0,0.0,0.0,-5.1798,-5.1768,-5.1768,-5.1768,-5.1468,-5.1366,-5.1366,-5.1366,-5.1366,-5.1426,-5.2965,-5.3713,-5.3683,-5.3324,-5.3593,-5.4192,-5.3862,-5.3713,-5.3713,-5.3713,-5.3294,-5.2725,-5.2725,-5.2516,-5.2336,0.0,0.0,0.0,0.0,0.0,0.0,0.0,0.0,0.0,0.0,0.0,0.0,0.0,0.0,0.0,0.0,0.0,0.0,0.0,0.0,0.0,-2.6802,-2.8495,-2.9146,-2.8607,-2.9624,-2.9594,-2.8427,-2.8667,0.0,0.0,0.0,-3.4322,-3.6151,-3.5699,-3.537,-3.507,-3.3844,-3.3006,-3.2617,-3.3694,-3.3814,-3.3335,-3.3335,-3.2916,-3.2228,-3.169,-3.1511,-3.1511,-3.1511,0.0,0.0,0.0,0.0,-3.1511,-3.1511,-3.1032,-3.0941,0.0,0.0,0.0,0.0,0.0,0.0,0.0,0.0,0.0,0.0,0.0,0.0,0.0,0.0,0.0,0.0,0.0,0.0,0.0,0.0,0.0,0.0,0.0,0.0,0.0,0.0,0.0,0.0,0.0,0.0,0.0,0.0,-5.0631,-5.0046,-5.0016,-5.0016,-5.0016,-4.9523,-4.9299,-4.9299,-4.9299,-4.9299,-4.9389,-5.1528,-5.2636,-5.2845,-5.2845,-5.2965,-5.3174,-5.3054,-5.3025,-5.3025,-5.3025,-5.2606,-5.2037,-5.2037,-5.1678,-5.1319,0.0,0.0,0.0,0.0,0.0,0.0,0.0,0.0,0.0,0.0,0.0,0.0,0.0,0.0,0.0,0.0,0.0,0.0,0.0,0.0,0.0,-2.8244,-2.8584,-2.8697,-2.8607,-2.8757,-2.8487,-2.7735,0.0,0.0,0.0,0.0,0.0,-3.4803,0.0,-3.4861,-3.3724,-3.2976,-3.2557,-3.2527,-3.2706,-3.2706,-3.2647,-3.2647,-3.2198,-3.163,-3.154,-3.1511,-3.1511,-3.1511,-3.1511,0.0,0.0,0.0,-3.1511,-3.1511,-3.1032,0.0,0.0,0.0,0.0,0.0,0.0,0.0,0.0,0.0,0.0,0.0,0.0,0.0,0.0,0.0,0.0,0.0,0.0,0.0,0.0,0.0,0.0,0.0,0.0,0.0,0.0,0.0,0.0,0.0,0.0,0.0,0.0,-4.9569,-4.9539,-4.9449,-4.9449,-4.9449,-4.9449,-4.9359,-4.9299,-4.9299,-4.9299,-4.9299,-4.9329,-4.9689,-5.0421,-5.1468,-5.1468,-5.2127,-5.3144,-5.2576,-5.2336,-5.2336,-5.2336,-5.1917,-5.1349,-5.1349,-5.1289,-5.1319,0.0,0.0,0.0,0.0,0.0,0.0,0.0,0.0,0.0,0.0,0.0,0.0,0.0,0.0,0.0,0.0,0.0,0.0,0.0,0.0,0.0,-2.7415,-2.747,-2.7649,-2.8034,-2.8064,-2.7914,-2.7585,0.0,0.0,0.0,-3.3095,-3.51,0.0,0.0,0.0,-3.5549,0.0,0.0,-3.1929,-3.1929,-3.1929,-3.1929,-3.1929,-3.175,-3.1511,-3.1511,-3.1511,-3.1511,-3.1511,-3.1511,-3.1511,-3.1511,0.0,0.0,0.0,0.0,0.0,0.0,0.0,0.0,0.0,0.0,0.0,0.0,0.0,0.0,0.0,0.0,0.0,0.0,0.0,0.0,0.0,0.0,0.0,0.0,0.0,0.0,0.0,0.0,0.0,0.0,0.0,0.0,0.0,0.0,0.0,-4.8745,-4.8356,-4.8177,-4.8177,-4.8177,-4.8177,-4.8177,-4.8177,-4.8177,-4.8177,-4.8177,-4.8177,-4.8177,-4.8536,-4.9224,-5.0152,-5.0511,-5.0943,-5.1528,-5.1618,-5.1648,-5.1648,-5.1648,-5.1468,-5.1229,-5.1229,-5.1229,-5.1259,0.0,0.0,0.0,0.0,0.0,0.0,0.0,0.0,0.0,0.0,0.0,0.0,0.0,0.0,0.0,0.0,0.0,0.0,0.0,0.0,0.0,-2.6548,-2.6752,-2.7016,-2.7345,-2.7495,-2.7525,0.0,0.0,0.0,-3.178,-3.3634,-3.6596,0.0,-3.8841,-3.7704,0.0,0.0,0.0,0.0,-3.172,-3.1511,-3.1511,-3.169,-3.175,-3.175,-3.175,-3.175,-3.172,-3.157,-3.1511,-3.1511,-3.1511,-3.1511,0.0,0.0,0.0,0.0,0.0,0.0,0.0,0.0,0.0,0.0,0.0,0.0,0.0,0.0,0.0,0.0,0.0,0.0,0.0,0.0,0.0,0.0,0.0,0.0,0.0,0.0,0.0,0.0,0.0,0.0,0.0,0.0,0.0,0.0,-4.8027,-4.7578,-4.7309,-4.7309,-4.713,-4.713,-4.7309,-4.7309,-4.7309,-4.7309,-4.7309,-4.7309,-4.7309,-4.7818,-4.8297,-4.885,-4.9643,-5.0002,-5.0032,-5.0511,-5.072,-5.072,-5.072,-5.081,-5.0913,-5.0913,-5.1079,-5.1229,0.0,0.0,0.0,0.0,0.0,0.0,0.0,0.0,0.0,0.0,0.0,0.0,-2.0641,-2.1229,-2.1588,-2.1643,-2.2847,0.0,0.0,0.0,0.0,-2.6602,-2.7225,0.0,-2.6686,-2.7285,0.0,0.0,0.0,0.0,-3.2497,-3.3874,-3.6596,-4.0397,-4.0277,-3.8512,-3.5579,0.0,0.0,0.0,0.0,-3.1511,-3.157,-3.2198,-3.2437,-3.2437,-3.2437,-3.2437,-3.2348,-3.172,-3.1511,-3.1511,-3.1511,-3.1511,-3.1511,0.0,0.0,0.0,0.0,0.0,0.0,0.0,0.0,0.0,0.0,0.0,0.0,0.0,0.0,0.0,0.0,0.0,0.0,0.0,0.0,0.0,0.0,0.0,0.0,0.0,0.0,0.0,0.0,0.0,0.0,0.0,0.0,0.0,-4.7369,-4.7339,-4.7309,-4.7309,-4.6711,-4.6681,-4.7309,-4.7309,-4.7309,-4.7309,-4.7309,-4.7309,-4.7309,-4.7339,-4.7369,-4.7489,-4.8745,-4.9359,-4.9359,-4.9389,-4.9419,-4.9419,-4.9419,-4.9733,-5.0255,-5.0255,-5.0644,-5.1229,0.0,0.0,0.0,0.0,0.0,0.0,0.0,0.0,0.0,0.0,0.0,0.0,0.0,-2.0746,-2.1298,-2.1724,-2.2949,0.0,0.0,0.0,0.0,-2.5322,-2.6363,-2.6866,-2.6626,-2.7255,0.0,0.0,0.0,-2.8903,-3.0672,-3.2407,-3.3754,-3.4799,-3.7345,-3.8063,-3.7225,-3.51,0.0,0.0,0.0,0.0,-3.1481,-3.13,0.0,0.0,0.0,0.0,0.0,-3.2856,-3.2527,-3.2138,-3.2138,-3.1839,-3.1511,-3.1511,-3.1511,0.0,0.0,0.0,0.0,0.0,0.0,0.0,0.0,0.0,0.0,0.0,0.0,0.0,0.0,0.0,0.0,0.0,0.0,0.0,0.0,0.0,0.0,0.0,0.0,0.0,0.0,0.0,0.0,0.0,0.0,0.0,-4.6052,-4.6441,-4.6471,-4.6022,-4.5783,-4.5783,-4.6022,-4.6441,-4.6681,-4.6681,-4.71,-4.7309,-4.7309,-4.7309,-4.7309,-4.7339,-4.7818,-4.8237,-4.87,-4.9149,-4.9299,-4.9299,-4.9299,-4.9449,-4.9673,-5.0046,-5.0345,-5.0614,0.0,0.0,0.0,0.0,0.0,0.0,0.0,0.0,0.0,-1.9735,0.0,0.0,0.0,0.0,-2.1928,-2.2363,-2.3182,-2.3746,-2.3925,-2.4545,-2.5023,-2.5262,-2.6333,-2.6956,-2.6956,0.0,0.0,0.0,0.0,0.0,0.0,-3.0911,-3.1659,-3.1929,-3.4351,-3.6058,0.0,0.0,0.0,-3.3335,0.0,0.0,-3.2497,0.0,0.0,0.0,0.0,0.0,0.0,0.0,0.0,-3.2138,-3.2138,-3.1869,-3.1453,-3.119,-3.1278,0.0,0.0,0.0,0.0,0.0,0.0,0.0,0.0,0.0,0.0,0.0,0.0,0.0,0.0,0.0,0.0,0.0,0.0,0.0,0.0,0.0,0.0,0.0,0.0,0.0,0.0,0.0,0.0,0.0,0.0,0.0,-4.5304,-4.5723,-4.5663,-4.4975,-4.5185,-4.5185,-4.4975,-4.5633,-4.5963,-4.5992,-4.6651,-4.698,-4.698,-4.7219,-4.7309,-4.7309,-4.7309,-4.7549,-4.7997,-4.8416,-4.864,-4.864,-4.864,-4.879,-4.8985,-4.9434,-4.9807,-5.0226,0.0,0.0,0.0,0.0,0.0,0.0,0.0,0.0,-1.869,-1.9898,0.0,0.0,0.0,0.0,0.0,-2.367,-2.367,-2.3939,-2.4575,-2.5232,-2.5884,-2.6512,0.0,0.0,0.0,0.0,0.0,0.0,0.0,0.0,0.0,0.0,-3.0582,-3.2377,-3.175,-3.2557,-3.4414,0.0,-3.54,-3.513,0.0,-3.2078,-3.4563,0.0,0.0,0.0,-3.7315,-3.6956,0.0,-3.3484,0.0,0.0,0.0,-3.1511,-3.1336,-3.0539,-3.0896,0.0,0.0,0.0,0.0,0.0,0.0,0.0,0.0,0.0,0.0,0.0,0.0,0.0,0.0,0.0,0.0,0.0,0.0,0.0,0.0,0.0,0.0,0.0,0.0,0.0,0.0,0.0,0.0,0.0,0.0,-4.5244,-4.5244,-4.5244,-4.4945,-4.4317,-4.4915,-4.4915,-4.4287,-4.4945,-4.5274,-4.5274,-4.5963,-4.6249,-4.6279,-4.695,-4.7249,-4.7279,-4.7279,-4.7279,-4.7309,-4.7309,-4.7309,-4.7309,-4.7309,-4.7698,-4.8267,-4.8267,-4.9075,-5.0046,0.0,0.0,0.0,0.0,0.0,0.0,0.0,-1.942,-1.9922,0.0,0.0,0.0,-2.1946,-2.3401,-2.4576,-2.5,-2.5046,-2.4903,-2.4634,-2.5232,-2.5465,-2.5173,-2.6722,-2.7375,0.0,0.0,0.0,0.0,0.0,0.0,0.0,0.0,0.0,0.0,-3.0462,-3.0851,-3.0999,-3.1629,0.0,0.0,-3.0791,-3.142,0.0,0.0,0.0,0.0,0.0,-3.5489,-3.5669,0.0,-3.4233,-3.3484,0.0,0.0,-3.1482,-3.1219,-3.1307,-3.1424,-3.0925,0.0,0.0,0.0,0.0,0.0,0.0,0.0,0.0,0.0,0.0,0.0,0.0,0.0,0.0,0.0,0.0,0.0,0.0,0.0,0.0,0.0,0.0,0.0,0.0,0.0,0.0,0.0,-4.3629,-4.3898,-4.3868,-4.3828,-4.3738,-4.3559,-4.3738,-4.3738,-4.3559,-4.4257,-4.4586,-4.4586,-4.5274,-4.5574,-4.5574,-4.5753,-4.6112,-4.6591,-4.6591,-4.686,-4.7309,-4.7309,-4.7309,-4.7309,-4.7309,-4.7429,-4.7638,-4.8117,-4.8506,-4.8865,0.0,0.0,0.0,0.0,0.0,0.0,0.0,-2.0469,-2.1141,0.0,0.0,0.0,-2.2855,-2.4461,-2.5525,-2.5568,-2.5615,-2.5412,-2.5023,-2.5621,-2.5854,-2.5442,-2.6836,-2.7405,0.0,0.0,0.0,0.0,0.0,0.0,0.0,0.0,0.0,0.0,0.0,0.0,0.0,0.0,0.0,0.0,-3.0552,0.0,0.0,-3.3784,-3.4651,0.0,0.0,0.0,-3.6926,-3.5549,-3.4622,0.0,0.0,0.0,0.0,0.0,0.0,-3.1839,-3.157,-3.1511,0.0,0.0,0.0,0.0,0.0,0.0,0.0,0.0,0.0,0.0,0.0,0.0,0.0,0.0,0.0,0.0,0.0,0.0,0.0,0.0,0.0,0.0,0.0,0.0,0.0,0.0,-4.2312,-4.2551,-4.2521,-4.2521,-4.2521,-4.2521,-4.2521,-4.2521,-4.2521,-4.318,-4.3509,-4.3509,-4.4436,-4.4885,-4.4915,-4.5454,-4.5783,-4.5933,-4.6501,-4.68,-4.692,-4.7189,-4.7309,-4.7309,-4.7309,-4.7309,-4.7369,-4.7728,-4.8057,-4.8297,0.0,0.0,0.0,0.0,0.0,0.0,0.0,-2.1505,-2.2513,0.0,-2.331,-2.371,-2.4894,-2.6033,-2.6482,-2.5974,-2.5794,-2.5704,-2.5704,-2.6273,-2.6602,-2.6602,-2.7255,-2.7585,-2.7585,0.0,0.0,0.0,0.0,0.0,0.0,0.0,0.0,0.0,0.0,0.0,0.0,0.0,0.0,-3.1152,-3.0702,-3.2467,0.0,0.0,-3.7015,0.0,-3.8063,-3.8452,-3.8542,-3.5579,-3.4174,0.0,0.0,0.0,0.0,0.0,-3.2079,-3.2378,-3.1869,-3.172,-3.1839,0.0,0.0,0.0,-3.0821,-3.1182,-3.1361,0.0,0.0,0.0,0.0,0.0,0.0,0.0,0.0,0.0,0.0,0.0,0.0,0.0,0.0,0.0,0.0,0.0,-4.0853,-4.0912,-4.1137,-4.1265,-4.1265,-4.1354,-4.1422,-4.1422,-4.1422,-4.1422,-4.1422,-4.2081,-4.241,-4.241,-4.3629,-4.4197,-4.4257,-4.5412,-4.5693,-4.5244,-4.6441,-4.6711,-4.6339,-4.695,-4.7249,-4.7309,-4.7309,-4.7309,-4.7309,-4.7309,-4.7668,-4.8087,-1.72,0.0,0.0,0.0,0.0,0.0,0.0,0.0,-2.4766,-2.6436,-2.6659,-2.6952,-2.7714,-2.756,-2.7585,-2.7979,-2.7021,-2.6393,-2.6393,-2.6512,-2.6602,-2.6602,-2.7255,-2.7585,-2.7585,-2.7585,0.0,0.0,0.0,0.0,0.0,0.0,0.0,0.0,0.0,0.0,0.0,0.0,0.0,-2.9235,-3.0133,0.0,-3.4713,-3.4863,-3.537,-3.6058,-3.6058,-3.6148,-3.6178,0.0,-3.4861,-3.4264,0.0,0.0,0.0,-3.3036,0.0,0.0,0.0,0.0,0.0,0.0,0.0,0.0,-3.169,-3.2258,-3.2886,0.0,0.0,0.0,0.0,0.0,0.0,0.0,0.0,0.0,0.0,0.0,0.0,0.0,0.0,0.0,0.0,0.0,-3.7296,-3.7849,-3.9543,-4.0606,-4.0606,-4.1085,-4.1422,-4.1422,-4.1422,-4.1422,-4.1422,-4.2081,-4.241,-4.241,-4.315,-4.3499,-4.3499,-4.3768,-4.4097,-4.4526,-4.4796,-4.5424,-4.6279,-4.6471,-4.683,-4.7309,-4.7309,-4.7309,-4.7309,-4.7309,-4.7399,-4.7489,-1.7802,0.0,0.0,0.0,0.0,0.0,0.0,0.0,-2.6485,-2.747,-2.8184,-2.8603,-2.8607,-2.8603,-2.8603,-2.8607,-2.7705,-2.6956,-2.6602,-2.6926,-2.6956,-2.6602,-2.7255,-2.7585,-2.7585,-2.7585,0.0,0.0,0.0,0.0,0.0,0.0,0.0,0.0,0.0,0.0,0.0,0.0,-2.8487,-2.9175,-3.0133,0.0,-3.3574,-3.4264,-3.4891,-3.5519,-3.5519,-3.5519,-3.5519,-3.5519,-3.528,0.0,0.0,-3.3724,-3.3933,0.0,-3.3484,-3.3484,0.0,0.0,0.0,-3.3095,0.0,0.0,0.0,-3.175,0.0,0.0,0.0,0.0,0.0,0.0,0.0,0.0,0.0,0.0,0.0,0.0,0.0,0.0,0.0,0.0,0.0,0.0,-3.606,-3.7122,-3.8264,-3.8901,-3.8901,-3.923,-3.9409,-3.9409,-3.9709,-3.9888,-3.9888,-4.0913,-4.1422,-4.1384,-4.2372,-4.2851,-4.288,-4.3539,-4.3798,-4.3828,-4.4526,-4.5185,-4.5843,-4.613,-4.6711,-4.7309,-4.7309,-4.7309,-4.7309,-4.7309,-4.7309,-4.7309,-1.8356,0.0,0.0,0.0,0.0,0.0,0.0,0.0,-2.7399,-2.7944,-2.9022,-2.9594,-2.9205,-2.9415,-2.9535,-2.9385,-2.8184,-2.7405,-2.735,-2.7405,-2.7165,-2.6602,-2.7255,-2.7525,-2.7405,-2.7525,-2.7585,0.0,0.0,0.0,0.0,0.0,0.0,0.0,0.0,0.0,0.0,0.0,0.0,-2.9472,0.0,-3.13,-3.2647,-3.3963,-3.4863,-3.531,-3.5459,-3.5519,-3.5519,-3.5519,0.0,-3.522,-3.3604,-3.4113,0.0,0.0,0.0,0.0,0.0,0.0,0.0,0.0,0.0,-3.2976,0.0,0.0,0.0,0.0,0.0,0.0,0.0,0.0,0.0,0.0,0.0,0.0,0.0,0.0,0.0,0.0,0.0,0.0,0.0,0.0,-3.5156,-3.6559,-3.6896,-3.7045,-3.7045,-3.7285,-3.7404,-3.7404,-3.8033,-3.8392,-3.8392,-3.9738,-4.0397,-4.0397,-4.1632,-4.2291,-4.244,-4.3449,-4.3718,-4.3349,-4.4466,-4.5065,-4.5334,-4.5903,-4.6591,-4.7309,-4.7309,-4.7309,-4.7309,-4.7309,-4.7309,-4.7309,-1.9008,-1.8907,0.0,0.0,0.0,0.0,0.0,0.0,-2.6681,-2.9062,-2.9953,-3.0612,-3.1122,-3.0223,-3.0253,-3.1928,-2.8786,0.0,-2.9924,0.0,-2.6686,-2.6602,-2.7255,-2.7315,-2.6746,-2.7315,-2.7585,0.0,0.0,0.0,0.0,0.0,0.0,0.0,-2.6926,0.0,0.0,0.0,-2.8124,0.0,-3.0013,-3.13,0.0,-3.3963,-3.4563,-3.4713,-3.528,-3.5519,-3.5519,0.0,-3.5519,-3.5459,0.0,-3.4891,-3.4713,0.0,0.0,0.0,0.0,0.0,0.0,0.0,-3.4771,0.0,0.0,0.0,0.0,0.0,0.0,0.0,0.0,0.0,0.0,0.0,0.0,0.0,0.0,0.0,0.0,0.0,0.0,0.0,0.0,0.0,0.0,-3.3871,-3.504,-3.5729,-3.5729,-3.6806,-3.7404,-3.7404,-3.8033,-3.8392,-3.8392,-3.9738,-4.0397,-4.0397,-4.1145,-4.1841,-4.241,-4.256,-4.2851,-4.329,-4.3439,-4.4227,-4.5304,-4.5364,-4.6172,-4.7309,-4.7309,-4.7309,-4.7309,-4.7309,-4.7309,-4.7309,-1.951,-1.9459,0.0,0.0,0.0,0.0,0.0,0.0,-2.8462,-2.9926,-3.136,-3.2497,0.0,0.0,0.0,0.0,0.0,-3.0342,0.0,0.0,-2.8667,-2.9388,0.0,0.0,0.0,-2.7854,-2.7585,-2.7585,-2.7585,0.0,0.0,0.0,0.0,0.0,-2.6542,0.0,-2.6931,0.0,0.0,0.0,0.0,0.0,0.0,-3.2976,-3.3814,-3.4533,-3.4801,-3.516,-3.54,0.0,-3.4861,0.0,0.0,0.0,0.0,0.0,0.0,0.0,0.0,0.0,0.0,0.0,0.0,0.0,-3.2467,0.0,-3.2288,0.0,0.0,0.0,0.0,0.0,0.0,0.0,0.0,0.0,0.0,0.0,0.0,0.0,0.0,0.0,0.0,0.0,0.0,0.0,0.0,-3.4502,-3.4891,-3.5429,-3.5878,-3.6297,-3.6956,-3.7464,-3.7823,-3.8751,-3.9439,-3.9828,-4.0487,-4.0965,-4.1302,-4.2051,-4.256,-4.2791,-4.314,-4.3828,-4.4736,-4.4736,-4.5274,-4.6172,-4.6591,-4.698,-4.7309,-4.7309,-4.7309,-4.7309,-1.9811,0.0,0.0,0.0,0.0,0.0,0.0,0.0,0.0,0.0,0.0,0.0,-3.4384,-3.4354,0.0,0.0,-3.3694,-3.2437,0.0,0.0,-2.9834,0.0,0.0,0.0,0.0,0.0,-2.7794,0.0,0.0,0.0,0.0,0.0,0.0,0.0,0.0,-2.6542,-2.6512,0.0,0.0,-2.9711,-3.0791,-3.1331,-3.157,-3.2228,-3.3215,-3.4234,-3.4234,-3.4532,-3.4831,-3.4023,-3.4412,0.0,-3.4861,0.0,0.0,0.0,0.0,0.0,-3.528,0.0,0.0,0.0,0.0,0.0,0.0,0.0,0.0,0.0,0.0,0.0,0.0,0.0,0.0,0.0,0.0,0.0,0.0,0.0,0.0,0.0,0.0,0.0,0.0,0.0,0.0,0.0,-3.2672,-3.2998,-3.3355,-3.4079,-3.4743,-3.522,-3.6028,-3.6776,-3.7404,-3.8063,-3.8751,-3.9439,-3.9888,-4.0217,-4.0427,-4.1384,-4.2051,-4.241,-4.2851,-4.3539,-4.4317,-4.4317,-4.4706,-4.5364,-4.6052,-4.6621,-4.707,-4.7249,-4.7309,-4.7309,-1.9811,-1.9811,0.0,0.0,0.0,0.0,0.0,0.0,0.0,0.0,0.0,0.0,0.0,0.0,0.0,0.0,0.0,-3.3036,-3.4324,0.0,-2.9052,0.0,0.0,-2.8663,0.0,0.0,0.0,0.0,0.0,0.0,0.0,0.0,0.0,0.0,0.0,-2.729,-2.8457,-2.7884,-2.8393,-2.9651,-3.0283,-3.0913,-3.157,0.0,-3.2946,-3.3514,-3.3514,0.0,0.0,-3.4264,-3.4503,0.0,0.0,0.0,0.0,0.0,0.0,0.0,0.0,0.0,0.0,-3.4023,0.0,0.0,0.0,0.0,-3.3275,0.0,0.0,0.0,0.0,0.0,-3.2228,-3.154,-3.0883,0.0,0.0,0.0,0.0,0.0,0.0,0.0,0.0,0.0,0.0,-2.958,-3.0621,-3.1083,-3.0535,-3.3056,-3.4503,-3.4533,-3.5789,-3.6776,-3.7404,-3.8063,-3.8751,-3.9373,-3.9403,-3.9798,-4.0397,-4.0457,-4.1145,-4.241,-4.241,-4.312,-4.4317,-4.4317,-4.4706,-4.5364,-4.6052,-4.6279,-4.6399,-4.707,-4.7309,-4.7309,0.0,0.0,0.0,0.0,0.0,0.0,0.0,-2.7427,0.0,0.0,0.0,0.0,0.0,0.0,-3.917,0.0,0.0,-3.7075,-3.7075,-3.4444,0.0,0.0,0.0,-3.121,0.0,0.0,0.0,0.0,0.0,0.0,0.0,0.0,0.0,0.0,0.0,-2.7106,0.0,0.0,0.0,0.0,0.0,-3.118,-3.2168,0.0,0.0,-3.2856,-3.2856,-3.3125,0.0,-3.3245,-3.3754,-3.4563,-3.4773,-3.513,-3.5459,-3.522,-3.531,0.0,0.0,0.0,-3.5579,-3.4412,0.0,0.0,0.0,0.0,0.0,0.0,0.0,0.0,0.0,-3.3036,-3.2647,-3.1091,-3.0642,-2.9983,0.0,0.0,0.0,0.0,0.0,0.0,0.0,0.0,0.0,-2.8104,-2.9256,-3.0099,0.0,-3.2196,-3.3574,-3.4474,-3.4953,-3.5701,-3.6776,-3.7015,-3.7674,-3.8751,-3.8751,-3.908,-3.9768,-4.0217,-4.0876,-4.1782,-4.2201,-4.2851,-4.3618,-4.3618,-4.3768,-4.4037,-4.4695,-4.5005,-4.5185,-4.6741,-4.7309,-4.7309,-2.1018,0.0,0.0,0.0,0.0,0.0,0.0,0.0,0.0,0.0,-3.5579,0.0,-4.0127,0.0,-4.1235,0.0,-4.0516,-3.929,-3.8123,-3.6301,0.0,-3.507,-3.3873,0.0,0.0,0.0,0.0,0.0,0.0,-2.8184,0.0,0.0,0.0,0.0,0.0,0.0,0.0,0.0,-2.8004,0.0,0.0,-3.118,0.0,0.0,-3.2288,-3.2467,0.0,-3.2407,-3.2766,-3.2587,-3.3066,-3.3873,-3.4354,-3.4771,-3.513,-3.513,-3.531,-3.5459,-3.522,-3.531,0.0,-3.4683,-3.4204,0.0,-3.2706,0.0,0.0,0.0,0.0,0.0,0.0,0.0,-3.2647,-3.112,-3.0492,-2.9654,0.0,-2.8119,0.0,0.0,0.0,0.0,0.0,0.0,-2.8163,-2.7079,-2.802,-2.8823,0.0,0.0,-3.2766,-3.4114,-3.4384,-3.5162,-3.6477,-3.6477,-3.7015,-3.8033,-3.8272,-3.8631,-3.908,-3.9738,-4.0397,-4.1055,-4.1512,-4.2162,-4.3,-4.3,-4.312,-4.3349,-4.4047,-4.4466,-4.4855,-4.6381,-4.71,-4.7309,0.0,0.0,0.0,0.0,-2.3071,0.0,0.0,0.0,-3.3754,0.0,-3.6357,-3.8302,-4.0337,-4.0546,-4.1025,-4.2291,-4.1175,0.0,-3.7674,-3.6956,0.0,0.0,-3.3933,-3.3126,-2.9921,0.0,0.0,0.0,0.0,0.0,0.0,0.0,0.0,0.0,-2.7884,0.0,-2.7585,-2.7585,-2.8004,-2.8757,-2.9983,-3.0883,-3.154,-3.1511,-3.1899,-3.2407,-3.175,-3.1511,-3.16,-3.2228,-3.2467,-3.2736,-3.3993,-3.4444,-3.4444,-3.4444,-3.4891,-3.525,-3.4592,-3.4921,-3.525,-3.4653,0.0,0.0,0.0,0.0,-3.4354,0.0,0.0,0.0,0.0,0.0,0.0,-3.16,-3.0432,-2.9382,-2.8727,0.0,0.0,0.0,0.0,0.0,0.0,-2.8083,-2.6903,-2.6267,-2.682,0.0,0.0,0.0,-3.2079,-3.3455,-3.4144,-3.5102,-3.6417,-3.6447,-3.6746,-3.7375,-3.8033,-3.8362,-3.8422,-3.911,-3.9768,-4.0397,-4.0427,-4.1175,-4.241,-4.244,-4.2761,-4.3349,-4.4018,-4.4676,-4.5394,-4.6112,-4.677,-4.7309,-2.1719,-2.2372,-2.3547,0.0,-2.5154,-2.6491,0.0,0.0,0.0,0.0,-3.8691,-4.0397,-4.2333,-4.2542,-4.2521,-4.241,-4.1632,0.0,0.0,0.0,0.0,-3.6207,-3.6028,-3.5132,-3.3275,-3.2766,0.0,-3.0494,0.0,0.0,-2.8577,0.0,0.0,0.0,0.0,0.0,-2.7585,-2.7585,-2.8274,-2.9355,-2.9711,-3.0791,0.0,0.0,-3.1899,-3.2407,-3.175,-3.1511,-3.154,-3.169,-3.2079,-3.2587,-3.2916,-3.3365,-3.3754,-3.3754,-3.3873,-3.3963,-3.3784,-3.3873,-3.4083,-3.4444,-3.4144,-3.3784,0.0,0.0,0.0,0.0,0.0,0.0,0.0,0.0,0.0,-3.169,-3.0432,-2.9562,0.0,0.0,0.0,-3.0492,0.0,0.0,-2.7939,-2.7112,-2.5864,-2.4072,-2.5608,0.0,0.0,0.0,0.0,-3.3425,-3.3664,-3.4382,-3.5729,-3.5759,-3.6088,-3.6716,-3.7375,-3.7913,-3.8422,-3.911,-3.9768,-4.0427,-4.0905,-4.1632,-4.244,-4.288,-4.314,-4.3319,-4.3469,-4.4287,-4.5424,-4.6621,-4.716,-4.7309,-2.2975,0.0,0.0,-2.8201,0.0,0.0,-3.2734,0.0,0.0,-3.8422,-3.9572,0.0,-4.2264,-4.2505,-4.2632,-4.2781,-4.1923,0.0,0.0,0.0,0.0,-3.6626,-3.6507,-3.5579,-3.3664,-3.3185,0.0,-3.0672,0.0,0.0,-2.9415,0.0,0.0,0.0,0.0,-2.7764,0.0,-2.8034,-2.8813,-2.9953,-2.9711,0.0,0.0,-3.163,-3.172,-3.2019,-3.163,-3.1511,-3.1511,-3.1511,-3.175,-3.2108,-3.2407,-3.2766,-3.3125,-3.3395,-3.3484,-3.3484,-3.3484,-3.3484,-3.3574,-3.3994,-3.3993,-3.3933,-3.4054,-3.4562,-3.4771,0.0,0.0,0.0,0.0,0.0,0.0,-3.1212,-3.0253,0.0,0.0,0.0,0.0,0.0,0.0,0.0,-2.7806,-2.6368,-2.505,-2.4052,0.0,0.0,0.0,0.0,0.0,-3.3006,-3.3634,-3.4442,-3.5489,-3.5789,-3.5968,-3.6058,-3.6985,-3.7614,-3.8003,-3.896,-3.9619,-4.0008,-4.0666,-4.1324,-4.2021,-4.2641,-4.306,-4.3319,-4.3618,-4.4377,-4.5424,-4.6501,-4.707,-4.7309,0.0,0.0,0.0,0.0,0.0,0.0,0.0,-3.6208,0.0,-3.9192,0.0,-4.0294,-4.1207,-4.1466,-4.193,-4.2822,0.0,-4.0696,-3.9379,-3.8615,-3.7382,-3.5535,-3.5882,-3.5047,-3.2764,-3.3002,0.0,0.0,0.0,0.0,0.0,0.0,0.0,0.0,0.0,0.0,0.0,-2.8667,-2.9355,0.0,-2.9921,-3.0432,-3.1511,-3.1511,-3.1511,-3.1511,-3.1511,-3.1511,-3.1511,-3.1511,-3.1511,-3.16,-3.2168,-3.2348,-3.2467,-3.3066,-3.3245,-3.3245,-3.3245,-3.3245,-3.3275,-3.3335,-3.3814,-3.4114,-3.3604,-3.3933,-3.4204,-3.3604,-3.2976,-3.2677,0.0,0.0,0.0,0.0,0.0,0.0,0.0,0.0,0.0,0.0,0.0,0.0,0.0,-2.6185,0.0,0.0,0.0,0.0,0.0,0.0,0.0,-3.2288,-3.3664,0.0,-3.5489,0.0,-3.6148,-3.5759,-3.6866,-3.7464,-3.7584,-3.8841,-3.9433,-3.9589,-4.0247,-4.0905,-4.1602,-4.2261,-4.2821,-4.3349,-4.4047,-4.4676,-4.5274,-4.6022,-4.6681,-4.7189,0.0,0.0,0.0,0.0,0.0,-3.3357,-3.5718,-3.6901,-3.7994,-3.9353,-4.0959,-4.1627,-4.0815,-4.1165,-4.1284,-4.0965,-4.0696,0.0,0.0,0.0,0.0,-3.5154,-3.4484,-3.398,-3.3719,-3.2272,-3.1948,0.0,0.0,0.0,0.0,0.0,0.0,0.0,0.0,0.0,-2.7854,-2.8963,0.0,-2.9774,-3.0193,-3.0821,-3.1511,-3.1511,-3.1511,-3.1511,-3.1511,-3.1511,-3.1511,-3.1511,-3.1511,-3.154,-3.163,-3.169,-3.169,-3.1809,-3.1839,-3.1839,-3.1839,-3.1839,-3.1989,-3.2557,-3.2766,-3.2976,-3.3395,-3.3574,-3.3634,-3.3514,-3.2976,-3.2557,-3.2647,0.0,0.0,0.0,0.0,0.0,0.0,0.0,0.0,0.0,0.0,0.0,0.0,0.0,0.0,0.0,0.0,0.0,0.0,0.0,0.0,0.0,-3.2976,0.0,0.0,0.0,-3.6148,-3.7075,-3.7315,-3.7704,-3.8242,-3.905,-3.9709,-4.0277,-4.0935,-4.1632,-4.2291,-4.288,-4.32,-4.3349,-4.4047,-4.4377,-4.4646,-4.5873,-4.6339,-4.6561,0.0,0.0,0.0,0.0,0.0,0.0,0.0,-3.782,0.0,-3.9068,-3.9906,-4.012,-3.9265,-3.9474,-3.9826,-4.0079,-3.9765,-3.9217,-3.8446,-3.7191,-3.587,-3.4531,-3.4057,0.0,-3.3547,-3.2055,-3.187,-3.2976,0.0,0.0,0.0,0.0,0.0,0.0,0.0,-2.8495,0.0,0.0,0.0,-3.0582,-3.0522,-3.0883,-3.1511,-3.1511,-3.1511,-3.1511,-3.1511,-3.1511,-3.1511,-3.1511,-3.1511,-3.1511,-3.1511,-3.1511,-3.1511,-3.1511,-3.1511,-3.1511,-3.1511,-3.1511,-3.157,-3.1899,-3.2228,-3.2557,-3.2916,-3.3245,-3.3395,-3.3066,-3.2736,-3.2527,-3.2527,-3.1959,0.0,0.0,0.0,0.0,0.0,0.0,0.0,0.0,0.0,0.0,0.0,0.0,0.0,0.0,0.0,0.0,0.0,0.0,0.0,0.0,0.0,0.0,0.0,0.0,0.0,-3.6417,-3.7075,-3.7584,-3.7913,-3.896,-3.9768,-4.0427,-4.1085,-4.1782,-4.244,-4.306,-4.329,-4.3319,-4.3648,-4.3977,-4.4407,-4.4994,-4.5681,-4.6369,0.0,-3.178,0.0,0.0,-3.4549,0.0,-3.7353,-3.8458,-3.9005,-3.8769,-3.8937,-3.8707,-3.7767,-3.7889,-3.8396,-3.9312,-3.889,-3.846,-3.8202,-3.681,-3.5302,-3.3762,-3.3705,-3.3477,-3.2986,-3.1946,-3.1694,0.0,0.0,0.0,0.0,0.0,0.0,0.0,0.0,0.0,0.0,0.0,-3.0522,-3.1241,-3.0881,-3.1032,-3.1511,-3.1511,-3.1511,-3.1511,-3.1511,-3.1511,-3.1511,-3.1511,-3.1511,-3.1511,-3.1511,-3.1511,-3.1511,-3.1511,-3.1511,-3.1511,-3.1511,-3.1511,-3.1511,-3.1511,-3.1899,-3.2288,-3.2288,-3.2706,-3.2946,-3.2378,-3.2288,-3.2318,-3.2467,-3.2049,0.0,0.0,0.0,0.0,0.0,0.0,0.0,0.0,0.0,0.0,0.0,0.0,0.0,0.0,0.0,0.0,0.0,0.0,0.0,0.0,0.0,-3.4354,-3.4503,0.0,-3.6237,0.0,-3.6985,-3.7554,-3.7883,-3.8931,-3.9858,-4.0636,-4.1145,-4.1833,-4.265,-4.312,-4.329,-4.329,-4.329,-4.3618,-4.4107,-4.4257,-4.4975,-4.6022,0.0,0.0,0.0,0.0,0.0,0.0,0.0,-3.8456,-3.9554,-3.8948,-3.9681,-3.9446,-3.739,-3.7551,-3.7863,-3.7978,-3.792,-3.7754,-3.7515,-3.6576,-3.5018,-3.2826,-3.2735,-3.2707,-3.268,-3.1663,-3.1255,0.0,0.0,0.0,0.0,0.0,0.0,0.0,0.0,0.0,0.0,-3.0584,-3.1032,-3.0642,-3.1182,-3.1451,-3.1511,-3.1511,-3.1511,-3.1511,-3.1511,-3.1511,-3.1511,-3.1511,-3.1511,-3.1511,-3.1511,-3.1511,-3.1511,-3.1511,-3.1511,-3.1511,-3.1511,-3.1511,-3.1511,-3.1511,-3.154,-3.16,-3.16,-3.163,-3.166,-3.16,-3.16,-3.178,-3.2378,-3.2437,-3.2437,0.0,0.0,0.0,0.0,0.0,0.0,0.0,0.0,0.0,0.0,0.0,0.0,0.0,0.0,0.0,0.0,0.0,0.0,-2.9711,0.0,-3.3873,-3.4503,-3.522,-3.6447,-3.8123,-3.7644,-3.8063,-3.923,-3.9313,-4.0098,-4.1294,-4.1354,-4.2073,-4.32,-4.326,-4.329,-4.329,-4.329,-4.3319,-4.3469,-4.4107,-4.4407,-4.4676,0.0,0.0,0.0,0.0,0.0,0.0,0.0,-3.7192,-3.7628,-3.7343,-3.8908,-3.8935,-3.5981,-3.5845,-3.6022,-3.6284,-3.6294,-3.6462,-3.6824,-3.5956,-3.4794,-3.3492,-3.3463,-3.3157,-3.2593,-3.1654,-3.094,0.0,0.0,0.0,0.0,0.0,0.0,0.0,0.0,-3.0673,-3.0374,-3.0733,-3.0972,-3.1122,-3.1391,-3.1511,-3.1511,-3.1511,-3.1511,-3.1511,-3.1511,-3.1511,-3.1511,-3.1511,-3.1511,-3.1511,-3.1511,-3.1511,-3.1511,-3.1511,-3.1511,-3.1511,-3.1511,-3.1511,-3.1511,-3.1511,-3.1511,-3.1511,-3.1511,-3.1511,-3.1511,-3.1511,-3.1511,-3.169,-3.2407,-3.2168,-3.2019,0.0,0.0,0.0,0.0,0.0,0.0,0.0,0.0,0.0,0.0,0.0,0.0,0.0,0.0,0.0,0.0,0.0,0.0,-3.0163,0.0,-3.3634,-3.3873,-3.4951,-3.6088,-3.7255,-3.7375,-3.7883,-3.8811,-3.923,-4.0127,-4.1414,-4.2222,-4.2811,-4.329,-4.329,-4.329,-4.329,-4.329,-4.329,-4.3319,-4.3589,-4.3917,-4.4407,-3.4881,0.0,-3.4675,0.0,-3.5454,-3.5541,-3.6493,-3.6605,-3.6481,-3.6138,-3.7538,-3.7603,-3.4962,-3.4718,-3.4941,-3.5515,-3.5399,-3.5704,-3.6671,-3.5932,-3.5014,-3.4041,-3.3979,0.0,-3.2629,-3.1757,-3.0848,-2.9832,-2.9831,0.0,0.0,0.0,0.0,0.0,-3.0913,-3.0943,-3.1182,-3.0913,-3.1062,-3.1511,-3.1511,-3.1511,-3.1511,-3.1511,-3.1511,-3.1511,-3.1511,-3.1511,-3.1511,-3.1511,-3.1511,-3.1511,-3.1511,-3.1511,-3.1511,-3.1511,-3.1511,-3.1511,-3.1511,-3.1511,-3.1511,-3.1511,-3.1511,-3.1511,-3.1511,-3.1511,-3.1511,-3.1511,-3.1511,-3.169,-3.2407,-3.2108,-3.1959,-3.2407,0.0,0.0,0.0,0.0,0.0,0.0,-2.9981,-2.9544,-2.9328,0.0,0.0,0.0,0.0,0.0,0.0,0.0,0.0,0.0,0.0,0.0,0.0,-3.4921,-3.5938,-3.6776,-3.7195,-3.7853,-3.8721,-3.9589,-4.0606,-4.1782,-4.2851,-4.329,-4.329,-4.329,-4.329,-4.329,-4.329,-4.329,-4.329,-4.329,-4.3589,-4.4007,-3.5382,-3.5483,-3.5658,-3.6304,-3.638,-3.6599,-3.7209,-3.7281,-3.6858,-3.5764,-3.5606,-3.5394,-3.4771,-3.4718,-3.5075,-3.6105,-3.5648,-3.5873,-3.7297,-3.6836,-3.5748,0.0,0.0,-3.3567,-3.2629,-3.1916,-3.0895,-2.9521,0.0,0.0,-2.806,0.0,-3.0522,-3.0552,-3.1182,-3.1122,-3.0552,-3.1212,-3.1481,-3.1511,-3.1511,-3.1511,-3.1511,-3.1511,-3.1511,-3.1511,-3.1511,-3.1511,-3.1511,-3.1511,-3.1511,-3.1511,-3.1511,-3.1511,-3.1511,-3.1511,-3.1511,-3.1511,-3.1511,-3.1511,-3.1511,-3.1511,-3.1511,-3.1511,-3.1511,-3.1511,-3.1511,-3.1511,-3.1511,-3.169,-3.2407,-3.2497,-3.2497,-3.2527,0.0,0.0,0.0,0.0,0.0,0.0,-3.163,-3.1421,-2.8876,0.0,0.0,0.0,0.0,0.0,0.0,0.0,0.0,-3.1481,-3.2796,0.0,-3.4503,-3.516,-3.6148,-3.7404,-3.7404,-3.8123,-3.9403,-4.0756,-4.1752,-4.241,-4.306,-4.329,-4.329,-4.329,-4.329,-4.329,-4.329,-4.329,-4.329,-4.329,-4.329,-4.3409,-3.5981,-3.6107,-3.6157,-3.638,-3.6405,-3.6323,-3.6111,-3.6055,-3.5692,-3.4568,-3.4441,-3.4211,-3.3649,-3.3598,-3.3949,0.0,-3.4716,-3.5046,0.0,-3.5938,-3.5274,-3.4041,-3.3979,-3.3262,-3.1683,-3.1083,-3.0058,-2.8543,0.0,0.0,0.0,-3.0922,-3.1182,-3.1182,-3.1391,-3.1391,-3.1182,-3.1421,-3.1511,-3.1511,-3.1511,-3.1511,-3.1511,-3.1511,-3.1511,-3.1511,-3.1511,-3.1511,-3.1511,-3.1511,-3.1511,-3.1511,-3.1511,-3.1511,-3.1511,-3.1511,-3.1511,-3.1511,-3.1511,-3.1511,-3.1511,-3.1511,-3.1511,-3.1511,-3.1511,-3.1511,-3.1511,-3.1511,-3.1511,-3.157,-3.178,-3.1809,-3.1809,-3.1809,-3.1809,0.0,0.0,0.0,0.0,0.0,-3.0253,-3.0013,0.0,-2.9205,0.0,0.0,0.0,0.0,0.0,0.0,0.0,0.0,-3.3484,0.0,-3.519,-3.5848,-3.6806,-3.8093,-3.8093,-3.8781,-4.0127,-4.1444,-4.2201,-4.244,-4.306,-4.329,-4.329,-4.329,-4.329,-4.329,-4.329,-4.329,-4.329,-4.329,-4.329,-4.3319,-3.568,-3.5755,-3.5755,-3.5755,-3.5755,-3.5554,-3.5002,-3.4881,-3.46,-3.3696,-3.3596,-3.3445,-3.3162,-3.325,0.0,-3.4591,-3.4807,-3.5189,-3.5839,-3.5314,-3.4643,-3.4013,-3.3325,-3.2379,-3.1204,0.0,0.0,-2.875,-2.964,-3.0527,-3.1368,-3.1161,-3.1073,-3.1043,-3.0718,-3.0896,-3.1482,-3.119,-3.1219,-3.1511,-3.1511,-3.1511,-3.1511,-3.1511,-3.1511,-3.1511,-3.1511,-3.1511,-3.1511,-3.1511,-3.1511,-3.1511,-3.1511,-3.1511,-3.1511,-3.1511,-3.1511,-3.1511,-3.1511,-3.1511,-3.1511,-3.1511,-3.1511,-3.1511,-3.1511,-3.1278,-3.1161,-3.1453,-3.1248,-3.1161,-3.1453,-3.1511,-3.1511,-3.1511,-3.1301,-3.0972,-3.0552,0.0,0.0,0.0,0.0,0.0,0.0,-2.9924,-3.0103,0.0,0.0,0.0,0.0,0.0,0.0,-3.2886,-3.3933,0.0,-3.5878,-3.6267,-3.7135,-3.8392,-3.8901,-3.9709,-4.0816,-4.1901,-4.253,-4.2761,-4.311,-4.329,-4.329,-4.329,-4.329,-4.329,-4.329,-4.329,-4.329,-4.329,-4.329,-4.329,-3.468,-3.468,0.0,0.0,-3.468,0.0,-3.3972,-3.3922,-3.3746,-3.3187,-3.3119,-3.3162,-3.3197,-3.3612,-3.4246,-3.5184,0.0,0.0,0.0,-3.4898,-3.3979,-3.391,-3.2164,-3.1167,-3.1093,-3.0254,-2.9818,-2.9845,-3.0344,-3.0787,-3.1164,-3.0555,-3.0267,-3.0269,-2.938,-2.9875,-3.1365,-3.0628,-3.0777,-3.1511,-3.1511,-3.1511,-3.1511,-3.1511,-3.1511,-3.1511,-3.1511,-3.1511,-3.1511,-3.1511,-3.1511,-3.1511,-3.1511,-3.1511,-3.1511,-3.1511,-3.1511,-3.1511,-3.1511,-3.1511,-3.1511,-3.1511,-3.1511,-3.1511,-3.1511,-3.0896,-3.0568,-3.1336,-3.0866,-3.0598,-3.1366,-3.1481,-3.1421,-3.1421,-3.0853,-3.0432,-3.0372,0.0,0.0,0.0,0.0,0.0,0.0,-3.1182,-3.1062,0.0,0.0,0.0,0.0,0.0,-3.2916,-3.3544,-3.4233,-3.5282,-3.6537,-3.6596,-3.7225,-3.8482,-3.9828,-4.0786,-4.1414,-4.2141,-4.2761,-4.329,-4.329,-4.329,-4.329,-4.329,-4.329,-4.329,-4.329,-4.329,-4.329,-4.329,-4.329,-4.329,0.0,0.0,-3.468,-3.468,-3.468,-3.4525,-3.3972,-3.4248,-3.4173,-3.3194,-3.3445,-3.3868,-3.4272,-3.5063,-3.5358,-3.4654,-3.4921,-3.5305,-3.5693,-3.4664,-3.3671,-3.2947,-3.1829,-3.0857,-3.0139,-2.9895,-2.9897,-3.0121,-3.0207,-3.0562,-3.1128,-3.0295,-3.0048,-3.0269,-2.938,-2.9597,-3.0569,-3.0389,-3.0777,-3.1511,-3.1511,-3.1511,-3.1511,-3.1511,-3.1511,-3.1511,-3.1511,-3.1511,-3.1511,-3.1511,-3.1511,-3.1511,-3.1511,-3.1511,-3.1511,-3.1511,-3.1511,-3.1511,-3.1511,-3.1511,-3.1511,-3.1511,-3.1511,-3.1511,-3.1511,-3.1188,-3.0998,-3.1426,-3.1188,-3.1029,-3.1425,-3.1062,-3.0761,-3.0761,-3.0223,-2.9624,-2.9116,-2.9355,0.0,0.0,-3.0672,-3.1271,-3.1271,-3.1869,-3.2138,0.0,0.0,0.0,0.0,-3.3664,-3.4114,-3.4264,-3.54,-3.6387,-3.7195,-3.7674,-3.8362,-3.92,-4.0516,-4.1235,-4.1452,-4.2581,-4.314,-4.329,-4.329,-4.329,-4.329,-4.329,-4.329,-4.329,-4.329,-4.329,-4.329,-4.329,-4.329,-4.329,-3.3571,-3.3571,-3.3495,-3.3244,-3.3194,-3.3093,-3.2792,-3.3219,-3.337,-3.2767,-3.2943,-3.3207,-3.355,-3.3993,-3.4032,-3.3382,-3.4598,-3.5056,-3.423,-3.3255,-3.2486,-3.1983,-3.1044,-3.0305,-2.9804,-2.9528,-2.9527,-2.9891,-2.9566,-2.9636,-2.9984,-2.961,-2.9529,-2.969,-2.9223,-2.969,-3.0807,-3.045,-3.0777,-3.1511,-3.1511,-3.1511,-3.1511,-3.1511,-3.1511,-3.1511,-3.1511,-3.1511,-3.1511,-3.1511,-3.1511,-3.1511,-3.1511,-3.1511,-3.1511,-3.1511,-3.1511,-3.1511,-3.1511,-3.1511,-3.1511,-3.1511,-3.172,-3.1959,-3.1959,-3.1775,-3.1666,-3.1931,-3.1775,-3.1582,-3.1514,-3.1182,-3.0881,-3.0552,-2.9744,-2.8996,-2.8637,-2.8906,0.0,-2.9924,-3.0883,-3.175,-3.2348,-3.3036,-3.3275,-3.2976,-3.3544,0.0,-3.3933,-3.4861,-3.5282,-3.4951,-3.5938,-3.6926,-3.7853,-3.8512,-3.92,-3.9888,-4.0905,-4.1572,-4.1901,-4.288,-4.329,-4.329,-4.329,-4.329,-4.329,-4.329,-4.329,-4.329,-4.329,-4.329,-4.329,-4.329,-4.329,-4.329,-3.2315,-3.2139,-3.1938,-3.1461,-3.1386,-3.1411,-3.1512,-3.1838,-3.2139,-3.2315,-3.219,-3.2156,-3.2398,-3.2278,-3.2105,-3.2064,-3.4122,-3.461,-3.2712,-3.1719,-3.1204,-3.1204,-3.0305,-2.9804,-2.9804,-2.9227,-2.9082,-2.9407,-2.876,-2.8523,-2.8682,-2.8845,-2.8958,-2.9002,-2.9002,-2.9844,-3.1278,-3.0569,-3.0719,-3.1361,-3.1361,-3.1301,-3.1212,-3.1212,-3.1154,-3.1068,-3.1273,-3.1303,-3.1217,-3.1452,-3.1511,-3.1511,-3.1511,-3.1511,-3.1511,-3.1511,-3.1424,-3.1336,-3.1482,-3.1424,-3.1336,-3.1482,-3.1901,-3.2348,-3.2467,-3.2392,-3.2396,-3.2615,-3.248,-3.2196,-3.1723,-3.1481,-3.1152,-3.0582,-2.9355,-2.8517,-2.8727,0.0,-2.9325,-3.0522,-3.1421,-3.2378,-3.3544,-3.4174,-3.4354,-3.3963,-3.4921,-3.534,-3.4983,-3.6031,-3.6417,-3.5938,-3.6477,-3.7345,-3.8542,-3.914,-3.9709,-4.0277,-4.1025,-4.1722,-4.2261,-4.3,-4.329,-4.329,-4.329,-4.329,-4.329,-4.329,-4.329,-4.329,-4.329,-4.329,-4.329,-4.329,-4.329,-4.329,-3.224,-3.1838,-3.1486,-3.1411,-3.1386,-3.1537,-3.2014,-3.1763,-3.1863,-3.2817,-3.2114,-3.2031,-3.3404,-3.312,-3.2631,-3.2193,-3.2562,-3.2769,-3.2613,-3.1719,-3.1204,-3.1204,-3.0305,-2.9804,-2.9804,-2.9227,-2.8913,-2.8999,-2.8442,-2.8277,-2.852,-2.855,-2.8723,-2.9002,-2.9002,-2.9535,-3.048,-3.0359,-3.0456,-3.0672,-3.0672,-3.0342,-2.9894,-2.9894,-2.9476,-2.9027,-3.0208,-3.0244,-2.993,-3.1099,-3.1511,-3.1511,-3.1511,-3.1511,-3.1511,-3.1511,-3.1014,-3.0628,-3.1307,-3.0984,-3.0658,-3.1307,-3.1456,-3.1592,-3.2348,-3.2742,-3.3032,-3.327,-3.3152,-3.2829,-3.2407,-3.142,-3.0642,-3.0522,-2.8963,-2.8154,-2.9292,0.0,-3.0492,-3.1241,-3.2946,-3.4144,-3.4324,-3.4444,-3.4923,-3.5938,-3.5699,-3.5938,-3.6896,-3.7165,-3.7464,-3.7943,-3.8033,-3.8482,-3.926,-3.9379,-3.9433,-3.9553,-4.0816,-4.1482,-4.1564,-4.2791,-4.329,-4.329,-4.329,-4.329,-4.329,-4.329,-4.329,-4.329,-4.329,-4.329,-4.329,-4.329,-4.329,-4.329,-3.1838,-3.1336,-3.0884,-3.0583,-3.0532,-3.0608,-3.0859,-3.0934,-3.126,-3.2064,-3.1712,-3.1665,-3.2423,-3.2026,-3.146,-3.0933,-3.0907,-3.0969,-3.1071,-3.0696,-3.0658,-3.1167,-3.0305,-2.9503,-2.89,-2.8624,-2.8197,-2.7595,-2.7379,-2.7496,-2.8072,-2.8544,-2.9091,-2.9721,-2.9774,-3.022,-3.0896,-3.0572,-3.019,-2.9954,-3.0352,-2.9628,-2.8396,-2.8789,-2.8481,-2.791,-2.8541,-2.8768,-2.8905,-3.0017,-3.0573,-3.0837,-3.0837,-3.0837,-3.0777,-3.0299,-3.0238,-3.0269,-3.0178,-2.9875,-2.9867,-3.1066,-3.1157,-3.1447,-3.3177,-3.3563,-3.367,-3.3986,-3.4214,-3.4112,-3.3214,-3.2258,-3.1599,-3.1599,-2.9953,0.0,0.0,-3.0853,-3.1421,-3.2437,-3.3694,-3.4653,-3.4981,-3.504,-3.5429,-3.6417,-3.6207,-3.6447,-3.7375,-3.7734,-3.8063,-3.8392,-3.8751,-3.911,-3.9373,-3.9768,-3.9948,-3.9948,-4.0935,-4.1602,-4.1961,-4.2551,-4.3,-4.329,-4.329,-4.329,-4.329,-4.329,-4.329,-4.329,-4.329,-4.329,-4.329,-4.329,-4.329,-4.329,-3.1311,-3.0984,-3.0633,-3.008,-2.998,-3.0055,-3.0306,-3.0507,-3.0909,-3.1687,-3.1461,-3.126,-3.1386,-3.0809,-3.0256,-2.9829,-2.9804,-2.9804,-2.9804,-2.9804,-3.0101,-3.082,-3.005,-2.9126,-2.8122,-2.7971,-2.7494,-2.6675,-2.6755,-2.7095,-2.7736,-2.8812,-2.9659,-3.03,-3.045,-3.0791,-3.1212,-3.0383,-2.9603,-2.9001,-2.94,-2.8483,-2.6912,-2.7513,-2.7229,-2.6675,-2.7128,-2.7453,-2.7864,-2.896,-2.9627,-3.0025,-3.0025,-3.0025,-2.9844,-2.9192,-2.9317,-2.9597,-2.9129,-2.8844,-2.9045,-3.052,-3.069,-3.1132,-3.3595,-3.4076,-3.4134,-3.4641,-3.513,-3.513,-3.3933,-3.3185,-3.2736,-3.2736,0.0,0.0,0.0,-3.1959,-3.2378,-3.3574,-3.4292,-3.4921,-3.5459,-3.5519,-3.5848,-3.6656,-3.6716,-3.7045,-3.7823,-3.8362,-3.8631,-3.8631,-3.914,-3.9373,-3.9373,-3.9918,-4.0247,-4.0397,-4.1055,-4.1692,-4.2171,-4.2321,-4.2641,-4.312,-4.312,-4.314,-4.329,-4.329,-4.329,-4.329,-4.329,-4.329,-4.329,-4.329,-4.329,-4.329,-3.0783,-3.1035,-3.116,-3.0633,-3.0557,-3.0884,-3.1888,-3.1235,-3.1185,-3.2784,-3.1612,-3.0859,-3.1336,-3.0482,-2.9829,-2.9804,-2.9804,-2.9804,-2.9804,-2.9804,-2.9818,-2.9895,-2.9315,-2.8687,-2.8122,-2.7595,-2.7293,-2.7218,-2.7488,-2.7637,-2.7736,-2.9411,-3.0238,-3.03,-3.045,-3.0522,-3.0496,-2.914,-2.8192,-2.759,-2.6947,-2.6245,-2.555,-2.5605,-2.5158,-2.4747,-2.6558,-2.6816,-2.6543,-2.8404,-2.9042,-2.9097,-2.9097,-2.9097,-2.9097,-2.9034,-2.846,-2.8038,-2.8812,-2.8395,-2.8132,-2.9553,-2.9754,-3.0212,-3.2644,-3.3643,-3.4279,-3.5234,-3.5459,-3.528,-3.4563,-3.3873,-3.3425,-3.3425,0.0,0.0,-3.3155,-3.3335,-3.3604,-3.4354,-3.5011,-3.5459,-3.5519,-3.5519,-3.6028,-3.7255,-3.7345,-3.7913,-3.9164,-3.932,-3.9349,-3.9349,-3.9343,-3.9373,-3.9373,-3.9433,-3.9798,-4.0397,-4.1055,-4.1452,-4.1474,-4.2111,-4.241,-4.247,-4.247,-4.2761,-4.329,-4.329,-4.329,-4.329,-4.329,-4.329,-4.329,-4.329,-4.329,-4.329,-3.1135,-3.126,-3.1235,-3.0708,-3.0608,-3.0633,-3.0708,-3.0357,-3.0557,-3.1863,-3.121,-3.0809,-3.1336,-3.0733,-3.0156,-2.9829,-2.9804,-2.9804,-2.9804,-2.9804,-2.9804,-2.9804,-2.983,-2.9277,-2.8122,-2.757,-2.7153,-2.6801,-2.6978,-2.7594,-2.8524,-2.9294,-3.0191,-3.1014,-3.0263,-3.0133,-3.0376,-2.8588,-2.7454,-2.6807,-2.6884,-2.5961,-2.4618,-2.5412,-2.5034,-2.4335,-2.5944,-2.599,-2.5619,-2.7803,-2.8384,-2.8168,-2.8168,-2.8168,-2.8103,-2.7604,-2.7454,-2.7533,-2.785,-2.7454,-2.7395,-2.9171,-2.9571,-3.025,-3.3033,-3.3835,-3.4279,-3.5294,-3.5519,-3.5429,-3.516,-3.4562,-3.4233,-3.4681,0.0,-3.3215,-3.4562,-3.4382,-3.4352,-3.504,-3.534,-3.5519,-3.5519,-3.5878,-3.6477,-3.7345,-3.7793,-3.8422,-3.9343,-3.9373,-3.9373,-3.9373,-3.9373,-3.9373,-3.9373,-3.9828,-3.9948,-3.9798,-4.0876,-4.1422,-4.1414,-4.2111,-4.2238,-4.1924,-4.1924,-4.203,-4.2234,-4.2234,-4.267,-4.329,-4.329,-4.329,-4.329,-4.329,-4.329,-4.329,-3.0959,-3.1311,-3.1436,-3.0733,-3.0758,-3.0733,-3.0357,-3.0156,-3.0382,-3.126,-3.0934,-3.0758,-3.111,-3.0683,-3.0206,-2.9829,-2.9804,-2.9804,-2.9804,-2.9804,-2.9704,-2.9528,-2.9622,-2.9104,-2.7871,-2.7293,-2.7015,-2.6884,-2.698,-2.783,-2.9411,-2.9538,-3.0162,-3.1072,-2.9978,-2.9572,-2.958,-2.7769,-2.6716,-2.6249,-2.6385,-2.5568,-2.4343,-2.5209,-2.5006,-2.4457,-2.585,-2.5806,-2.5362,-2.7363,-2.7717,-2.733,-2.733,-2.7434,-2.7454,-2.6924,-2.7153,-2.7544,-2.7544,-2.7268,-2.7369,-2.8902,-2.9314,-2.9979,-3.2548,-3.3359,-3.3842,-3.4839,-3.5294,-3.5519,-3.5519,-3.513,-3.4951,-3.5429,-3.4741,-3.4442,-3.537,-3.4845,-3.4631,-3.5427,-3.5198,-3.5255,-3.5756,-3.6207,-3.6836,-3.7644,-3.8123,-3.8691,-3.9343,-3.9373,-3.9373,-3.9373,-3.9373,-3.9373,-3.9373,-3.9858,-3.9978,-3.9738,-4.0846,-4.1422,-4.1414,-4.1703,-4.1613,-4.1258,-4.0897,-4.0843,-4.1085,-4.1462,-4.207,-4.282,-4.317,-4.329,-4.329,-4.329,-4.3061,-4.282,-3.0005,-3.111,-3.1888,-3.0809,-3.106,-3.1386,-3.1386,-3.0934,-3.0809,-3.1311,-3.0934,-3.0608,-3.0608,-3.0131,-2.9804,-2.9804,-2.9804,-2.9804,-2.9804,-2.9804,-2.9528,-2.8913,-2.8398,-2.7846,-2.7329,-2.6776,-2.6918,-2.7703,-2.7703,-2.8588,-3.0299,-3.0299,-3.0299,-3.027,-2.9577,-2.8815,-2.791,-2.6485,-2.5906,-2.5844,-2.5103,-2.48,-2.48,-2.48,-2.48,-2.498,-2.6393,-2.6343,-2.582,-2.7222,-2.7162,-2.6499,-2.6499,-2.6876,-2.7293,-2.7293,-2.767,-2.8122,-2.8122,-2.8122,-2.8247,-2.8762,-2.8925,-2.9314,-3.0876,-3.1911,-3.2876,-3.3808,-3.4806,-3.5519,-3.5519,-3.5519,-3.5519,-3.5519,-3.5519,-3.5519,-3.5519,-3.461,-3.4346,-3.5359,-3.4639,-3.4641,-3.635,-3.6507,-3.7015,-3.8302,-3.8392,-3.8691,-3.9343,-3.9373,-3.9373,-3.9373,-3.9373,-3.9373,-3.9403,-3.9373,-3.9738,-4.0397,-4.1055,-4.1384,-4.1376,-4.0848,-4.0584,-4.0543,-3.9369,-3.929,-4.0,-4.1127,-4.1587,-4.1711,-4.286,-4.329,-4.329,-4.329,-4.2589,-4.1753,-3.0984,-3.1938,-3.2466,-3.1361,-3.1286,-3.1135,-3.0382,-3.0131,-3.0231,-3.0783,-3.0382,-3.0181,-3.0583,-3.0131,-2.9804,-2.9804,-2.9804,-2.9804,-2.9804,-2.9804,-2.9704,-2.9553,-2.8976,-2.8423,-2.7871,-2.7354,-2.6981,-2.685,-2.6954,-2.783,-2.938,-2.8901,-2.9264,-3.024,-2.8949,-2.8244,-2.791,-2.6485,-2.5906,-2.5897,-2.551,-2.536,-2.541,-2.5812,-2.5711,-2.5567,-2.6961,-2.6679,-2.582,-2.7222,-2.7162,-2.6499,-2.6499,-2.6876,-2.7293,-2.7293,-2.7946,-2.8637,-2.8637,-2.8976,-2.9227,-2.8963,-2.9423,-3.0179,-3.1024,-3.1911,-3.2876,-3.3808,-3.4245,-3.4643,-3.5359,-3.5519,-3.5519,-3.5519,-3.5519,-3.5231,-3.4543,-3.4211,-3.4317,-3.5054,-3.4877,-3.5345,-3.6943,-3.7554,-3.7973,-3.8362,-3.8841,-3.92,-3.9373,-3.9373,-3.9373,-3.9373,-3.9373,-3.9649,-4.0098,-3.9649,-3.9106,-3.8614,-3.9654,-3.9755,-3.913,-3.9803,-3.9652,-3.8841,-3.8514,-3.8932,-3.9956,-4.0275,-4.1337,-4.282,-4.317,-4.329,-4.329,-4.329,-4.2589,-4.1629,-3.116,-3.1964,-3.2441,-3.1537,-3.1386,-3.111,-3.0256,-2.993,-2.9905,-3.0256,-3.0005,-2.9905,-3.0256,-2.998,-2.9804,-2.9804,-2.9804,-2.9804,-2.9804,-2.9804,-2.9804,-2.9804,-2.9453,-2.9001,-2.8448,-2.767,-2.7303,-2.7293,-2.6837,-2.7432,-2.9002,-2.8207,-2.8361,-2.9226,-2.8302,-2.7722,-2.7343,-2.6518,-2.6162,-2.6123,-2.5987,-2.5971,-2.6021,-2.6373,-2.6273,-2.6097,-2.7274,-2.7085,-2.6451,-2.7613,-2.7627,-2.7102,-2.6876,-2.7318,-2.7921,-2.7921,-2.8574,-2.9277,-2.9277,-2.9528,-2.9704,-2.9352,-2.9706,-3.0269,-3.058,-3.1352,-3.2307,-3.3227,-3.3739,-3.4312,-3.5326,-3.5519,-3.5519,-3.5519,-3.5166,-3.4677,-3.4109,-3.3557,-3.3485,-3.4271,-3.4237,-3.4775,-3.6411,-3.6954,-3.7273,-3.7506,-3.7912,-3.8331,-3.873,-3.8797,-3.8943,-3.9373,-3.9373,-3.9371,-3.9357,-3.8974,-3.8668,-3.8515,-3.8837,-3.8751,-3.8434,-3.8967,-3.8783,-3.8062,-3.7632,-3.8088,-3.9227,-3.9711,-4.0958,-4.267,-4.313,-4.329,-4.329,-4.329,-4.2304,-4.1,-3.0859,-3.1461,-3.1964,-3.1411,-3.1361,-3.121,-3.0633,-3.0156,-2.9854,-2.9804,-2.9804,-2.9804,-2.9804,-2.9804,-2.9804,-2.9804,-2.9804,-2.9804,-2.9804,-2.9804,-2.9804,-2.9804,-2.9804,-2.9553,-2.8988,-2.7921,-2.7717,-2.8384,-2.7105,-2.733,-2.8876,-2.7999,-2.7637,-2.7703,-2.7604,-2.7196,-2.6499,-2.6499,-2.6499,-2.6499,-2.6499,-2.6499,-2.6499,-2.6499,-2.6499,-2.6602,-2.733,-2.743,-2.7334,-2.8109,-2.8244,-2.8021,-2.7519,-2.8072,-2.8888,-2.8888,-2.9327,-2.9804,-2.9804,-2.9804,-2.9804,-2.9804,-2.9804,-2.9804,-2.9804,-3.0457,-3.1352,-3.2379,-3.329,-3.4211,-3.5294,-3.5549,-3.5547,-3.5392,-3.4664,-3.4088,-3.3859,-3.28,-3.2421,-3.3311,-3.3108,-3.3553,-3.5201,-3.5399,-3.5593,-3.6156,-3.6267,-3.6727,-3.7825,-3.7863,-3.8306,-3.9318,-3.9354,-3.8848,-3.7835,-3.772,-3.8157,-3.9145,-3.8268,-3.8101,-3.8507,-3.8131,-3.7926,-3.788,-3.6989,-3.7171,-3.8254,-3.9508,-4.0647,-4.1691,-4.2782,-4.317,-4.314,-4.32,-4.1778,-3.996,-3.1185,-3.1411,-3.1411,-3.0884,-3.111,-3.106,-3.0105,-3.0231,-3.0281,-2.9854,-2.9804,-2.9804,-2.9804,-2.9804,-2.9804,-2.9804,-2.9804,-2.9804,-2.9804,-2.9804,-2.9804,-2.9804,-2.9804,-2.9729,-2.9603,-2.8499,-2.7803,-2.7561,-2.6854,-2.6994,-2.7966,-2.7129,-2.7095,-2.767,-2.7027,-2.6645,-2.6499,-2.6499,-2.6499,-2.6499,-2.6499,-2.6499,-2.6499,-2.6499,-2.6499,-2.6533,-2.6679,-2.6721,-2.676,-2.7364,-2.7824,-2.8072,-2.7971,-2.8373,-2.8888,-2.8888,-2.9327,-2.9804,-2.9804,-2.9804,-2.9804,-2.9804,-2.9804,-2.9804,-2.9804,-2.9972,-3.057,-3.2236,-3.2735,-3.3429,-3.5166,-3.5938,-3.5826,-3.4563,-3.4981,-3.4767,-3.2732,-3.252,-3.2921,-3.3647,-3.3648,-3.4219,-3.5845,-3.6018,-3.6073,-3.6184,-3.6613,-3.7398,-3.8524,-3.8524,-3.864,-3.8937,-3.8899,-3.8599,-3.8016,-3.7096,-3.6327,-3.5763,-3.6411,-3.6271,-3.5641,-3.6437,-3.6756,-3.6803,-3.7448,-3.8113,-3.8851,-4.052,-4.1326,-4.1525,-4.2294,-4.2252,-4.1863,-4.2372,-4.1111,-3.8965,-3.111,-3.1436,-3.1612,-3.1085,-3.1009,-3.0834,-3.0281,-3.0206,-3.0131,-2.9829,-2.9804,-2.9804,-2.9804,-2.9804,-2.9804,-2.9804,-2.9804,-2.9804,-2.9804,-2.9804,-2.9804,-2.9804,-2.9804,-2.9804,-2.9804,-2.895,-2.8222,-2.767,-2.7118,-2.6993,-2.7129,-2.6679,-2.6714,-2.7095,-2.6679,-2.6499,-2.6499,-2.6499,-2.6499,-2.6499,-2.6499,-2.6499,-2.6499,-2.6499,-2.6499,-2.6524,-2.6801,-2.7228,-2.767,-2.7971,-2.8448,-2.8875,-2.8574,-2.8875,-2.9352,-2.9352,-2.9553,-2.9804,-2.9804,-2.9804,-2.9804,-2.9804,-2.9804,-2.9804,-2.9804,-2.9804,-3.0445,-3.2618,-3.2822,-3.3213,-3.5326,-3.5742,-3.5403,-3.4335,-3.4325,-3.3929,-3.2564,-3.2448,-3.2658,-3.2982,-3.3266,-3.3799,-3.4665,-3.4733,-3.4911,-3.544,-3.5553,-3.6155,-3.749,-3.7306,-3.7294,-3.754,-3.754,-3.7306,-3.6874,-3.6226,-3.5538,-3.4736,-3.5543,-3.5621,-3.5107,-3.5981,-3.6254,-3.6028,-3.6627,-3.782,-3.9388,-3.9746,-4.0828,-4.2282,-4.2013,-4.2073,-4.2312,-4.2381,-4.1111,-3.9098,-3.0984,-3.1311,-3.1662,-3.1185,-3.0834,-3.0583,-3.0482,-3.0156,-2.9905,-2.9804,-2.9804,-2.9804,-2.9804,-2.9804,-2.9804,-2.9804,-2.9804,-2.9804,-2.9804,-2.9804,-2.9804,-2.9804,-2.9804,-2.9804,-2.9804,-2.9327,-2.8712,-2.8097,-2.7645,-2.7128,-2.6499,-2.66,-2.6575,-2.6499,-2.6499,-2.6499,-2.6499,-2.6499,-2.6499,-2.6499,-2.6499,-2.6499,-2.6499,-2.6499,-2.6549,-2.67,-2.7153,-2.7996,-2.8888,-2.8888,-2.9327,-2.9704,-2.9189,-2.9402,-2.9804,-2.9804,-2.9804,-2.9804,-2.9804,-2.9804,-2.9804,-2.9804,-2.9804,-2.9804,-2.9905,-2.9854,-3.0484,-3.2843,-3.2873,-3.3126,-3.5244,-3.5275,-3.4772,-3.4163,-3.3536,-3.3014,-3.2751,-3.25,-3.2365,-3.2365,-3.2792,-3.3111,-3.3111,-3.3111,-3.3556,-3.4635,-3.4367,-3.4914,-3.6563,-3.6266,-3.6239,-3.6615,-3.6457,-3.6117,-3.5637,-3.5529,-3.5329,-3.5002,-3.5433,-3.5583,-3.5508,-3.6107,-3.6056,-3.5508,-3.5713,-3.709,-3.9102,-3.8658,-4.0008,-4.2277,-4.1795,-4.2013,-4.2533,-4.1892,-4.0691,-3.9179,-3.1135,-3.0658,-3.0105,-3.003,-3.0357,-3.0457,-2.998,-3.0256,-3.0331,-2.9854,-2.9804,-2.9804,-2.9804,-2.9804,-2.9804,-2.9804,-2.9804,-2.9804,-2.9804,-2.9804,-2.9804,-2.9804,-2.9804,-2.9804,-2.9804,-2.9704,-2.9151,-2.8097,-2.8021,-2.7469,-2.6499,-2.6977,-2.6952,-2.6499,-2.6499,-2.6499,-2.6499,-2.6499,-2.6499,-2.6499,-2.6499,-2.6499,-2.6499,-2.6499,-2.6801,-2.7193,-2.7243,-2.7996,-2.8888,-2.8888,-2.9327,-2.9779,-2.9704,-2.9729,-2.9804,-2.9804,-2.9804,-2.9804,-2.9804,-2.9804,-2.9804,-2.9804,-2.9804,-2.9905,-3.0407,-3.0131,-3.0253,-3.1894,-3.2148,-3.2573,-3.4221,-3.4917,-3.475,-3.3235,-3.3793,-3.3927,-3.2472,-3.2676,-3.3011,-3.3011,-3.3061,-3.3111,-3.3111,-3.3111,-3.3556,-3.4635,-3.5037,-3.6222,-3.831,-3.8318,-3.8318,-3.8427,-3.7494,-3.6742,-3.6174,-3.5705,-3.5718,-3.6179,-3.6254,-3.6006,-3.5508,-3.6107,-3.6056,-3.5529,-3.6619,-3.6691,-3.6327,-3.9224,-3.9697,-3.8812,-4.1288,-4.1294,-3.978,-3.8859,-3.8136,-3.7537,-3.0583,-3.0608,-3.0507,-2.9905,-3.0005,-3.008,-2.9829,-3.0005,-3.008,-2.9829,-2.9804,-2.9804,-2.9804,-2.9804,-2.9804,-2.9804,-2.9804,-2.9804,-2.9804,-2.9804,-2.9804,-2.9804,-2.9804,-2.9804,-2.9804,-2.9804,-2.9402,-2.8574,-2.8574,-2.8147,-2.7369,-2.7318,-2.7178,-2.6927,-2.6625,-2.6499,-2.6499,-2.6499,-2.6499,-2.6499,-2.6499,-2.6499,-2.6524,-2.6826,-2.7102,-2.7318,-2.762,-2.8473,-2.9352,-2.8988,-2.9327,-2.9804,-2.9804,-2.9804,-2.9804,-2.9804,-2.9804,-2.9804,-2.9804,-2.9804,-2.9804,-2.9804,-3.003,-3.0306,-3.0557,-3.0658,-3.1128,-3.2686,-3.2711,-3.2881,-3.4285,-3.4471,-3.4087,-3.3137,-3.3434,-3.3538,-3.2802,-3.2918,-3.3111,-3.3111,-3.3111,-3.3111,-3.3111,-3.3111,-3.3784,-3.544,-3.4952,-3.5431,-3.7248,-3.6511,-3.6196,-3.6493,-3.5435,-3.5168,-3.5874,-3.5009,-3.4901,-3.5454,-3.5454,-3.5479,-3.5508,-3.5805,-3.578,-3.5504,-3.5437,-3.5825,-3.6601,-3.8172,-3.8808,-3.9122,-4.1101,-4.113,-3.9877,-3.8198,-3.7651,-3.7629]}]]